[[{"header":{"parameterUnit":"m.s-1","parameterCategory":1,"la1":31.0,"la2":29.5877,"lo1":-88.7671,"lo2":-86.6584,"dy":0.0162,"dx":0.0185,"nx":115,"ny":88,"refTime":"2023-08-08T18:00:00:Z","depth":0,"parameterNumber":2,"parameterNumberName":"U-component_of_WINDS"},"data":[0.0,0.0,0.0,0.0,0.0,0.0,0.0,0.0,0.0,0.0,0.0,0.0,0.0,0.0,0.0,0.0,0.0,0.0,0.0,0.0,0.0,0.0,0.0,0.0,0.0,0.0,0.0,0.0,0.0,0.0,0.0,0.0,0.0,0.0,0.0,0.0,0.0,0.0,0.0,0.0,0.0,0.0,0.0,0.0,0.0,0.0,0.0,0.0,0.0,0.0,0.0,0.0,0.0,0.0,0.0,0.0,0.0,0.0,0.0,0.0,0.0,0.0,0.0,0.0,0.0,0.0,0.0,0.0,0.0,0.0,0.0,0.0,0.0,0.0,0.0,0.0,0.0,0.0,0.0,0.0,0.0,0.0,0.0,0.0,0.0,0.0,0.0,0.0,0.0,0.0,0.0,0.0,0.0,0.0,0.0,0.0,0.0,0.0,0.0,0.0,0.0,0.0,0.0,0.0,0.0,0.0,0.0,0.0,0.0,0.0,0.0,0.0,0.0,0.0,0.0,0.0,0.0,0.0,0.0,0.0,0.0,0.0,0.0,0.0,0.0,0.0,0.0,0.0,0.0,0.0,0.0,0.0,0.0,0.0,0.0,0.0,0.0,0.0,0.0,0.0,0.0,0.0,0.0,0.0,0.0,0.0,0.0,0.0,0.0,0.0,0.0,0.0,0.0,0.0,0.0,0.0,0.0,0.0,0.0,0.0,0.0,0.0,0.0,0.0,0.0,0.0,0.0,0.0,0.0,0.0,0.0,0.0,0.0,0.0,0.0,0.0,0.0,0.0,0.0,0.0,0.0,0.0,0.0,0.0,0.0,0.0,0.0,0.0,0.0,0.0,0.0,0.0,0.0,0.0,0.0,0.0,0.0,0.0,0.0,0.0,0.0,0.0,0.0,0.0,0.0,0.0,0.0,0.0,0.0,0.0,0.0,0.0,0.0,0.0,0.0,0.0,0.0,0.0,0.0,0.0,0.0,0.0,0.0,0.0,0.0,0.0,0.0,0.0,0.0,0.0,0.0,0.0,0.0,0.0,0.0,0.0,0.0,0.0,0.0,0.0,0.0,0.0,0.0,0.0,0.0,0.0,0.0,0.0,0.0,0.0,0.0,0.0,0.0,0.0,0.0,0.0,0.0,0.0,0.0,0.0,0.0,0.0,0.0,0.0,0.0,0.0,0.0,0.0,0.0,0.0,0.0,0.0,0.0,0.0,0.0,0.0,0.0,0.0,0.0,0.0,0.0,0.0,0.0,0.0,0.0,0.0,0.0,0.0,0.0,0.0,0.0,0.0,0.0,0.0,0.0,0.0,0.0,0.0,0.0,0.0,0.0,0.0,0.0,0.0,0.0,0.0,0.0,0.0,0.0,0.0,0.0,0.0,0.0,0.0,0.0,0.0,0.0,0.0,0.0,0.0,0.0,0.0,0.0,0.0,0.0,0.0,0.0,0.0,0.0,0.0,0.0,0.0,0.0,0.0,0.0,0.0,0.0,0.0,0.0,0.0,0.0,0.0,0.0,0.0,0.0,0.0,0.0,0.0,0.0,0.0,0.0,0.0,0.0,0.0,0.0,0.0,0.0,0.0,0.0,0.0,0.0,0.0,0.0,0.0,0.0,0.0,0.0,0.0,0.0,0.0,0.0,0.0,0.0,0.0,0.0,0.0,0.0,0.0,0.0,0.0,0.0,0.0,0.0,0.0,0.0,0.0,0.0,0.0,0.0,0.0,0.0,0.0,0.0,0.0,0.0,0.0,0.0,0.0,0.0,0.0,0.0,0.0,0.0,0.0,0.0,0.0,0.0,0.0,0.0,0.0,0.0,0.0,0.0,0.0,0.0,0.0,0.0,0.0,0.0,0.0,0.0,0.0,0.0,0.0,0.0,0.0,0.0,0.0,0.0,0.0,0.0,0.0,0.0,0.0,0.0,0.0,0.0,0.0,0.0,0.0,0.0,0.0,0.0,0.0,0.0,0.0,0.0,0.0,0.0,0.0,0.0,0.0,0.0,0.0,0.0,0.0,0.0,0.0,0.0,0.0,0.0,0.0,0.0,0.0,0.0,0.0,0.0,0.0,0.0,0.0,0.0,0.0,0.0,0.0,0.0,0.0,0.0,0.0,0.0,0.0,0.0,0.0,0.0,0.0,0.0,0.0,0.0,0.0,0.0,0.0,0.0,0.0,0.0,0.0,0.0,0.0,0.0,0.0,0.0,0.0,0.0,0.0,0.0,0.0,0.0,0.0,0.0,0.0,0.0,0.0,0.0,0.0,0.0,0.0,0.0,0.0,0.0,0.0,0.0,0.0,0.0,0.0,0.0,0.0,0.0,0.0,0.0,0.0,0.0,0.0,0.0,0.0,0.0,0.0,0.0,0.0,0.0,0.0,0.0,0.0,0.0,0.0,0.0,0.0,0.0,0.0,0.0,0.0,0.0,0.0,0.0,0.0,0.0,0.0,0.0,0.0,0.0,0.0,0.0,0.0,0.0,0.0,0.0,0.0,0.0,0.0,0.0,0.0,0.0,0.0,0.0,0.0,0.0,0.0,0.0,0.0,0.0,0.0,0.0,0.0,0.0,0.0,0.0,0.0,0.0,0.0,0.0,0.0,0.0,0.0,0.0,0.0,0.0,0.0,0.0,0.0,0.0,0.0,0.0,0.0,0.0,0.0,0.0,0.0,0.0,0.0,0.0,0.0,0.0,0.0,0.0,0.0,0.0,0.0,0.0,0.0,0.0,0.0,0.0,0.0,0.0,0.0,0.0,0.0,0.0,0.0,0.0,0.0,0.0,0.0,0.0,0.0,0.0,0.0,0.0,0.0,0.0,0.0,0.0,0.0,0.0,0.0,0.0,0.0,0.0,0.0,0.0,0.0,0.0,0.0,0.0,0.0,0.0,0.0,0.0,0.0,0.0,0.0,0.0,0.0,0.0,0.0,0.0,0.0,0.0,0.0,0.0,0.0,0.0,0.0,0.0,0.0,0.0,0.0,0.0,0.0,0.0,0.0,0.0,0.0,0.0,0.0,0.0,0.0,0.0,0.0,0.0,0.0,0.0,0.0,0.0,0.0,0.0,0.0,0.0,0.0,0.0,0.0,0.0,0.0,0.0,0.0,0.0,0.0,0.0,0.0,0.0,0.0,0.0,0.0,0.0,0.0,0.0,0.0,0.0,0.0,0.0,0.0,0.0,0.0,0.0,0.0,0.0,0.0,0.0,0.0,0.0,0.0,0.0,0.0,0.0,0.0,0.0,0.0,0.0,0.0,0.0,0.0,0.0,0.0,0.0,0.0,0.0,0.0,0.0,0.0,0.0,0.0,0.0,0.0,0.0,0.0,0.0,0.0,0.0,0.0,0.0,0.0,0.0,0.0,0.0,0.0,0.0,0.0,0.0,0.0,0.0,0.0,0.0,0.0,0.0,0.0,0.0,0.0,0.0,0.0,0.0,0.0,0.0,0.0,0.0,0.0,0.0,0.0,0.0,0.0,0.0,0.0,0.0,0.0,0.0,0.0,0.0,0.0,0.0,0.0,0.0,0.0,0.0,0.0,0.0,0.0,0.0,0.0,0.0,0.0,0.0,0.0,0.0,0.0,0.0,0.0,0.0,0.0,0.0,0.0,0.0,0.0,0.0,0.0,0.0,0.0,0.0,0.0,0.0,0.0,0.0,0.0,0.0,0.0,0.0,0.0,0.0,0.0,0.0,0.0,0.0,0.0,0.0,0.0,0.0,0.0,0.0,0.0,0.0,0.0,0.0,0.0,0.0,0.0,0.0,0.0,0.0,0.0,0.0,0.0,0.0,0.0,0.0,0.0,0.0,0.0,0.0,0.0,0.0,0.0,0.0,0.0,0.0,0.0,0.0,0.0,0.0,0.0,0.0,0.0,0.0,0.0,0.0,0.0,0.0,0.0,0.0,0.0,0.0,0.0,0.0,0.0,0.0,0.0,0.0,0.0,0.0,0.0,0.0,0.0,0.0,0.0,0.0,0.0,0.0,0.0,0.0,0.0,0.0,0.0,0.0,0.0,0.0,0.0,0.0,0.0,0.0,0.0,0.0,0.0,0.0,0.0,0.0,0.0,0.0,0.0,0.0,0.0,0.0,0.0,0.0,0.0,0.0,0.0,0.0,0.0,0.0,0.0,0.0,0.0,0.0,0.0,0.0,0.0,0.0,0.0,0.0,0.0,0.0,0.0,0.0,0.0,0.0,0.0,0.0,0.0,0.0,0.0,0.0,0.0,0.0,0.0,0.0,0.0,0.0,0.0,0.0,0.0,0.0,0.0,-2.1627,0.0,0.0,0.0,0.0,0.0,0.0,0.0,0.0,0.0,0.0,0.0,0.0,0.0,0.0,0.0,0.0,0.0,0.0,0.0,0.0,0.0,0.0,0.0,0.0,0.0,0.0,0.0,0.0,0.0,0.0,0.0,0.0,0.0,0.0,0.0,0.0,0.0,0.0,0.0,0.0,0.0,0.0,0.0,0.0,0.0,0.0,0.0,0.0,0.0,0.0,0.0,0.0,0.0,0.0,0.0,0.0,0.0,0.0,0.0,0.0,0.0,0.0,0.0,0.0,0.0,0.0,0.0,0.0,0.0,0.0,0.0,0.0,0.0,0.0,0.0,0.0,0.0,0.0,0.0,0.0,0.0,0.0,0.0,0.0,0.0,0.0,0.0,0.0,0.0,0.0,0.0,0.0,0.0,0.0,0.0,0.0,0.0,0.0,0.0,0.0,0.0,0.0,0.0,0.0,0.0,0.0,0.0,0.0,0.0,0.0,-2.2419,-2.2391,-2.2055,-2.1881,-2.1861,0.0,0.0,0.0,0.0,0.0,0.0,0.0,0.0,0.0,0.0,0.0,0.0,0.0,0.0,0.0,0.0,0.0,0.0,0.0,0.0,0.0,0.0,0.0,0.0,0.0,0.0,0.0,0.0,0.0,0.0,0.0,0.0,0.0,0.0,0.0,0.0,0.0,0.0,0.0,0.0,0.0,0.0,0.0,0.0,0.0,0.0,0.0,0.0,0.0,0.0,0.0,0.0,0.0,0.0,0.0,0.0,0.0,0.0,0.0,0.0,0.0,0.0,0.0,0.0,0.0,0.0,0.0,0.0,0.0,0.0,0.0,0.0,0.0,0.0,0.0,0.0,0.0,0.0,0.0,0.0,0.0,0.0,0.0,0.0,0.0,0.0,0.0,0.0,0.0,0.0,0.0,0.0,0.0,0.0,0.0,0.0,0.0,0.0,0.0,0.0,0.0,0.0,0.0,0.0,0.0,0.0,0.0,0.0,0.0,0.0,0.0,0.0,-2.222,-2.2209,-2.2135,0.0,0.0,0.0,0.0,0.0,0.0,0.0,0.0,0.0,0.0,0.0,0.0,0.0,0.0,0.0,0.0,0.0,0.0,0.0,0.0,0.0,0.0,0.0,0.0,0.0,0.0,0.0,0.0,0.0,0.0,0.0,0.0,0.0,0.0,0.0,0.0,0.0,0.0,0.0,0.0,0.0,0.0,0.0,0.0,0.0,0.0,0.0,0.0,0.0,0.0,0.0,0.0,0.0,0.0,0.0,0.0,0.0,0.0,0.0,0.0,0.0,0.0,0.0,0.0,0.0,0.0,0.0,0.0,0.0,0.0,0.0,0.0,0.0,0.0,0.0,0.0,0.0,0.0,0.0,0.0,0.0,0.0,0.0,0.0,0.0,0.0,0.0,0.0,0.0,0.0,0.0,0.0,0.0,0.0,0.0,0.0,0.0,0.0,0.0,0.0,0.0,0.0,0.0,0.0,0.0,0.0,0.0,0.0,0.0,0.0,-2.2027,-2.2027,-2.2027,0.0,-2.1996,0.0,0.0,0.0,0.0,0.0,0.0,0.0,0.0,0.0,0.0,0.0,0.0,0.0,0.0,0.0,0.0,0.0,0.0,0.0,0.0,0.0,0.0,0.0,0.0,0.0,0.0,0.0,0.0,0.0,0.0,0.0,0.0,0.0,0.0,0.0,0.0,0.0,0.0,0.0,0.0,0.0,0.0,0.0,0.0,0.0,0.0,0.0,0.0,0.0,0.0,0.0,0.0,0.0,0.0,0.0,0.0,0.0,0.0,0.0,0.0,0.0,0.0,0.0,0.0,0.0,0.0,0.0,0.0,0.0,0.0,0.0,0.0,0.0,0.0,0.0,0.0,0.0,0.0,0.0,0.0,0.0,0.0,0.0,0.0,0.0,0.0,0.0,0.0,0.0,0.0,0.0,0.0,0.0,0.0,0.0,0.0,0.0,0.0,0.0,0.0,0.0,0.0,0.0,0.0,0.0,0.0,0.0,0.0,0.0,0.0,-2.1884,-2.1868,-2.184,-2.1842,0.0,0.0,0.0,0.0,0.0,0.0,0.0,0.0,0.0,0.0,0.0,0.0,0.0,0.0,0.0,0.0,0.0,0.0,0.0,0.0,0.0,0.0,0.0,0.0,0.0,0.0,0.0,0.0,0.0,0.0,0.0,0.0,0.0,0.0,0.0,0.0,0.0,0.0,0.0,0.0,0.0,0.0,0.0,0.0,0.0,0.0,0.0,0.0,0.0,0.0,0.0,0.0,0.0,0.0,0.0,0.0,0.0,0.0,0.0,0.0,0.0,0.0,0.0,0.0,0.0,0.0,0.0,0.0,0.0,0.0,0.0,0.0,0.0,0.0,0.0,0.0,0.0,0.0,0.0,0.0,0.0,0.0,0.0,0.0,0.0,0.0,0.0,0.0,0.0,0.0,0.0,0.0,0.0,0.0,0.0,0.0,0.0,0.0,0.0,0.0,0.0,0.0,0.0,0.0,0.0,0.0,0.0,0.0,0.0,0.0,-2.1738,-2.1723,-2.1676,-2.1648,-2.1617,-2.1602,0.0,0.0,0.0,0.0,0.0,0.0,0.0,0.0,0.0,0.0,0.0,0.0,0.0,0.0,0.0,0.0,0.0,0.0,0.0,0.0,0.0,0.0,0.0,0.0,0.0,0.0,0.0,0.0,0.0,0.0,0.0,0.0,0.0,0.0,0.0,0.0,0.0,0.0,0.0,0.0,0.0,0.0,0.0,0.0,0.0,0.0,0.0,0.0,0.0,0.0,0.0,0.0,0.0,0.0,0.0,0.0,0.0,0.0,0.0,0.0,0.0,0.0,0.0,0.0,0.0,0.0,0.0,0.0,0.0,0.0,0.0,0.0,0.0,0.0,0.0,0.0,0.0,0.0,0.0,0.0,0.0,0.0,0.0,0.0,0.0,0.0,0.0,0.0,0.0,0.0,0.0,0.0,0.0,0.0,0.0,0.0,0.0,0.0,0.0,0.0,0.0,0.0,0.0,0.0,0.0,0.0,0.0,0.0,-2.1603,-2.1588,-2.1542,-2.1417,-2.1433,-2.1417,0.0,0.0,0.0,0.0,0.0,0.0,0.0,0.0,0.0,0.0,0.0,0.0,0.0,0.0,0.0,0.0,0.0,0.0,0.0,0.0,0.0,0.0,0.0,0.0,0.0,0.0,0.0,0.0,0.0,0.0,0.0,0.0,0.0,0.0,0.0,0.0,0.0,0.0,0.0,0.0,0.0,0.0,0.0,0.0,0.0,0.0,0.0,0.0,0.0,0.0,0.0,0.0,0.0,0.0,0.0,0.0,0.0,0.0,0.0,0.0,0.0,0.0,0.0,0.0,0.0,0.0,0.0,0.0,0.0,0.0,0.0,0.0,0.0,0.0,0.0,0.0,0.0,0.0,0.0,0.0,0.0,0.0,0.0,0.0,0.0,0.0,0.0,0.0,0.0,0.0,0.0,0.0,0.0,0.0,0.0,0.0,0.0,0.0,0.0,0.0,0.0,0.0,0.0,0.0,0.0,0.0,0.0,0.0,0.0,-2.1357,-2.1294,-2.1215,-2.1103,-2.1151,-2.1183,0.0,0.0,0.0,0.0,0.0,0.0,0.0,0.0,0.0,0.0,0.0,0.0,0.0,0.0,0.0,0.0,0.0,0.0,0.0,0.0,0.0,0.0,0.0,0.0,0.0,0.0,0.0,0.0,0.0,0.0,0.0,0.0,0.0,0.0,0.0,0.0,0.0,0.0,0.0,0.0,0.0,0.0,0.0,0.0,0.0,0.0,0.0,0.0,0.0,0.0,0.0,0.0,0.0,0.0,0.0,0.0,0.0,0.0,0.0,0.0,0.0,0.0,0.0,0.0,0.0,0.0,0.0,0.0,0.0,0.0,0.0,0.0,0.0,0.0,0.0,0.0,0.0,0.0,0.0,0.0,0.0,0.0,0.0,0.0,0.0,0.0,0.0,0.0,0.0,0.0,0.0,0.0,0.0,0.0,0.0,0.0,0.0,0.0,0.0,0.0,0.0,0.0,0.0,0.0,0.0,0.0,0.0,0.0,0.0,-2.1725,0.0,-2.1575,-2.1492,-2.1523,-2.1525,0.0,0.0,0.0,0.0,0.0,0.0,0.0,0.0,0.0,0.0,0.0,0.0,0.0,0.0,0.0,0.0,0.0,0.0,0.0,0.0,0.0,0.0,0.0,0.0,0.0,0.0,0.0,0.0,0.0,0.0,0.0,0.0,0.0,0.0,0.0,0.0,0.0,0.0,0.0,0.0,0.0,0.0,0.0,0.0,0.0,0.0,0.0,0.0,0.0,0.0,0.0,0.0,0.0,0.0,0.0,0.0,0.0,0.0,0.0,0.0,0.0,0.0,0.0,0.0,0.0,0.0,0.0,0.0,0.0,0.0,0.0,0.0,0.0,0.0,0.0,0.0,0.0,0.0,0.0,0.0,0.0,0.0,0.0,0.0,0.0,0.0,0.0,0.0,0.0,0.0,0.0,0.0,0.0,0.0,0.0,0.0,0.0,0.0,0.0,0.0,0.0,0.0,0.0,0.0,0.0,0.0,0.0,0.0,-2.2851,-2.2776,-2.276,-2.2676,-2.2679,-2.2524,-2.2521,0.0,0.0,0.0,0.0,0.0,0.0,0.0,0.0,0.0,0.0,0.0,0.0,0.0,0.0,0.0,0.0,0.0,0.0,0.0,0.0,0.0,0.0,0.0,0.0,0.0,0.0,0.0,0.0,0.0,0.0,0.0,0.0,0.0,0.0,0.0,0.0,0.0,0.0,0.0,0.0,0.0,0.0,0.0,0.0,0.0,0.0,0.0,0.0,0.0,0.0,0.0,0.0,0.0,0.0,0.0,0.0,0.0,0.0,0.0,0.0,0.0,0.0,0.0,0.0,0.0,0.0,0.0,0.0,0.0,0.0,0.0,0.0,0.0,0.0,0.0,0.0,0.0,0.0,0.0,0.0,0.0,0.0,0.0,0.0,0.0,0.0,0.0,0.0,0.0,0.0,0.0,0.0,0.0,0.0,0.0,0.0,0.0,0.0,0.0,0.0,0.0,0.0,0.0,0.0,0.0,0.0,0.0,0.0,0.0,-2.2549,-2.2605,-2.2605,-2.2496,-2.2456,-2.2434,0.0,0.0,0.0,0.0,0.0,0.0,0.0,0.0,0.0,0.0,0.0,0.0,0.0,0.0,0.0,0.0,0.0,0.0,0.0,0.0,0.0,0.0,0.0,0.0,0.0,0.0,0.0,0.0,0.0,0.0,0.0,0.0,0.0,0.0,0.0,0.0,0.0,0.0,0.0,0.0,0.0,0.0,0.0,0.0,0.0,0.0,0.0,0.0,0.0,0.0,0.0,0.0,0.0,0.0,0.0,0.0,0.0,0.0,0.0,0.0,0.0,0.0,0.0,0.0,0.0,0.0,0.0,0.0,0.0,0.0,0.0,0.0,0.0,0.0,0.0,0.0,0.0,0.0,0.0,0.0,0.0,0.0,0.0,0.0,0.0,0.0,0.0,0.0,0.0,0.0,0.0,0.0,0.0,0.0,0.0,0.0,0.0,0.0,0.0,0.0,0.0,0.0,0.0,0.0,0.0,0.0,0.0,0.0,0.0,-2.4464,-2.4112,-2.3973,-2.4071,-2.3912,-2.3503,-2.2897,0.0,0.0,0.0,0.0,0.0,0.0,0.0,0.0,0.0,0.0,0.0,0.0,0.0,0.0,0.0,0.0,0.0,0.0,0.0,0.0,0.0,0.0,0.0,0.0,0.0,0.0,0.0,0.0,0.0,0.0,0.0,0.0,0.0,0.0,0.0,0.0,0.0,0.0,0.0,0.0,0.0,0.0,0.0,0.0,0.0,0.0,0.0,0.0,0.0,0.0,0.0,0.0,0.0,0.0,0.0,0.0,0.0,0.0,0.0,0.0,0.0,0.0,0.0,0.0,0.0,0.0,0.0,0.0,0.0,0.0,0.0,0.0,0.0,0.0,0.0,0.0,0.0,0.0,0.0,0.0,0.0,0.0,0.0,0.0,0.0,0.0,0.0,0.0,0.0,0.0,0.0,0.0,0.0,0.0,0.0,0.0,0.0,0.0,0.0,0.0,0.0,0.0,0.0,0.0,0.0,0.0,0.0,0.0,-2.8036,-2.7037,-2.6679,-2.697,-2.6458,-2.5507,0.0,0.0,0.0,0.0,0.0,0.0,0.0,0.0,0.0,0.0,0.0,0.0,0.0,0.0,0.0,0.0,0.0,0.0,0.0,0.0,0.0,0.0,0.0,0.0,0.0,0.0,0.0,0.0,0.0,0.0,0.0,0.0,0.0,0.0,0.0,0.0,0.0,0.0,0.0,0.0,0.0,0.0,0.0,0.0,0.0,0.0,0.0,0.0,0.0,0.0,0.0,0.0,0.0,0.0,0.0,0.0,0.0,0.0,0.0,0.0,0.0,0.0,0.0,0.0,0.0,0.0,0.0,0.0,0.0,0.0,0.0,0.0,0.0,0.0,0.0,0.0,0.0,0.0,0.0,0.0,0.0,0.0,0.0,0.0,0.0,0.0,0.0,0.0,0.0,0.0,0.0,0.0,0.0,0.0,0.0,0.0,0.0,0.0,0.0,0.0,0.0,0.0,0.0,0.0,0.0,0.0,0.0,0.0,0.0,-2.9778,-3.0154,-2.9705,-2.8389,-2.7152,-2.6077,0.0,0.0,0.0,0.0,0.0,0.0,0.0,0.0,0.0,0.0,0.0,0.0,0.0,0.0,0.0,0.0,0.0,0.0,0.0,0.0,0.0,0.0,0.0,0.0,0.0,0.0,0.0,0.0,0.0,0.0,0.0,0.0,0.0,0.0,0.0,0.0,0.0,0.0,0.0,0.0,0.0,0.0,0.0,0.0,0.0,0.0,0.0,0.0,0.0,0.0,0.0,0.0,0.0,0.0,0.0,0.0,0.0,0.0,0.0,0.0,0.0,0.0,0.0,0.0,0.0,0.0,0.0,0.0,0.0,0.0,0.0,0.0,0.0,0.0,0.0,0.0,0.0,0.0,0.0,0.0,0.0,0.0,0.0,0.0,0.0,0.0,0.0,0.0,0.0,0.0,0.0,0.0,0.0,0.0,0.0,0.0,0.0,0.0,0.0,0.0,0.0,0.0,0.0,0.0,0.0,0.0,0.0,0.0,-2.9843,-3.0841,-3.2496,-3.269,-3.1289,-2.9057,-2.7395,0.0,0.0,0.0,0.0,0.0,0.0,0.0,0.0,0.0,0.0,0.0,0.0,0.0,0.0,0.0,0.0,0.0,0.0,0.0,0.0,0.0,0.0,0.0,0.0,0.0,0.0,0.0,0.0,0.0,0.0,0.0,0.0,0.0,0.0,0.0,0.0,0.0,0.0,0.0,0.0,0.0,0.0,0.0,0.0,0.0,0.0,0.0,0.0,0.0,0.0,0.0,0.0,0.0,0.0,0.0,0.0,0.0,0.0,0.0,0.0,0.0,0.0,0.0,0.0,0.0,0.0,0.0,0.0,0.0,0.0,0.0,0.0,0.0,0.0,0.0,0.0,0.0,0.0,0.0,0.0,0.0,0.0,0.0,0.0,0.0,0.0,0.0,0.0,0.0,0.0,0.0,0.0,0.0,0.0,0.0,0.0,0.0,0.0,0.0,0.0,0.0,0.0,0.0,0.0,0.0,0.0,0.0,0.0,-3.1439,-3.1515,-3.4077,-3.5141,-3.4485,-3.1432,-2.9002,0.0,0.0,0.0,0.0,0.0,0.0,0.0,0.0,0.0,0.0,0.0,0.0,0.0,0.0,0.0,0.0,0.0,0.0,0.0,0.0,0.0,0.0,0.0,0.0,0.0,0.0,0.0,0.0,0.0,0.0,0.0,0.0,0.0,0.0,0.0,0.0,0.0,0.0,0.0,0.0,0.0,0.0,0.0,0.0,0.0,0.0,0.0,0.0,0.0,0.0,0.0,0.0,0.0,0.0,0.0,0.0,0.0,0.0,0.0,0.0,0.0,0.0,0.0,0.0,0.0,0.0,0.0,0.0,0.0,0.0,0.0,0.0,0.0,0.0,0.0,0.0,0.0,0.0,0.0,0.0,0.0,0.0,0.0,0.0,0.0,0.0,0.0,0.0,0.0,0.0,0.0,0.0,0.0,0.0,0.0,0.0,0.0,0.0,0.0,0.0,0.0,0.0,0.0,0.0,0.0,0.0,0.0,0.0,-3.15,-3.2653,-3.4203,-3.4975,-3.4812,-3.1738,-2.9707,0.0,0.0,0.0,0.0,0.0,0.0,0.0,0.0,0.0,0.0,0.0,0.0,0.0,0.0,0.0,0.0,0.0,0.0,0.0,0.0,0.0,0.0,0.0,0.0,0.0,0.0,0.0,0.0,0.0,0.0,0.0,0.0,0.0,0.0,0.0,0.0,0.0,0.0,0.0,0.0,0.0,0.0,0.0,0.0,0.0,0.0,0.0,0.0,-2.1531,0.0,0.0,0.0,0.0,0.0,0.0,0.0,0.0,0.0,0.0,0.0,0.0,0.0,0.0,0.0,0.0,0.0,0.0,0.0,0.0,0.0,0.0,0.0,0.0,0.0,0.0,0.0,0.0,0.0,0.0,0.0,0.0,0.0,0.0,0.0,0.0,0.0,0.0,0.0,0.0,0.0,0.0,0.0,0.0,0.0,0.0,0.0,0.0,0.0,0.0,0.0,0.0,0.0,0.0,0.0,0.0,0.0,0.0,0.0,-3.2227,-3.3319,-3.4942,-3.5815,-3.5697,-3.3221,-3.1264,0.0,0.0,0.0,0.0,0.0,0.0,0.0,0.0,0.0,0.0,0.0,0.0,0.0,0.0,0.0,0.0,0.0,0.0,0.0,0.0,0.0,0.0,0.0,0.0,0.0,0.0,0.0,0.0,0.0,0.0,0.0,0.0,0.0,0.0,0.0,0.0,0.0,0.0,0.0,0.0,0.0,0.0,0.0,0.0,0.0,0.0,0.0,0.0,0.0,0.0,0.0,0.0,0.0,0.0,0.0,0.0,0.0,0.0,0.0,0.0,0.0,0.0,0.0,0.0,0.0,0.0,0.0,0.0,0.0,0.0,0.0,0.0,0.0,0.0,0.0,0.0,0.0,0.0,0.0,0.0,0.0,0.0,0.0,0.0,0.0,0.0,0.0,0.0,0.0,0.0,0.0,0.0,0.0,0.0,0.0,0.0,0.0,0.0,0.0,0.0,0.0,0.0,0.0,0.0,0.0,0.0,0.0,-3.1613,-3.3051,-3.3977,-3.5795,-3.6711,-3.6681,-3.48,-3.2908,-3.1083,0.0,0.0,0.0,0.0,0.0,0.0,0.0,0.0,0.0,0.0,0.0,0.0,0.0,0.0,0.0,0.0,0.0,0.0,0.0,0.0,0.0,0.0,0.0,0.0,0.0,0.0,0.0,0.0,0.0,0.0,0.0,0.0,0.0,0.0,0.0,0.0,0.0,0.0,-2.2047,-2.1603,0.0,0.0,0.0,0.0,0.0,0.0,0.0,0.0,-2.1662,0.0,0.0,0.0,0.0,0.0,0.0,0.0,0.0,0.0,0.0,0.0,0.0,0.0,0.0,0.0,0.0,0.0,0.0,0.0,0.0,0.0,0.0,0.0,0.0,0.0,0.0,0.0,0.0,0.0,0.0,0.0,0.0,0.0,0.0,0.0,0.0,0.0,0.0,0.0,0.0,0.0,0.0,0.0,0.0,0.0,0.0,0.0,0.0,0.0,0.0,0.0,0.0,0.0,0.0,0.0,0.0,-3.0929,-3.176,-3.3095,-3.5078,-3.5936,-3.6372,-3.6328,-3.4897,-3.3454,-3.2095,0.0,0.0,0.0,0.0,0.0,0.0,0.0,0.0,0.0,0.0,0.0,0.0,0.0,0.0,0.0,0.0,0.0,0.0,0.0,0.0,0.0,0.0,0.0,0.0,0.0,0.0,0.0,0.0,0.0,0.0,0.0,0.0,0.0,0.0,0.0,0.0,0.0,0.0,0.0,-2.1789,-2.1422,0.0,0.0,0.0,0.0,0.0,0.0,0.0,0.0,-2.3093,0.0,0.0,0.0,0.0,0.0,0.0,0.0,0.0,0.0,0.0,0.0,0.0,0.0,0.0,0.0,0.0,0.0,0.0,0.0,0.0,0.0,0.0,0.0,0.0,0.0,0.0,0.0,0.0,0.0,0.0,0.0,0.0,0.0,0.0,0.0,0.0,0.0,0.0,0.0,0.0,0.0,0.0,0.0,0.0,0.0,0.0,0.0,0.0,0.0,0.0,0.0,0.0,0.0,0.0,0.0,-3.1468,-3.2614,-3.3907,-3.5363,-3.5981,-3.6286,-3.6272,-3.4825,-3.3532,0.0,0.0,0.0,0.0,0.0,0.0,0.0,0.0,0.0,0.0,0.0,0.0,0.0,0.0,0.0,0.0,0.0,0.0,0.0,0.0,0.0,0.0,0.0,0.0,0.0,0.0,0.0,0.0,0.0,0.0,0.0,0.0,0.0,0.0,0.0,0.0,0.0,0.0,0.0,0.0,-2.2845,-2.2812,-2.4456,0.0,0.0,0.0,0.0,0.0,0.0,-2.366,-2.3489,0.0,0.0,0.0,0.0,0.0,0.0,0.0,0.0,0.0,0.0,0.0,0.0,0.0,0.0,0.0,0.0,0.0,0.0,0.0,0.0,0.0,0.0,0.0,0.0,0.0,0.0,0.0,0.0,0.0,0.0,0.0,0.0,0.0,0.0,0.0,0.0,0.0,0.0,0.0,0.0,0.0,0.0,0.0,0.0,0.0,0.0,0.0,0.0,0.0,0.0,0.0,0.0,0.0,0.0,0.0,-3.2141,-3.3767,-3.4972,-3.577,-3.6373,-3.6693,-3.6664,-3.4815,-3.3508,0.0,0.0,0.0,0.0,0.0,0.0,0.0,0.0,0.0,0.0,0.0,0.0,0.0,0.0,0.0,0.0,0.0,0.0,0.0,0.0,0.0,0.0,0.0,0.0,0.0,0.0,0.0,0.0,0.0,0.0,0.0,0.0,0.0,0.0,0.0,0.0,0.0,0.0,0.0,0.0,0.0,-2.4201,-2.5371,-2.4033,0.0,0.0,0.0,0.0,-2.3694,-2.403,0.0,0.0,0.0,0.0,0.0,0.0,0.0,0.0,0.0,0.0,0.0,0.0,0.0,0.0,0.0,0.0,0.0,0.0,0.0,0.0,0.0,0.0,0.0,0.0,0.0,0.0,0.0,0.0,0.0,0.0,0.0,0.0,0.0,0.0,0.0,0.0,0.0,0.0,0.0,0.0,0.0,0.0,0.0,0.0,0.0,0.0,0.0,0.0,0.0,0.0,0.0,0.0,0.0,0.0,0.0,0.0,-3.3377,-3.5038,-3.6252,-3.707,-3.7665,-3.7984,-3.7955,-3.5032,-3.3514,0.0,0.0,0.0,0.0,0.0,0.0,0.0,0.0,0.0,0.0,0.0,0.0,0.0,0.0,0.0,0.0,0.0,0.0,0.0,0.0,0.0,0.0,0.0,0.0,0.0,0.0,0.0,0.0,0.0,0.0,0.0,0.0,0.0,0.0,0.0,0.0,0.0,0.0,0.0,0.0,0.0,-2.4316,-2.5279,-2.4022,-2.3215,0.0,0.0,-2.5261,-2.5324,-2.6173,0.0,0.0,0.0,0.0,0.0,0.0,0.0,0.0,0.0,0.0,0.0,0.0,0.0,0.0,0.0,0.0,0.0,0.0,0.0,0.0,0.0,0.0,0.0,0.0,0.0,0.0,0.0,0.0,0.0,0.0,0.0,0.0,0.0,0.0,0.0,0.0,0.0,0.0,0.0,0.0,0.0,0.0,0.0,0.0,0.0,0.0,0.0,0.0,0.0,0.0,0.0,0.0,0.0,0.0,0.0,-3.2517,-3.3283,-3.5082,-3.6173,-3.6388,-3.6764,-3.6945,-3.6916,-3.4576,-3.3388,0.0,0.0,0.0,0.0,0.0,0.0,0.0,0.0,0.0,0.0,0.0,0.0,0.0,0.0,0.0,0.0,0.0,0.0,0.0,0.0,0.0,0.0,0.0,0.0,0.0,0.0,0.0,0.0,0.0,0.0,0.0,0.0,0.0,0.0,0.0,0.0,0.0,0.0,0.0,0.0,0.0,0.0,-2.5724,-2.5411,0.0,0.0,0.0,-2.5359,-2.4755,0.0,0.0,0.0,0.0,0.0,0.0,0.0,0.0,0.0,0.0,0.0,0.0,0.0,0.0,0.0,0.0,0.0,0.0,0.0,0.0,0.0,0.0,0.0,0.0,0.0,0.0,0.0,0.0,0.0,0.0,0.0,0.0,0.0,0.0,0.0,0.0,0.0,0.0,0.0,0.0,0.0,0.0,0.0,0.0,0.0,0.0,0.0,0.0,0.0,0.0,0.0,0.0,0.0,0.0,0.0,0.0,0.0,-3.3439,-3.5358,-3.6306,-3.6174,-3.638,-3.6475,-3.6461,-3.4811,0.0,0.0,0.0,0.0,0.0,0.0,0.0,0.0,0.0,0.0,0.0,0.0,0.0,0.0,0.0,0.0,0.0,0.0,0.0,0.0,0.0,0.0,0.0,0.0,0.0,0.0,0.0,-2.3418,0.0,0.0,0.0,0.0,0.0,0.0,0.0,0.0,0.0,0.0,0.0,0.0,0.0,0.0,-2.6869,-2.6286,-2.6426,-2.6692,0.0,0.0,-2.5576,-2.5125,-2.6571,-2.6961,0.0,0.0,0.0,0.0,0.0,0.0,0.0,0.0,0.0,0.0,0.0,0.0,0.0,0.0,0.0,0.0,0.0,0.0,0.0,0.0,0.0,0.0,0.0,0.0,0.0,0.0,0.0,0.0,0.0,0.0,0.0,0.0,0.0,0.0,0.0,0.0,0.0,0.0,0.0,0.0,0.0,0.0,0.0,0.0,0.0,0.0,0.0,0.0,0.0,0.0,0.0,0.0,0.0,0.0,0.0,-3.4556,-3.6476,-3.7482,-3.7482,-3.7701,-3.7762,-3.7748,-3.6401,-3.5188,0.0,0.0,0.0,0.0,0.0,0.0,0.0,0.0,0.0,0.0,0.0,0.0,0.0,0.0,0.0,0.0,0.0,0.0,0.0,0.0,0.0,0.0,0.0,0.0,0.0,0.0,0.0,0.0,0.0,0.0,0.0,0.0,0.0,0.0,0.0,0.0,0.0,0.0,0.0,0.0,0.0,-2.7554,-2.6858,-2.6339,-2.6763,0.0,0.0,-2.6431,-2.78,-2.8679,-2.8433,-2.6058,0.0,0.0,0.0,0.0,0.0,0.0,0.0,0.0,0.0,0.0,0.0,0.0,0.0,0.0,0.0,0.0,0.0,0.0,0.0,0.0,0.0,0.0,0.0,0.0,0.0,0.0,0.0,0.0,0.0,0.0,0.0,0.0,0.0,0.0,0.0,0.0,0.0,0.0,0.0,0.0,0.0,0.0,0.0,0.0,0.0,0.0,0.0,0.0,0.0,0.0,0.0,0.0,0.0,-3.4306,-3.4441,-3.6399,-3.7341,-3.7264,-3.7433,-3.7534,-3.7534,-3.6528,-3.5517,0.0,0.0,0.0,0.0,0.0,0.0,0.0,0.0,0.0,0.0,0.0,0.0,0.0,0.0,0.0,0.0,0.0,0.0,0.0,0.0,0.0,0.0,0.0,0.0,0.0,0.0,0.0,0.0,-2.6276,-2.6175,-2.5646,0.0,0.0,0.0,0.0,0.0,0.0,0.0,0.0,0.0,0.0,-2.7739,-2.8309,-2.7934,0.0,0.0,-2.7903,-2.6983,-2.7323,-2.7992,-2.785,-2.6097,-2.5678,0.0,0.0,0.0,0.0,0.0,0.0,0.0,0.0,0.0,0.0,0.0,0.0,0.0,0.0,0.0,0.0,0.0,0.0,0.0,0.0,0.0,0.0,0.0,0.0,0.0,0.0,0.0,0.0,0.0,0.0,0.0,0.0,0.0,0.0,0.0,0.0,0.0,0.0,0.0,0.0,0.0,0.0,0.0,0.0,0.0,0.0,0.0,0.0,0.0,0.0,0.0,0.0,-3.4626,-3.4473,-3.6291,-3.7134,-3.6978,-3.7187,-3.7303,-3.7289,-3.6801,-3.6089,0.0,0.0,0.0,0.0,0.0,0.0,0.0,0.0,0.0,0.0,0.0,0.0,0.0,0.0,0.0,0.0,0.0,0.0,0.0,0.0,0.0,0.0,0.0,0.0,0.0,0.0,0.0,0.0,-2.7524,-2.7287,-2.6583,0.0,0.0,0.0,0.0,0.0,0.0,0.0,0.0,0.0,0.0,-2.8303,-2.9204,-2.8871,-2.8687,-2.9252,-2.7958,-2.6999,-2.7151,-2.7502,-2.7337,-2.6312,0.0,0.0,0.0,0.0,0.0,0.0,0.0,0.0,0.0,0.0,0.0,0.0,0.0,0.0,0.0,0.0,0.0,0.0,0.0,0.0,0.0,0.0,0.0,0.0,0.0,0.0,0.0,0.0,0.0,0.0,-3.1025,0.0,0.0,0.0,0.0,0.0,0.0,0.0,0.0,0.0,0.0,0.0,0.0,0.0,0.0,0.0,0.0,0.0,0.0,0.0,0.0,0.0,0.0,-3.4893,-3.4906,-3.6348,-3.7046,-3.7021,-3.7187,-3.7317,-3.7317,-3.7481,-3.7068,-3.6051,0.0,0.0,0.0,0.0,0.0,0.0,0.0,0.0,0.0,0.0,0.0,0.0,0.0,0.0,0.0,0.0,0.0,0.0,0.0,0.0,0.0,0.0,0.0,0.0,0.0,0.0,-2.6036,-2.6392,-2.6635,0.0,0.0,0.0,0.0,0.0,0.0,0.0,0.0,0.0,0.0,-2.8306,-2.9359,-2.9211,-2.8687,-2.8557,-2.9269,-2.7392,-2.6388,-2.7813,-2.7557,-2.7156,0.0,0.0,0.0,0.0,0.0,0.0,0.0,0.0,0.0,0.0,0.0,0.0,0.0,0.0,0.0,0.0,0.0,0.0,0.0,0.0,0.0,0.0,0.0,0.0,0.0,0.0,0.0,-3.4161,-3.4016,0.0,0.0,0.0,0.0,0.0,0.0,0.0,0.0,0.0,0.0,0.0,-3.4108,-3.391,0.0,0.0,0.0,0.0,0.0,0.0,0.0,0.0,0.0,0.0,0.0,0.0,-3.5505,-3.5585,-3.7336,-3.8283,-3.8269,-3.7887,-3.7715,-3.7701,-3.7346,-3.6722,-3.5736,0.0,0.0,0.0,0.0,0.0,0.0,0.0,0.0,0.0,0.0,0.0,0.0,0.0,0.0,0.0,0.0,0.0,0.0,0.0,0.0,0.0,0.0,0.0,0.0,0.0,-2.6946,0.0,0.0,0.0,0.0,0.0,0.0,0.0,0.0,0.0,0.0,0.0,-2.778,-2.8862,-2.8383,-2.8238,-2.9199,-2.8448,-2.8168,0.0,0.0,0.0,0.0,0.0,0.0,0.0,0.0,0.0,0.0,0.0,0.0,0.0,0.0,-2.5583,-2.4167,-2.4145,-2.4323,-2.4312,0.0,0.0,0.0,0.0,0.0,0.0,0.0,0.0,0.0,0.0,0.0,0.0,0.0,0.0,-3.5973,0.0,-3.5905,0.0,0.0,0.0,0.0,0.0,0.0,0.0,0.0,-3.6126,-3.6315,-3.6291,-3.5992,-3.5811,0.0,-3.617,-3.5859,0.0,0.0,0.0,0.0,0.0,0.0,0.0,0.0,-3.6293,-3.6443,-3.8032,-3.8916,-3.8902,-3.8494,-3.8243,-3.8229,-3.7639,-3.6903,-3.6056,-3.5397,-3.4733,0.0,0.0,0.0,0.0,0.0,0.0,0.0,0.0,0.0,0.0,0.0,0.0,0.0,0.0,0.0,0.0,0.0,0.0,0.0,0.0,0.0,0.0,0.0,-2.802,0.0,0.0,0.0,0.0,0.0,0.0,0.0,0.0,0.0,-2.7815,-2.8081,-2.8649,-2.9538,-2.8736,-2.8306,-2.8848,0.0,0.0,0.0,0.0,0.0,0.0,0.0,-2.6473,-2.6336,-2.6368,-2.6552,-2.7075,-2.7294,-2.7393,-2.7393,0.0,0.0,-2.5679,-2.5636,-2.586,-2.5849,-2.5817,-2.5722,-2.5775,-2.5808,-2.5926,0.0,0.0,0.0,0.0,0.0,0.0,0.0,0.0,-3.8504,-3.7728,0.0,-3.748,0.0,0.0,0.0,0.0,0.0,-3.6626,0.0,0.0,-3.8939,-3.9294,-3.886,-3.8393,-3.82,-3.8187,-3.7838,-3.7655,-3.7655,-3.764,0.0,0.0,0.0,0.0,0.0,0.0,-3.7273,-3.7585,-3.8505,-3.8986,-3.8986,-3.8958,-3.8916,-3.8874,-3.8257,-3.7639,-3.7049,-3.6642,-3.6168,-3.5546,-3.4906,0.0,0.0,0.0,0.0,0.0,0.0,0.0,0.0,0.0,0.0,0.0,0.0,0.0,0.0,0.0,0.0,0.0,0.0,0.0,0.0,-3.0098,0.0,0.0,0.0,0.0,0.0,0.0,0.0,0.0,0.0,0.0,-2.7837,-2.7957,-2.8379,-2.8779,0.0,0.0,0.0,0.0,-2.8432,-2.7238,-2.6821,-2.6769,-2.7083,-2.7436,-2.7822,-2.8254,0.0,0.0,-2.8824,-2.8088,-2.7547,-2.7536,-2.8288,-2.8567,-2.7635,-2.7162,-2.6898,-2.6898,-2.6791,-2.6563,-2.6541,-2.6866,-2.6915,-3.8872,0.0,0.0,0.0,0.0,-3.8324,-3.8505,-3.8656,-3.9379,-3.9167,-3.8355,-3.8859,0.0,0.0,0.0,0.0,0.0,0.0,-3.8599,-3.905,-3.9209,-3.9309,-3.9335,-3.9051,-3.8847,-3.8697,-3.9006,-3.9173,-3.9201,-3.9619,-3.8701,-3.6554,0.0,0.0,0.0,0.0,-3.8111,-3.8638,-3.9676,-4.0182,-4.0168,-3.9746,-3.9366,-3.8916,-3.8719,-3.8299,-3.7667,-3.752,-3.7056,-3.6196,-3.5544,0.0,0.0,0.0,0.0,0.0,0.0,0.0,0.0,0.0,0.0,0.0,0.0,0.0,0.0,0.0,0.0,0.0,0.0,0.0,-2.9839,-3.0327,-3.0232,0.0,0.0,0.0,0.0,0.0,0.0,0.0,0.0,0.0,-3.0001,-2.9248,-2.8882,0.0,0.0,-2.7701,-2.7546,-2.7946,-2.8376,-2.8701,-2.8128,0.0,0.0,-2.8066,-2.7536,-2.7668,-2.8377,-2.888,-2.8824,-2.9139,-2.9421,-2.9364,-2.9636,-2.9715,-2.95,-2.9319,-2.9205,-2.9172,-2.9127,-2.9127,-2.9138,-2.9162,-2.9184,-4.2486,-4.211,-4.0069,-3.9466,-3.983,-4.0024,-4.0279,-4.0618,-4.1226,-4.0927,-3.9994,-4.0633,-4.0141,-3.8901,-3.8901,0.0,0.0,0.0,-3.9874,-4.0498,-4.0226,-4.0272,-4.0569,-4.0292,-4.0224,-4.0407,-4.0716,-4.0884,-4.0884,-4.0988,-4.0164,-3.8514,0.0,0.0,-3.7479,-3.8283,-3.9063,-3.9818,-4.0389,-4.0814,-4.1053,-4.0463,-3.9859,-3.9296,-3.9268,-3.8972,-3.8313,-3.8032,-3.7618,-3.7016,-3.6274,-3.5519,0.0,0.0,0.0,0.0,0.0,0.0,0.0,0.0,0.0,0.0,0.0,-3.1003,0.0,0.0,0.0,0.0,-3.1455,-3.1101,-3.0652,-3.0825,0.0,0.0,0.0,0.0,0.0,0.0,0.0,-3.0396,-3.105,-3.1272,-3.0548,-2.9641,-2.9225,-2.9762,-2.8962,-2.8288,-2.804,0.0,-2.9039,-2.9454,-2.8942,-2.871,-2.9397,-2.888,-2.8422,-2.8489,-2.8959,-2.9342,-2.9364,-2.984,-3.0204,-3.0216,-3.0216,-3.0216,-3.0216,-3.0216,-3.0216,-3.0216,-3.0216,-3.0216,-3.0216,-3.0216,-3.0216,-4.6457,-4.5747,-4.2213,-4.1161,-4.1862,-4.186,-4.2433,-4.3297,-4.3544,-4.2768,-4.1412,-4.2507,-4.1561,-3.9192,-3.9235,0.0,-4.0707,-4.075,-4.1301,-4.2252,-4.1764,-4.1853,-4.2338,-4.1904,-4.2008,-4.257,-4.2584,-4.2584,-4.2556,-4.1882,-4.1576,-4.1489,-4.0361,-3.9533,-3.9087,-3.9431,-4.0073,-4.0949,-4.0833,-4.1008,-4.1587,-4.1053,-4.0477,-3.9873,-3.9859,-3.9605,-3.9,-3.8383,-3.8004,-3.7892,-3.703,-3.6223,-3.5615,0.0,0.0,0.0,0.0,0.0,0.0,0.0,0.0,0.0,0.0,0.0,0.0,0.0,0.0,0.0,-3.3653,0.0,-3.2365,-3.1604,0.0,0.0,0.0,-3.1543,-3.3025,-3.3155,-3.2854,-3.1967,0.0,0.0,-3.009,-2.9569,-2.9605,-3.0557,-3.0588,-3.0146,-2.9301,-2.9746,-3.0097,-2.9704,-2.9473,-2.9443,-2.9829,-3.0,-3.0137,-3.0251,-3.0331,-3.0365,-3.0319,-3.0251,-3.0296,-3.0308,-3.025,-3.0216,-3.0216,-3.0216,-3.0216,-3.0216,-3.0216,-3.0216,-3.0216,-3.0216,-3.0239,-4.66,-4.6919,-4.5502,-4.424,-4.3169,-4.348,-4.3508,-4.3354,-4.4092,-4.3833,-4.3027,-4.2995,-4.2386,-4.1355,-4.1801,-4.2188,-4.2431,-4.2952,-4.3313,-4.3529,-4.3041,-4.2953,-4.3038,-4.2568,-4.243,-4.2584,-4.2584,-4.2584,-4.2584,-4.2435,-4.2151,-4.1732,-4.141,-4.0955,-4.0266,-4.0206,-4.0597,-4.1584,-4.1355,-4.1346,-4.1571,-4.146,-4.1095,-4.0491,-4.0477,-4.0196,-3.9633,-3.9465,-3.8889,-3.7948,-3.7646,-3.7151,-3.6237,-3.5072,0.0,0.0,0.0,0.0,0.0,0.0,0.0,0.0,0.0,-3.2681,-3.1667,0.0,-3.245,0.0,-3.3714,-3.4243,-3.4029,-3.3503,0.0,0.0,-3.214,-3.2113,-3.2872,-3.2962,-3.2702,-3.198,-3.2043,-3.192,-3.1312,-3.0981,-3.0929,-3.1368,-3.0296,-2.9495,-2.9578,-3.0134,-3.0513,-3.0613,-3.0988,-3.1384,-3.1433,-3.1692,-3.1763,-3.1657,-3.1634,-3.161,-3.1445,-3.1077,-3.0824,-3.0801,-3.048,-3.025,-3.025,-3.0216,-3.0227,-3.0216,-3.0216,-3.0216,-3.0216,-3.0227,-3.0331,-4.7483,-4.7602,-4.7338,-4.6497,-4.5273,-4.5027,-4.4897,-4.4913,-4.5349,-4.5382,-4.4977,-4.4197,-4.3645,-4.3355,-4.3413,-4.3442,-4.3456,-4.3819,-4.4008,-4.4008,-4.3603,-4.3528,-4.3667,-4.3324,-4.3209,-4.3385,-4.3399,-4.3385,-4.3385,-4.3399,-4.3248,-4.2958,-4.2958,-4.2606,-4.197,-4.0925,-4.079,-4.1482,-4.1682,-4.187,-4.202,-4.205,-4.1653,-4.0819,-4.0646,-4.0223,-3.9412,-3.9037,-3.8498,-3.7798,-3.7291,-3.6743,-3.6185,-3.5103,-3.4363,0.0,0.0,0.0,0.0,0.0,0.0,0.0,0.0,0.0,0.0,0.0,-3.2934,-3.2566,-3.3794,-3.4325,-3.3661,-3.337,-3.3275,-3.3333,-3.306,-3.3167,-3.3944,-3.3996,-3.3708,-3.2988,-3.283,-3.2686,-3.2307,-3.1793,-3.1629,-3.1925,-3.0981,-3.0359,-3.0619,-3.0922,-3.1212,-3.1591,-3.1912,-3.2128,-3.225,-3.2394,-3.2383,-3.2158,-3.2111,-3.2028,-3.1802,-3.1547,-3.1352,-3.1329,-3.11,-3.0905,-3.0905,-3.0905,-3.0847,-3.0629,-3.0572,-3.048,-3.0262,-3.0399,-3.0686,-4.8663,-4.8103,-4.819,-4.7961,-4.7462,-4.6558,-4.6446,-4.694,-4.6954,-4.6865,-4.6705,-4.5547,-4.4966,-4.485,-4.4342,-4.4095,-4.411,-4.4197,-4.4226,-4.4226,-4.3965,-4.3989,-4.4295,-4.4024,-4.4093,-4.4411,-4.4425,-4.4425,-4.4425,-4.4425,-4.4364,-4.4303,-4.4303,-4.4007,-4.3402,-4.1741,-4.095,-4.1218,-4.2059,-4.249,-4.2621,-4.2502,-4.1928,-4.0801,-4.0521,-3.9893,-3.8877,-3.8118,-3.7679,-3.7559,-3.6654,-3.6125,-3.6142,-3.5189,-3.4703,0.0,-3.4156,0.0,0.0,0.0,0.0,0.0,0.0,0.0,0.0,-3.3939,-3.3594,-3.3014,-3.3913,-3.4086,-3.2947,-3.2842,-3.3171,-3.4019,-3.4085,-3.4459,-3.5291,-3.5318,-3.4908,-3.4118,-3.3569,-3.3129,-3.2785,-3.2189,-3.1849,-3.2113,-3.1857,-3.1577,-3.1661,-3.1709,-3.1949,-3.2442,-3.2416,-3.2566,-3.2853,-3.2866,-3.2783,-3.2486,-3.2438,-3.2273,-3.2114,-3.1974,-3.1905,-3.1894,-3.1813,-3.1767,-3.1813,-3.1731,-3.1593,-3.118,-3.11,-3.095,-3.0526,-3.0675,-3.1042,-4.9492,-4.9064,-4.8289,-4.8061,-4.8096,-4.7659,-4.7491,-4.7608,-4.7593,-4.7317,-4.6734,-4.6026,-4.5401,-4.4893,-4.4777,-4.4719,-4.4734,-4.5285,-4.5518,-4.5532,-4.5279,-4.5066,-4.4938,-4.4691,-4.4531,-4.4411,-4.4425,-4.4425,-4.4425,-4.4425,-4.4148,-4.3757,-4.3743,-4.341,-4.2736,0.0,0.0,0.0,-4.2835,-4.3144,-4.2657,-4.2043,-4.1165,-4.0046,-3.975,0.0,-3.8639,-3.8402,-3.8078,-3.7626,-3.7399,0.0,0.0,0.0,0.0,0.0,0.0,0.0,0.0,0.0,0.0,0.0,-3.4528,-3.4462,-3.4504,-3.4014,-3.3819,-3.4192,-3.4272,-3.4606,-3.5317,-3.5224,-3.517,-3.5319,-3.5224,-3.5197,-3.5386,-3.4771,-3.4118,-3.3611,-3.2982,-3.2419,-3.2101,-3.1793,-3.1761,-3.1837,-3.1761,-3.1705,-3.1729,-3.2046,-3.237,-3.2527,-3.3095,-3.3803,-3.4294,-3.4294,-3.4041,-3.3879,-3.3721,-3.3501,-3.3062,-3.2592,-3.2351,-3.2351,-3.2078,-3.1789,-3.1777,-3.1743,-3.1766,-3.1639,-3.1675,-3.1479,-3.0973,-3.095,-3.1237,-4.9592,0.0,-4.9291,-4.9287,0.0,-4.9505,-4.9571,-4.9611,-4.8653,-4.8246,-4.8188,-4.7564,-4.71,-4.6751,-4.6461,-4.6316,-4.6316,-4.6664,-4.6824,-4.6824,-4.6686,-4.6425,-4.6052,-4.5912,-4.5704,-4.5338,-4.5338,-4.5338,-4.5338,-4.5338,-4.518,-4.4926,-4.4926,-4.4733,-4.438,-4.4028,-4.3471,-4.2577,-4.3122,-4.3462,-4.3514,-4.3144,-4.2389,-4.1355,-4.1009,0.0,0.0,0.0,0.0,0.0,0.0,0.0,0.0,0.0,0.0,-3.7147,-3.6674,-3.6426,-3.6505,-3.6436,-3.64,-3.6398,-3.6019,-3.5517,-3.4962,-3.4738,-3.4781,-3.5102,-3.4942,-3.5103,-3.5777,-3.5683,-3.5548,-3.5507,-3.548,-3.5318,-3.5127,-3.4714,-3.4298,-3.3894,-3.3172,-3.2667,-3.2698,-3.2057,-3.1837,-3.1981,-3.1849,-3.1825,-3.2034,-3.2208,-3.244,-3.299,-3.3803,-3.445,-3.4715,-3.4677,-3.4494,-3.4162,-3.3977,-3.3729,-3.3381,-3.3063,-3.2868,-3.2868,-3.2673,-3.2512,-3.25,-3.2489,-3.242,-3.219,-3.217,-3.2053,-3.1789,-3.1743,-3.1857,-4.9759,-5.0168,-5.0317,-5.055,-5.0823,-5.1089,-5.1359,-5.1512,0.0,0.0,0.0,-4.9059,-4.8725,-4.8634,-4.8058,-4.7782,-4.7782,-4.7782,-4.7782,-4.7782,-4.7735,-4.7485,-4.6995,-4.6947,-4.6736,-4.6293,-4.6293,-4.6293,-4.6293,-4.6293,-4.6293,-4.6293,-4.6293,-4.6293,-4.6265,-4.5759,-4.4891,-4.3801,-4.3437,-4.3614,-4.4209,-4.4115,-4.3587,-4.259,-4.2328,-4.1713,-4.0756,-4.0027,-3.9627,-3.9493,-3.8527,-3.8029,-3.801,-3.7595,-3.7397,-3.7426,-3.7197,-3.723,-3.7692,-3.7578,-3.7665,-3.8117,-3.7428,-3.6511,-3.5385,-3.5521,-3.571,-3.571,-3.5521,-3.5467,-3.5642,-3.5588,-3.5506,-3.5465,-3.5572,-3.5475,-3.5156,-3.5059,-3.4945,-3.4585,-3.3943,-3.3548,-3.3814,-3.3002,-3.2349,-3.2582,-3.2435,-3.2187,-3.2532,-3.2586,-3.2873,-3.366,-3.4318,-3.4751,-3.4775,-3.458,-3.4347,-3.4125,-3.3878,-3.363,-3.3381,-3.3281,-3.3281,-3.3235,-3.3281,-3.3201,-3.3193,-3.3132,-3.3086,-3.2543,-3.252,-3.2529,-3.2517,-3.2517,-3.2468,-5.0871,-5.0758,-5.0501,-5.0536,-5.0809,-5.1104,-5.1359,-5.1556,-5.0743,-5.0467,-5.0452,-4.9248,-4.8725,-4.8696,-4.8072,-4.7782,-4.7782,-4.7782,-4.7782,-4.7782,-4.7561,-4.731,-4.6981,-4.6755,-4.6508,-4.6293,-4.6307,-4.6293,-4.6293,-4.6307,-4.6293,-4.6307,-4.6293,-4.6307,-4.6293,-4.6209,-4.6062,-4.5867,-4.4345,-4.36,-4.3709,-4.3088,-4.2452,-4.1822,-4.1557,-4.1071,-4.0448,-4.0355,-4.0027,-3.9547,-3.9347,-3.9311,-3.9332,-3.9091,-3.9135,-3.9516,-3.9355,-3.9076,-3.8587,-3.849,-3.83,-3.7879,-3.7602,-3.6986,-3.6075,-3.5817,-3.571,-3.5669,-3.5548,-3.5399,-3.5467,-3.5691,-3.5818,-3.5858,-3.6144,-3.632,-3.6181,-3.5982,-3.5709,-3.536,-3.523,-3.4927,-3.461,-3.4354,-3.3958,-3.3794,-3.3402,-3.3487,-3.3208,-3.3494,-3.3875,-3.422,-3.4581,-3.4775,-3.4787,-3.458,-3.4347,-3.4125,-3.3878,-3.3618,-3.3381,-3.3281,-3.3281,-3.3281,-3.3281,-3.312,-3.2776,-3.2982,-3.2895,-3.2404,-3.2525,-3.2653,-3.2481,-3.2442,-3.2487,-5.1203,-5.1337,-5.1231,-5.1438,-5.189,-5.2281,-5.2526,-5.2586,-5.1976,-5.1447,-5.089,-4.9781,-4.9264,-4.927,-4.8666,-4.8393,-4.8378,-4.8393,-4.8393,-4.8378,-4.8247,-4.8087,-4.7828,-4.768,-4.7511,-4.7277,-4.7291,-4.7277,-4.7291,-4.7291,-4.7291,-4.7291,-4.7291,-4.7122,-4.6813,-4.6799,-4.6631,-4.6279,-4.5126,-4.4494,-4.4494,-4.3889,-4.3381,-4.3153,-4.3011,-4.284,-4.2565,-4.2235,-4.1887,-4.1488,-4.0923,-4.0622,-4.0507,-4.0219,-4.0097,-4.0198,-3.998,-3.9694,-3.9275,-3.9117,-3.8757,-3.8186,-3.8046,-3.765,-3.692,-3.6429,-3.6198,-3.6157,-3.587,-3.5731,-3.5869,-3.6085,-3.6217,-3.6217,-3.6383,-3.6441,-3.6297,-3.6197,-3.6022,-3.5859,-3.5607,-3.5296,-3.4803,-3.452,-3.4111,-3.355,-3.3511,-3.3505,-3.3203,-3.3729,-3.4208,-3.4262,-3.4555,-3.4775,-3.4787,-3.458,-3.4396,-3.4249,-3.3965,-3.3679,-3.353,-3.3431,-3.3292,-3.3281,-3.3281,-3.3201,-3.2914,-3.2746,-3.2598,-3.2658,-3.2266,-3.2234,-3.2101,-3.1962,-3.2001,-5.1403,-5.1773,-5.1773,-5.2127,-5.2719,-5.3251,-5.3515,-5.3457,-5.294,-5.2307,-5.1566,-5.0599,-5.0068,-4.9831,-4.9438,-4.9088,-4.8909,-4.8895,-4.8895,-4.8895,-4.8845,-4.8695,-4.8495,-4.8445,-4.8308,-4.812,-4.8083,-4.8083,-4.8083,-4.8083,-4.8083,-4.8083,-4.8083,-4.7895,-4.7417,-4.7417,-4.7178,-4.6701,-4.6083,-4.5619,-4.5276,-4.4846,-4.4551,-4.4425,-4.4411,-4.4425,-4.4397,-4.3961,-4.3546,-4.3194,-4.2421,-4.1861,-4.1544,-4.1089,-4.071,-4.0463,-4.015,-3.9848,-3.9598,-3.9407,-3.9115,-3.8654,-3.8627,-3.8423,-3.7919,-3.7379,-3.6903,-3.6711,-3.6349,-3.6207,-3.6316,-3.6512,-3.6595,-3.6639,-3.6727,-3.677,-3.6572,-3.6502,-3.6515,-3.647,-3.6217,-3.5897,-3.5453,-3.5123,-3.4702,-3.4151,-3.366,-3.3452,-3.3365,-3.3877,-3.4127,-3.4211,-3.4494,-3.4775,-3.4787,-3.4625,-3.4525,-3.4513,-3.4231,-3.3978,-3.3819,-3.3565,-3.3373,-3.335,-3.3281,-3.3189,-3.3097,-3.2777,-3.2469,-3.2377,-3.1998,-3.1654,-3.1372,-3.1213,-3.1219,-5.1732,-5.1787,-5.1787,-5.2127,-5.2719,-5.3251,-5.3515,-5.3448,-5.3194,-5.3006,-5.2747,-5.1859,-5.0955,-5.0299,-5.0169,-4.966,-4.8909,-4.8895,-4.8895,-4.8845,-4.8645,-4.8531,-4.8431,-4.8258,-4.8134,-4.8083,-4.8083,-4.8083,-4.8083,-4.8083,-4.8083,-4.8083,-4.8083,-4.8092,-4.8035,-4.8035,-4.7943,-4.7951,-4.7347,-4.6476,-4.5346,-4.522,-4.4973,-4.4425,-4.4425,-4.4425,-4.4425,-4.4355,-4.4059,-4.3494,-4.3385,-4.2957,-4.2154,-4.1555,-4.1044,-4.0628,-4.0045,-3.9598,-3.9363,-3.9292,-3.9278,-3.9224,-3.9197,-3.9169,-3.9061,-3.8572,-3.793,-3.7311,-3.6893,-3.6651,-3.6518,-3.6801,-3.6964,-3.7048,-3.7383,-3.773,-3.7652,-3.7743,-3.773,-3.7743,-3.7554,-3.7638,-3.7325,-3.7116,-3.689,-3.5784,-3.4715,-3.4095,-3.3997,-3.3883,-3.3915,-3.4125,-3.4506,-3.4738,-3.4774,-3.4788,-3.4731,-3.4749,-3.4702,-3.4451,-3.4111,-3.3871,-3.3809,-3.335,-3.3281,-3.3143,-3.2925,-3.2772,-3.2647,-3.195,-3.1663,-3.1444,-3.0673,-3.0422,-3.0729,-5.1773,-5.1787,-5.1964,-5.2397,-5.2947,-5.3357,-5.3515,-5.3462,-5.3357,-5.3319,-5.3261,-5.2703,-5.1782,-5.0534,-4.9638,-4.9023,-4.8645,-4.8509,-4.8423,-4.8409,-4.8308,-4.8272,-4.8258,-4.817,-4.8083,-4.8083,-4.8083,-4.8083,-4.8083,-4.8083,-4.8083,-4.8083,-4.8083,-4.8083,-4.8083,-4.8083,-4.8083,-4.812,-4.7881,-4.7319,-4.6462,-4.5703,-4.5212,-4.4959,-4.4607,-4.4425,-4.4425,-4.4425,-4.4205,-4.3845,-4.3602,-4.3202,-4.2537,-4.2091,-4.1623,-4.1101,-4.04,-3.9924,-3.9821,-3.9495,-3.9305,-3.9305,-3.9305,-3.9305,-3.9305,-3.9074,-3.8729,-3.8222,-3.7681,-3.7276,-3.7241,-3.7406,-3.7534,-3.756,-3.7756,-3.79,-3.79,-3.79,-3.79,-3.79,-3.79,-3.7762,-3.7413,-3.6922,-3.625,-3.5488,-3.4568,-3.4139,-3.3817,-3.3729,-3.3828,-3.4064,-3.4347,-3.464,-3.475,-3.4772,-3.4873,-3.4911,-3.4633,-3.4253,-3.4271,-3.3818,-3.3488,-3.3315,-3.3292,-3.3224,-3.3063,-3.2662,-3.2389,-3.1844,-3.1504,-3.1241,-3.0696,-3.0614,-3.0772,-5.1773,-5.1827,-5.2073,-5.2465,-5.2841,-5.316,-5.3304,-5.3251,-5.3251,-5.3251,-5.3237,-5.2881,-5.2096,-5.0943,-4.9589,-4.8884,-4.8598,-4.8241,-4.8083,-4.8083,-4.8083,-4.8167,-4.8308,-4.8322,-4.8471,-4.8612,-4.8654,-4.864,-4.8626,-4.8626,-4.8541,-4.835,-4.8322,-4.8237,-4.8097,-4.8083,-4.8083,-4.8083,-4.8083,-4.7859,-4.7375,-4.6406,-4.5627,-4.529,-4.4902,-4.4579,-4.4425,-4.4425,-4.4303,-4.4101,-4.3882,-4.3505,-4.2965,-4.2565,-4.2058,-4.1379,-4.0618,-4.0187,-4.0173,-3.9644,-3.9305,-3.9305,-3.9305,-3.9305,-3.9305,-3.9305,-3.9203,-3.8988,-3.8412,-3.7994,-3.7838,-3.7879,-3.7887,-3.79,-3.79,-3.79,-3.79,-3.79,-3.79,-3.79,-3.79,-3.7716,-3.7214,-3.6581,-3.5906,-3.515,-3.458,-3.404,-3.3618,-3.358,-3.3714,-3.419,-3.4412,-3.4599,-3.4786,-3.4893,-3.4974,-3.5027,-3.4752,-3.4505,-3.44,-3.385,-3.335,-3.3384,-3.3327,-3.3269,-3.3189,-3.2788,-3.2351,-3.2411,-3.1966,-3.1246,-3.0789,-3.0751,-3.0592,-5.1773,-5.1841,-5.2073,-5.2289,-5.2289,-5.268,-5.2773,-5.2841,-5.2787,-5.2787,-5.2701,-5.2148,-5.1766,-5.1599,-5.0706,-4.9813,-4.9014,-4.8415,-4.8111,-4.8083,-4.8083,-4.8429,-4.8925,-4.8953,-4.9272,-4.9661,-4.9746,-4.9802,-4.9844,-4.9844,-4.9581,-4.8967,-4.8869,-4.8616,-4.8153,-4.8083,-4.8083,-4.8083,-4.8083,-4.8055,-4.7943,-4.7431,-4.6532,-4.5501,-4.5296,-4.4987,-4.4523,-4.4425,-4.4378,-4.4364,-4.4308,-4.4092,-4.3551,-4.3067,-4.2296,-4.1298,-4.058,-4.0228,-4.0201,-3.9739,-3.94,-3.9373,-3.9454,-3.9359,-3.9481,-3.9495,-3.9437,-3.9301,-3.906,-3.8724,-3.8251,-3.8031,-3.7946,-3.79,-3.79,-3.79,-3.79,-3.79,-3.79,-3.79,-3.79,-3.7749,-3.7505,-3.7201,-3.6581,-3.587,-3.5199,-3.4482,-3.3892,-3.3568,-3.3742,-3.4345,-3.4651,-3.4754,-3.4808,-3.5083,-3.5208,-3.5138,-3.5035,-3.4841,-3.4495,-3.4127,-3.3749,-3.3442,-3.3338,-3.3281,-3.3281,-3.3128,-3.2773,-3.2487,-3.1927,-3.1292,-3.1224,-3.0437,-3.033,-5.2019,-5.2397,-5.2451,-5.2719,-5.3039,-5.3146,-5.3198,-5.3213,-5.3213,-5.3213,-5.317,-5.2756,-5.2617,-5.2521,-5.147,-5.0356,-4.9253,-4.8846,-4.8448,-4.8125,-4.8083,-4.8246,-4.842,-4.8785,-4.908,-4.9384,-4.9764,-4.9999,-4.9943,-4.9567,-4.9272,-4.8953,-4.8588,-4.828,-4.8111,-4.8083,-4.8083,-4.8083,-4.8083,-4.8083,-4.8069,-4.7909,-4.7375,-4.6546,-4.5731,-4.5178,-4.5001,-4.4621,-4.4425,-4.4425,-4.4209,-4.3974,-4.3573,-4.3149,-4.2719,-4.227,-4.1666,-4.1354,-4.1286,-4.0798,-4.0472,-4.0472,-4.0458,-4.0431,-4.0472,-4.0472,-4.0367,-4.0189,-3.9959,-3.9515,-3.8873,-3.8372,-3.8057,-3.7946,-3.79,-3.79,-3.79,-3.79,-3.79,-3.79,-3.79,-3.7808,-3.7551,-3.7261,-3.6675,-3.5655,-3.5102,-3.4482,-3.3767,-3.3381,-3.3523,-3.3997,-3.4353,-3.4594,-3.4804,-3.5384,-3.5654,-3.529,-3.5018,-3.4655,-3.4321,-3.4055,-3.3665,-3.3434,-3.3304,-3.3327,-3.3338,-3.3269,-3.2998,-3.278,-3.2135,-3.1946,-3.1878,-3.1232,-3.1107,-5.2167,-5.2519,-5.2666,-5.2894,-5.3198,-5.3251,-5.3251,-5.3251,-5.3251,-5.3251,-5.3213,-5.3054,-5.2962,-5.2837,-5.2117,-5.1204,-5.0114,-4.9385,-4.8771,-4.8364,-4.8218,-4.8232,-4.842,-4.8799,-4.9094,-4.937,-4.9735,-4.9999,-4.9957,-4.9539,-4.9192,-4.8967,-4.856,-4.8316,-4.8176,-4.8083,-4.8083,-4.8083,-4.8083,-4.8083,-4.8083,-4.8083,-4.7887,-4.7431,-4.6476,-4.5717,-4.5304,-4.4916,-4.4593,-4.4392,-4.4129,-4.3832,-4.3533,-4.3115,-4.29,-4.2833,-4.2317,-4.1991,-4.1937,-4.1449,-4.111,-4.1077,-4.1123,-4.1123,-4.1123,-4.1123,-4.1017,-4.0817,-4.0663,-4.0201,-3.9422,-3.8866,-3.8437,-3.8044,-3.79,-3.79,-3.79,-3.79,-3.79,-3.79,-3.79,-3.7795,-3.7551,-3.7261,-3.6521,-3.5367,-3.4957,-3.4396,-3.358,-3.3281,-3.3461,-3.385,-3.4202,-3.4699,-3.5086,-3.5697,-3.5793,-3.5442,-3.4948,-3.4551,-3.4194,-3.3904,-3.3692,-3.3461,-3.3361,-3.3396,-3.3373,-3.3315,-3.3192,-3.3053,-3.2917,-3.2696,-3.2481,-3.2174,-3.1906,-5.2221,-5.2343,-5.2573,-5.2787,-5.2841,-5.2841,-5.2773,-5.2826,-5.2826,-5.2894,-5.2947,-5.2773,-5.2841,-5.2719,-5.2648,-5.2266,-5.1418,-5.002,-4.9225,-4.9057,-4.8564,-4.8621,-4.9085,-4.9169,-4.9507,-4.9999,-5.0055,-5.0083,-5.0168,-5.0069,-4.9693,-4.915,-4.9117,-4.8808,-4.8153,-4.8223,-4.8139,-4.819,-4.8125,-4.8083,-4.8083,-4.8083,-4.8106,-4.7957,-4.7445,-4.6616,-4.5431,-4.5318,-4.5024,-4.4504,-4.4152,-4.3812,-4.3321,-4.3032,-4.29,-4.2819,-4.2344,-4.2059,-4.1991,-4.1571,-4.1327,-4.1327,-4.1232,-4.1327,-4.1367,-4.1327,-4.1266,-4.1247,-4.1146,-4.0695,-3.9754,-3.9462,-3.8998,-3.8096,-3.79,-3.79,-3.79,-3.79,-3.79,-3.79,-3.79,-3.7808,-3.7551,-3.7261,-3.6628,-3.5667,-3.5054,-3.4639,-3.3872,-3.3608,-3.3735,-3.4233,-3.4581,-3.4941,-3.5503,-3.5998,-3.58,-3.5549,-3.499,-3.4477,-3.4182,-3.3877,-3.3769,-3.3584,-3.3889,-3.3935,-3.3786,-3.3706,-3.3499,-3.3364,-3.3295,-3.3204,-3.2912,-3.2587,-3.2261,-5.2465,-5.2802,-5.2962,-5.3121,-5.3251,-5.3251,-5.3251,-5.3266,-5.3251,-5.3266,-5.3251,-5.3251,-5.3251,-5.3198,-5.3054,-5.2832,-5.2574,-5.139,-5.0635,-5.0251,-5.001,-4.9996,-5.0166,-5.0185,-5.0474,-5.0858,-5.1135,-5.1197,-5.1084,-5.0815,-5.0466,-5.0269,-4.9862,-4.9595,-4.9328,-4.8991,-4.8701,-4.8659,-4.8331,-4.8083,-4.8083,-4.8083,-4.8083,-4.8055,-4.7873,-4.7381,-4.6659,-4.6,-4.5468,-4.5024,-4.4435,-4.3822,-4.3176,-4.2922,-4.2887,-4.2873,-4.2738,-4.2602,-4.2602,-4.2439,-4.229,-4.2317,-4.2317,-4.2331,-4.2331,-4.2304,-4.2194,-4.2077,-4.2043,-4.1488,-4.0239,-3.9832,-3.9269,-3.8037,-3.79,-3.79,-3.79,-3.79,-3.79,-3.79,-3.79,-3.7854,-3.7716,-3.7413,-3.6815,-3.6036,-3.5584,-3.5114,-3.4899,-3.4399,-3.4579,-3.5074,-3.5207,-3.5114,-3.5548,-3.5756,-3.5711,-3.5503,-3.5022,-3.4472,-3.4093,-3.3931,-3.3784,-3.3848,-3.4165,-3.4291,-3.4153,-3.3993,-3.3763,-3.3591,-3.346,-3.3357,-3.3204,-3.2932,-3.2551,-5.2666,-5.3121,-5.3227,-5.3304,-5.3515,-5.3515,-5.3515,-5.3515,-5.3515,-5.3515,-5.3515,-5.3515,-5.3515,-5.3462,-5.3319,-5.3266,-5.317,-5.2608,-5.2167,-5.1655,-5.0857,-5.0677,-5.0625,-5.0536,-5.0616,-5.0773,-5.1023,-5.1112,-5.1084,-5.0786,-5.059,-5.0491,-5.0182,-4.9985,-4.9985,-4.9581,-4.93,-4.8981,-4.8616,-4.8294,-4.8176,-4.8083,-4.8083,-4.8083,-4.8083,-4.7873,-4.748,-4.6837,-4.6188,-4.5511,-4.467,-4.3819,-4.3017,-4.2887,-4.29,-4.29,-4.2887,-4.2873,-4.29,-4.2846,-4.29,-4.29,-4.29,-4.2887,-4.2887,-4.29,-4.279,-4.2706,-4.2617,-4.1965,-4.0505,-4.0158,-3.9453,-3.8064,-3.79,-3.79,-3.79,-3.79,-3.79,-3.79,-3.7808,-3.7762,-3.7657,-3.7413,-3.6922,-3.638,-3.5966,-3.5609,-3.5465,-3.5013,-3.5206,-3.5282,-3.5115,-3.5195,-3.5428,-3.5531,-3.5561,-3.5327,-3.5045,-3.4463,-3.4049,-3.3934,-3.3876,-3.3929,-3.4165,-3.4188,-3.4073,-3.4039,-3.3878,-3.3763,-3.3625,-3.3419,-3.322,-3.317,-3.2944,-5.2894,-5.3174,-5.341,-5.3462,-5.3515,-5.3515,-5.3515,-5.3515,-5.3515,-5.3515,-5.3515,-5.3515,-5.3515,-5.3515,-5.3462,-5.3462,-5.35,-5.3419,-5.3227,-5.2751,-5.1647,-5.0753,-5.0654,-5.0544,-5.0495,-5.0291,-5.0322,-5.0322,-5.0533,-5.0435,-5.0111,-5.0322,-5.0336,-5.0154,-5.0252,-5.0125,-4.9764,-4.9318,-4.9052,-4.8659,-4.8209,-4.8083,-4.8083,-4.8083,-4.8069,-4.8092,-4.7985,-4.7633,-4.6979,-4.5859,-4.4787,-4.3867,-4.312,-4.2935,-4.29,-4.29,-4.29,-4.29,-4.29,-4.29,-4.29,-4.29,-4.29,-4.29,-4.29,-4.2887,-4.2887,-4.2852,-4.2852,-4.2193,-4.083,-4.0381,-3.9614,-3.8274,-3.79,-3.79,-3.79,-3.79,-3.79,-3.7795,-3.7657,-3.7505,-3.7505,-3.7214,-3.6875,-3.6534,-3.625,-3.5932,-3.5806,-3.5623,-3.5132,-3.5223,-3.5533,-3.537,-3.5643,-3.5198,-3.5193,-3.4819,-3.4642,-3.4308,-3.3924,-3.3894,-3.3968,-3.4032,-3.4119,-3.4096,-3.4096,-3.4108,-3.4039,-3.3912,-3.3694,-3.3407,-3.3281,-3.3231,-3.3181,-5.316,-5.3424,-5.3462,-5.3515,-5.3515,-5.3515,-5.3515,-5.3515,-5.3515,-5.3515,-5.3515,-5.3515,-5.3515,-5.3515,-5.3515,-5.3515,-5.3515,-5.3515,-5.3357,-5.3117,-5.2515,-5.1803,-5.1537,-5.1527,-5.131,-5.1014,-5.1065,-5.1323,-5.1309,-5.1126,-5.1169,-5.1309,-5.1098,-5.1197,-5.1267,-5.0815,-5.0593,-5.0269,-4.9374,-4.8911,-4.8687,-4.8316,-4.8083,-4.8083,-4.8083,-4.8083,-4.8069,-4.7815,-4.704,-4.5674,-4.4885,-4.4097,-4.3334,-4.3059,-4.2935,-4.2935,-4.2935,-4.29,-4.2949,-4.29,-4.29,-4.29,-4.29,-4.29,-4.29,-4.29,-4.29,-4.29,-4.2873,-4.2303,-4.0958,-4.0435,-3.9561,-3.8287,-3.79,-3.79,-3.79,-3.79,-3.7854,-3.7657,-3.7551,-3.7413,-3.7214,-3.7015,-3.6815,-3.6815,-3.67,-3.6635,-3.6589,-3.6526,-3.6124,-3.6415,-3.6616,-3.6026,-3.5646,-3.5155,-3.4745,-3.4337,-3.4159,-3.4009,-3.3814,-3.3768,-3.3894,-3.4004,-3.4245,-3.4303,-3.4314,-3.4326,-3.4199,-3.3993,-3.3648,-3.3315,-3.3292,-3.3281,-3.3281,-5.3266,-5.3515,-5.3515,-5.3515,-5.3515,-5.3515,-5.3515,-5.3515,-5.3515,-5.3515,-5.3515,-5.3515,-5.3515,-5.3515,-5.3515,-5.3515,-5.3515,-5.3515,-5.341,-5.3266,-5.2972,-5.2437,-5.196,-5.1946,-5.1875,-5.1511,-5.1445,-5.1405,-5.1295,-5.1169,-5.1028,-5.093,-5.1028,-5.1014,-5.0874,-5.0758,-5.0354,-5.0002,-4.9356,-4.8883,-4.8588,-4.8316,-4.8111,-4.8083,-4.8083,-4.8083,-4.8069,-4.7967,-4.7253,-4.6062,-4.5172,-4.4503,-4.3891,-4.3348,-4.3128,-4.3149,-4.3115,-4.3067,-4.3032,-4.2984,-4.29,-4.29,-4.29,-4.29,-4.29,-4.29,-4.29,-4.29,-4.29,-4.2181,-4.0911,-4.0001,-3.9058,-3.8123,-3.79,-3.79,-3.79,-3.79,-3.7762,-3.7564,-3.7413,-3.7261,-3.6968,-3.6769,-3.6862,-3.6968,-3.6968,-3.7168,-3.7373,-3.7286,-3.7175,-3.7231,-3.7146,-3.6581,-3.6093,-3.5615,-3.5192,-3.4727,-3.4167,-3.3955,-3.3731,-3.3657,-3.3614,-3.3821,-3.4211,-3.444,-3.4303,-3.4222,-3.413,-3.3866,-3.3522,-3.3338,-3.3304,-3.3281,-3.3281,-5.3266,-5.3515,-5.3515,-5.3515,-5.3515,-5.3515,-5.3515,-5.3515,-5.3515,-5.3515,-5.3515,-5.3515,-5.3515,-5.3515,-5.3515,-5.3515,-5.3515,-5.3515,-5.3462,-5.3304,-5.3054,-5.2502,-5.192,-5.1833,-5.1779,-5.1638,-5.1164,-5.0938,-5.0798,-5.0322,-5.0097,-5.0196,-5.0154,-5.0055,-5.021,-5.0083,-4.9679,-4.9412,-4.9136,-4.8799,-4.8434,-4.8195,-4.8083,-4.8083,-4.8083,-4.8083,-4.8083,-4.8055,-4.7586,-4.6616,-4.5687,-4.4985,-4.4553,-4.3781,-4.3383,-4.3437,-4.3355,-4.3259,-4.3211,-4.2984,-4.29,-4.29,-4.29,-4.29,-4.29,-4.29,-4.29,-4.29,-4.29,-4.2146,-4.0811,-3.9296,-3.8457,-3.7985,-3.79,-3.79,-3.79,-3.79,-3.7808,-3.7505,-3.7261,-3.7062,-3.6815,-3.6722,-3.6828,-3.7168,-3.7168,-3.7278,-3.7526,-3.7505,-3.741,-3.7346,-3.724,-3.7048,-3.659,-3.6171,-3.5754,-3.5364,-3.4706,-3.4306,-3.3872,-3.3711,-3.3427,-3.3488,-3.3809,-3.3947,-3.3912,-3.3866,-3.3878,-3.3763,-3.343,-3.3338,-3.3281,-3.3281,-3.3281,-5.3448,-5.3515,-5.3515,-5.3515,-5.3515,-5.3515,-5.3515,-5.3515,-5.3515,-5.3515,-5.3515,-5.3515,-5.3515,-5.3515,-5.3515,-5.3515,-5.3515,-5.3515,-5.341,-5.3107,-5.2612,-5.2343,-5.2054,-5.1889,-5.1687,-5.1492,-5.0889,-5.054,-5.0388,-5.0065,-4.9985,-4.9928,-4.9816,-4.9985,-4.9928,-4.983,-4.9971,-4.9679,-4.9258,-4.8883,-4.8644,-4.8266,-4.8083,-4.8083,-4.8083,-4.8083,-4.8083,-4.8083,-4.7962,-4.7446,-4.6323,-4.5301,-4.4858,-4.3918,-4.3417,-4.3389,-4.3355,-4.3211,-4.3032,-4.2984,-4.29,-4.29,-4.29,-4.29,-4.29,-4.29,-4.29,-4.29,-4.286,-4.2152,-4.0669,-3.9521,-3.8648,-3.811,-3.79,-3.79,-3.79,-3.79,-3.7703,-3.7353,-3.7307,-3.7261,-3.6769,-3.6722,-3.6922,-3.7261,-3.7366,-3.7366,-3.749,-3.7686,-3.7611,-3.7574,-3.7333,-3.7159,-3.7,-3.6573,-3.616,-3.5843,-3.5235,-3.4714,-3.4335,-3.3854,-3.3618,-3.3431,-3.3361,-3.3453,-3.3591,-3.3522,-3.3534,-3.343,-3.3423,-3.3319,-3.33,-3.3285,-3.3289,-5.3515,-5.3515,-5.3515,-5.3515,-5.3515,-5.3515,-5.3515,-5.3515,-5.3515,-5.3515,-5.3515,-5.3515,-5.3515,-5.3515,-5.3515,-5.3515,-5.3515,-5.3515,-5.341,-5.3251,-5.2933,-5.2773,-5.2437,-5.1943,-5.1551,-5.126,-5.0351,-4.9931,-4.9691,-4.9376,-4.9033,-4.9103,-4.9117,-4.9019,-4.9103,-4.9131,-4.9047,-4.8991,-4.8808,-4.856,-4.8476,-4.828,-4.8083,-4.8083,-4.8083,-4.8083,-4.8083,-4.8083,-4.8083,-4.7724,-4.6606,-4.5713,-4.5413,-4.4359,-4.3697,-4.3594,-4.3485,-4.3355,-4.3177,-4.2984,-4.29,-4.29,-4.29,-4.29,-4.29,-4.29,-4.29,-4.29,-4.2744,-4.2207,-4.0622,-3.9768,-3.8932,-3.8149,-3.79,-3.79,-3.79,-3.79,-3.7762,-3.7413,-3.7413,-3.7261,-3.7062,-3.6909,-3.7062,-3.7413,-3.7459,-3.7459,-3.7657,-3.7827,-3.7814,-3.7748,-3.7524,-3.7376,-3.7283,-3.693,-3.6448,-3.616,-3.5777,-3.5331,-3.4896,-3.4372,-3.3843,-3.3656,-3.3507,-3.3342,-3.3384,-3.3292,-3.3312,-3.3331,-3.3346,-3.3292,-3.3273,-3.3273,-3.3256,-5.3515,-5.3515,-5.3515,-5.3515,-5.3515,-5.3515,-5.3515,-5.3515,-5.3515,-5.3515,-5.3515,-5.3515,-5.3515,-5.3515,-5.3515,-5.3515,-5.3515,-5.3515,-5.3462,-5.341,-5.3304,-5.316,-5.278,-5.1975,-5.1236,-5.0724,-4.9818,-4.9294,-4.892,-4.8443,-4.8373,-4.8204,-4.8125,-4.8331,-4.8204,-4.8148,-4.8288,-4.8302,-4.8223,-4.8167,-4.8153,-4.8097,-4.8083,-4.8083,-4.8083,-4.8083,-4.8083,-4.8083,-4.8069,-4.8013,-4.6755,-4.621,-4.5839,-4.4869,-4.3926,-4.3893,-4.3628,-4.3389,-4.3177,-4.3032,-4.29,-4.29,-4.29,-4.29,-4.29,-4.29,-4.29,-4.2833,-4.2649,-4.1996,-4.0595,-3.9768,-3.8965,-3.8228,-3.7933,-3.79,-3.79,-3.79,-3.7762,-3.7564,-3.7551,-3.7459,-3.7307,-3.7155,-3.7353,-3.7505,-3.7505,-3.7551,-3.7795,-3.79,-3.79,-3.79,-3.7703,-3.7598,-3.7551,-3.7459,-3.6981,-3.6675,-3.638,-3.6033,-3.5568,-3.5039,-3.4486,-3.3897,-3.3648,-3.3441,-3.329,-3.3252,-3.3275,-3.3261,-3.327,-3.3248,-3.3247,-3.325,-3.3231,-5.3515,-5.3515,-5.3515,-5.3515,-5.3515,-5.3515,-5.3515,-5.3515,-5.3515,-5.3515,-5.3515,-5.3515,-5.3515,-5.3515,-5.3515,-5.3515,-5.3515,-5.3515,-5.3486,-5.339,-5.3232,-5.3073,-5.266,-5.1592,-5.0814,-5.0308,-4.9484,-4.8851,-4.857,-4.8263,-4.8134,-4.8083,-4.8083,-4.8083,-4.8083,-4.8083,-4.8083,-4.8083,-4.8083,-4.8083,-4.8083,-4.8083,-4.8083,-4.8083,-4.8083,-4.8083,-4.8083,-4.8083,-4.8083,-4.7957,-4.689,-4.6385,-4.5957,-4.4669,-4.3895,-4.3675,-4.3533,-4.3307,-4.3032,-4.2935,-4.29,-4.29,-4.29,-4.29,-4.29,-4.2887,-4.286,-4.2635,-4.22,-4.1483,-4.0743,-3.9788,-3.8952,-3.8333,-3.8024,-3.79,-3.79,-3.79,-3.7808,-3.7611,-3.7657,-3.7749,-3.7551,-3.7459,-3.7564,-3.7657,-3.7611,-3.7703,-3.7854,-3.79,-3.79,-3.79,-3.79,-3.7854,-3.7841,-3.7795,-3.7564,-3.7366,-3.707,-3.6798,-3.6311,-3.5708,-3.5135,-3.4679,-3.3931,-3.3357,-3.3241,-3.3243,-3.328,-3.3327,-3.3244,-3.3196,-3.3209,-3.3197,-3.3206,-5.3515,-5.3515,-5.3515,-5.3515,-5.3515,-5.3515,-5.3515,-5.3515,-5.3515,-5.3515,-5.3515,-5.3515,-5.3515,-5.3515,-5.3515,-5.3515,-5.35,-5.35,-5.3341,-5.3071,-5.2879,-5.2506,-5.2142,-5.0995,-5.0343,-4.9782,-4.905,-4.8545,-4.8308,-4.8185,-4.8083,-4.8083,-4.8083,-4.8083,-4.8083,-4.8083,-4.8083,-4.8083,-4.8083,-4.8083,-4.8083,-4.8083,-4.8083,-4.8083,-4.8083,-4.8083,-4.8083,-4.8083,-4.8083,-4.7915,-4.7263,-4.6687,-4.6013,-4.5142,-4.4089,-4.3683,-4.3437,-4.3177,-4.2984,-4.29,-4.29,-4.29,-4.2887,-4.29,-4.29,-4.2873,-4.2711,-4.2323,-4.1788,-4.1039,-4.0279,-3.9674,-3.9018,-3.8371,-3.8024,-3.7946,-3.79,-3.79,-3.7808,-3.7716,-3.7808,-3.7808,-3.7808,-3.7762,-3.7808,-3.7808,-3.7749,-3.7808,-3.7913,-3.79,-3.79,-3.79,-3.79,-3.79,-3.79,-3.79,-3.79,-3.7749,-3.7605,-3.7331,-3.6946,-3.634,-3.5931,-3.5568,-3.4689,-3.3694,-3.3397,-3.343,-3.3379,-3.3339,-3.3351,-3.3339,-3.3218,-3.3174,-3.3182,-5.3515,-5.3515,-5.3515,-5.3515,-5.3515,-5.3515,-5.3515,-5.3515,-5.3515,-5.3515,-5.3515,-5.3515,-5.3515,-5.3471,-5.337,-5.3297,-5.3312,-5.3196,-5.2775,-5.247,-5.2383,-5.1924,-5.133,-5.0565,-5.0047,-4.975,-4.8799,-4.8308,-4.817,-4.8134,-4.8083,-4.8083,-4.8083,-4.8083,-4.8083,-4.8083,-4.8083,-4.8083,-4.8083,-4.8083,-4.8083,-4.8083,-4.8083,-4.8083,-4.8083,-4.8083,-4.8083,-4.8083,-4.8083,-4.7915,-4.7516,-4.6926,-4.6259,-4.5462,-4.4594,-4.3834,-4.3485,-4.3245,-4.3115,-4.2984,-4.3032,-4.3032,-4.2935,-4.2833,-4.2616,-4.2439,-4.2263,-4.1842,-4.1272,-4.0692,-4.0062,-3.9564,-3.9042,-3.8489,-3.8103,-3.7946,-3.79,-3.79,-3.79,-3.7854,-3.79,-3.79,-3.7854,-3.7854,-3.7854,-3.7854,-3.7854,-3.7854,-3.79,-3.79,-3.79,-3.79,-3.79,-3.79,-3.79,-3.79,-3.79,-3.7854,-3.7756,-3.7547,-3.7292,-3.69,-3.6515,-3.6028,-3.5278,-3.4384,-3.4019,-3.3665,-3.3646,-3.3605,-3.3547,-3.3371,-3.3203,-3.3134,-3.3153,-5.3515,-5.3515,-5.3515,-5.3515,-5.3515,-5.3515,-5.3515,-5.3515,-5.35,-5.3515,-5.3553,-5.3471,-5.3442,-5.3283,-5.2862,-5.2702,-5.2543,-5.2238,-5.1947,-5.1759,-5.173,-5.1643,-5.1302,-5.0435,-5.0047,-4.9739,-4.8778,-4.8213,-4.817,-4.812,-4.8134,-4.8134,-4.812,-4.8134,-4.8221,-4.8221,-4.8083,-4.8134,-4.8134,-4.8083,-4.8083,-4.8083,-4.8083,-4.8083,-4.8083,-4.8083,-4.8083,-4.8083,-4.8083,-4.805,-4.7558,-4.694,-4.6273,-4.5476,-4.4703,-4.4135,-4.3723,-4.3566,-4.3471,-4.3341,-4.3211,-4.3225,-4.308,-4.265,-4.2263,-4.1761,-4.1462,-4.1259,-4.0662,-4.0282,-3.9934,-3.9415,-3.8921,-3.8584,-3.8272,-3.807,-3.7992,-3.79,-3.79,-3.79,-3.79,-3.79,-3.79,-3.79,-3.79,-3.79,-3.79,-3.79,-3.79,-3.79,-3.79,-3.79,-3.79,-3.79,-3.79,-3.79,-3.79,-3.79,-3.7861,-3.775,-3.7508,-3.7189,-3.678,-3.6232,-3.5628,-3.5289,-3.4987,-3.4607,-3.4155,-3.3991,-3.4047,-3.3652,-3.3158,-3.3151,-3.333,-5.3515,-5.3515,-5.3515,-5.3605,-5.3696,-5.371,-5.38,-5.3904,-5.38,-5.371,-5.3623,-5.3161,-5.2804,-5.2484,-5.2122,-5.2049,-5.1962,-5.1701,-5.1396,-5.1135,-5.1062,-5.0902,-5.0397,-4.9917,-4.9688,-4.9545,-4.9031,-4.8638,-4.8459,-4.8272,-4.8185,-4.8308,-4.8358,-4.8459,-4.8459,-4.8559,-4.8459,-4.8358,-4.817,-4.8134,-4.8083,-4.8083,-4.8083,-4.8083,-4.8083,-4.8083,-4.8083,-4.8083,-4.8083,-4.8078,-4.7746,-4.7249,-4.6518,-4.5873,-4.5349,-4.4307,-4.4115,-4.3912,-4.3648,-4.3533,-4.3485,-4.3423,-4.3218,-4.2821,-4.2093,-4.1449,-4.0892,-4.0594,-4.0038,-3.9753,-3.9654,-3.9204,-3.8899,-3.8575,-3.8395,-3.8135,-3.7979,-3.7946,-3.79,-3.79,-3.79,-3.79,-3.79,-3.79,-3.79,-3.79,-3.79,-3.79,-3.79,-3.79,-3.79,-3.79,-3.79,-3.79,-3.79,-3.79,-3.79,-3.79,-3.79,-3.7821,-3.773,-3.7436,-3.7078,-3.7091,-3.7001,-3.6554,-3.6026,-3.5519,-3.5071,-3.4791,-3.4563,-3.4147,-3.3808,-3.3997,-3.409,-5.3658,-5.371,-5.3605,-5.3762,-5.3993,-5.4008,-5.4112,-5.4237,-5.3818,-5.367,-5.3472,-5.2784,-5.2049,-5.1657,-5.1497,-5.1381,-5.1352,-5.1222,-5.0873,-5.0554,-5.0429,-5.0177,-4.9895,-4.9496,-4.9349,-4.9404,-4.9037,-4.8909,-4.881,-4.8624,-4.8459,-4.8595,-4.8595,-4.8695,-4.8845,-4.8845,-4.8745,-4.8595,-4.8258,-4.817,-4.817,-4.812,-4.812,-4.8083,-4.8083,-4.8083,-4.8083,-4.8083,-4.8083,-4.8055,-4.7867,-4.7249,-4.6448,-4.5984,-4.5374,-4.4588,-4.4317,-4.4209,-4.396,-4.377,-4.3695,-4.3511,-4.3094,-4.2474,-4.1808,-4.1232,-4.0621,-4.0024,-3.9658,-3.94,-3.9261,-3.9114,-3.8935,-3.8711,-3.8498,-3.8239,-3.8011,-3.7979,-3.7946,-3.79,-3.79,-3.79,-3.79,-3.79,-3.79,-3.79,-3.79,-3.7874,-3.7848,-3.7808,-3.7808,-3.7795,-3.7821,-3.7835,-3.7848,-3.7861,-3.7874,-3.7874,-3.7874,-3.7874,-3.7795,-3.7795,-3.7619,-3.7795,-3.79,-3.7599,-3.6917,-3.6424,-3.5919,-3.5265,-3.4712,-3.4723,-3.4635,-3.4735,-3.4904,-5.4008,-5.4252,-5.3993,-5.4045,-5.4252,-5.4252,-5.4274,-5.4208,-5.3429,-5.3041,-5.2815,-5.2144,-5.1628,-5.1396,-5.0946,-5.0728,-5.0714,-5.0139,-5.0008,-4.9921,-4.979,-4.9834,-4.9634,-4.9488,-4.9404,-4.9537,-4.9242,-4.9157,-4.9157,-4.8994,-4.8895,-4.8859,-4.8895,-4.8895,-4.8945,-4.8994,-4.8895,-4.876,-4.8358,-4.8258,-4.8308,-4.8258,-4.8083,-4.8083,-4.8083,-4.8083,-4.8083,-4.8083,-4.7985,-4.8021,-4.7642,-4.6996,-4.6251,-4.5788,-4.5155,-4.4621,-4.4425,-4.4317,-4.4209,-4.4068,-4.3865,-4.3415,-4.2821,-4.2113,-4.1394,-4.0689,-4.0051,-3.9604,-3.9373,-3.9332,-3.9305,-3.9247,-3.9114,-3.889,-3.8621,-3.8395,-3.8181,-3.8011,-3.7979,-3.7946,-3.79,-3.79,-3.79,-3.79,-3.79,-3.79,-3.7652,-3.7612,-3.7612,-3.7586,-3.7625,-3.7652,-3.7704,-3.773,-3.7769,-3.7743,-3.7639,-3.7717,-3.7795,-3.7848,-3.7874,-3.79,-3.79,-3.79,-3.79,-3.7848,-3.7717,-3.7,-3.6246,-3.5362,-3.4942,-3.4976,-3.4952,-3.4933,-3.5256,-5.4333,-5.4575,-5.4073,-5.4118,-5.4575,-5.416,-5.4084,-5.403,-5.308,-5.2199,-5.1576,-5.1185,-5.0801,-5.0452,-5.0249,-5.0061,-5.0032,-4.9857,-4.9761,-4.9732,-4.9732,-4.9732,-4.962,-4.962,-4.9585,-4.9634,-4.9488,-4.9438,-4.9488,-4.9389,-4.9389,-4.934,-4.9192,-4.9291,-4.9291,-4.9192,-4.9058,-4.8845,-4.8545,-4.8445,-4.8395,-4.8258,-4.8083,-4.8083,-4.8083,-4.8083,-4.8083,-4.8083,-4.7859,-4.76,-4.7291,-4.6631,-4.5914,-4.5416,-4.4953,-4.4509,-4.4425,-4.4378,-4.4364,-4.4256,-4.4068,-4.3634,-4.3081,-4.2344,-4.1313,-4.0865,-4.0201,-3.9712,-3.9319,-3.9305,-3.9305,-3.9305,-3.9203,-3.8966,-3.8787,-3.8562,-3.8395,-3.8181,-3.8011,-3.7965,-3.7933,-3.79,-3.79,-3.79,-3.79,-3.7874,-3.7586,-3.7338,-3.7273,-3.7226,-3.7187,-3.7161,-3.7187,-3.7063,-3.7063,-3.7181,-3.7338,-3.7482,-3.7625,-3.7704,-3.7802,-3.79,-3.79,-3.79,-3.7808,-3.7652,-3.7456,-3.7194,-3.6569,-3.5703,-3.5391,-3.5375,-3.5276,-3.5073,-3.5443,-5.4012,-5.4235,-5.3838,-5.4017,-5.4473,-5.3928,-5.3694,-5.359,-5.2615,-5.1458,-5.0444,-5.04,-5.0197,-4.9819,-4.9746,-4.9761,-4.9741,-4.9746,-4.9746,-4.9732,-4.9732,-4.9732,-4.9732,-4.9683,-4.9683,-4.9732,-4.9732,-4.9683,-4.9683,-4.9683,-4.9683,-4.9585,-4.9551,-4.9537,-4.9537,-4.9453,-4.9207,-4.8994,-4.8695,-4.8481,-4.8445,-4.8258,-4.8083,-4.8083,-4.8083,-4.7901,-4.7802,-4.7726,-4.7459,-4.7052,-4.6616,-4.6167,-4.5605,-4.5127,-4.4846,-4.4579,-4.4425,-4.4378,-4.427,-4.4162,-4.396,-4.3505,-4.3232,-4.2494,-4.1713,-4.1218,-4.0567,-3.978,-3.9468,-3.9305,-3.9305,-3.9305,-3.9247,-3.9114,-3.8908,-3.8729,-3.8607,-3.8395,-3.8226,-3.8044,-3.8011,-3.7998,-3.7939,-3.7932,-3.767,-3.7494,-3.7011,-3.6776,-3.6755,-3.6637,-3.6524,-3.6498,-3.6472,-3.6323,-3.6219,-3.6475,-3.6807,-3.7027,-3.7211,-3.7507,-3.7625,-3.7736,-3.7848,-3.7874,-3.773,-3.7456,-3.7077,-3.6671,-3.6413,-3.6098,-3.575,-3.5257,-3.5342,-3.521,-3.557,-5.3049,-5.3219,-5.3219,-5.3593,-5.4022,-5.3488,-5.3058,-5.2836,-5.1949,-5.0891,-4.9926,-4.9834,-4.9819,-4.9732,-4.9732,-4.9732,-4.9732,-4.9732,-4.9732,-4.9732,-4.9732,-4.9732,-4.9732,-4.9732,-4.9732,-4.9732,-4.9732,-4.9732,-4.9732,-4.9732,-4.9732,-4.9732,-4.9634,-4.962,-4.9683,-4.9453,-4.9305,-4.9207,-4.8745,-4.8581,-4.8445,-4.8258,-4.812,-4.7929,-4.7965,-4.774,-4.7333,-4.7221,-4.6912,-4.6378,-4.59,-4.5521,-4.524,-4.4762,-4.4523,-4.4439,-4.4425,-4.427,-4.4035,-4.377,-4.3566,-4.3341,-4.3163,-4.2569,-4.1978,-4.1449,-4.0852,-4.0011,-3.9617,-3.9359,-3.9305,-3.9305,-3.9261,-3.9203,-3.9056,-3.8908,-3.8742,-3.8652,-3.8427,-3.8272,-3.8213,-3.8173,-3.8092,-3.792,-3.7566,-3.713,-3.6493,-3.6271,-3.6249,-3.6031,-3.5907,-3.5867,-3.5785,-3.5798,-3.5742,-3.597,-3.6262,-3.6481,-3.6806,-3.7135,-3.7419,-3.7539,-3.7664,-3.7776,-3.7521,-3.7142,-3.6619,-3.6083,-3.5761,-3.5444,-3.521,-3.4943,-3.5055,-3.5197,-3.5417,-5.3125,-5.3144,-5.271,-5.265,-5.283,-5.2636,-5.2483,-5.2267,-5.1428,-5.0648,-5.0067,-4.9975,-4.9829,-4.9781,-4.9732,-4.9732,-4.9732,-4.9732,-4.9732,-4.9732,-4.9732,-4.9732,-4.9732,-4.9732,-4.9732,-4.9732,-4.9732,-4.9732,-4.9732,-4.9732,-4.9732,-4.9732,-4.9683,-4.9585,-4.9537,-4.9404,-4.9453,-4.9108,-4.8845,-4.8681,-4.8481,-4.8215,-4.7845,-4.7544,-4.7516,-4.7207,-4.6659,-4.6602,-4.6265,-4.5759,-4.5248,-4.5094,-4.4874,-4.4439,-4.4425,-4.4425,-4.4364,-4.4162,-4.3832,-4.3533,-4.3403,-4.3211,-4.3039,-4.2616,-4.2046,-4.1476,-4.0865,-4.0255,-3.9671,-3.94,-3.9305,-3.9305,-3.9305,-3.9305,-3.9158,-3.9056,-3.8922,-3.8819,-3.8684,-3.8544,-3.8466,-3.84,-3.8326,-3.8069,-3.7674,-3.7201,-3.6603,-3.6095,-3.5937,-3.5492,-3.5191,-3.5149,-3.5149,-3.5215,-3.5305,-3.5621,-3.5792,-3.597,-3.6416,-3.69,-3.71,-3.7316,-3.724,-3.7182,-3.7041,-3.6789,-3.6101,-3.5489,-3.5015,-3.4669,-3.4634,-3.466,-3.4725,-3.479,-3.491,-5.2501,-5.2441,-5.2037,-5.1858,-5.1858,-5.1858,-5.181,-5.1625,-5.0968,-5.0519,-5.0294,-5.0231,-5.0086,-4.9941,-4.9844,-4.9766,-4.9732,-4.9732,-4.9732,-4.9732,-4.9732,-4.9732,-4.9732,-4.9732,-4.9732,-4.9732,-4.9732,-4.9732,-4.9732,-4.9732,-4.9732,-4.9732,-4.9669,-4.9446,-4.9334,-4.9334,-4.9502,-4.9085,-4.8787,-4.8347,-4.8056,-4.773,-4.7263,-4.6996,-4.6813,-4.6588,-4.6153,-4.5858,-4.5675,-4.5226,-4.4973,-4.4846,-4.4523,-4.4425,-4.4425,-4.4425,-4.427,-4.4068,-4.3832,-4.3437,-4.3355,-4.3273,-4.3032,-4.2759,-4.2256,-4.1678,-4.1115,-4.0504,-3.9811,-3.9485,-3.9305,-3.9305,-3.9305,-3.9305,-3.9261,-3.9158,-3.91,-3.9011,-3.8922,-3.8814,-3.8724,-3.8612,-3.8421,-3.818,-3.7893,-3.7334,-3.6777,-3.6332,-3.5873,-3.5531,-3.512,-3.504,-3.5014,-3.5161,-3.5254,-3.5264,-3.5438,-3.552,-3.5989,-3.6527,-3.6767,-3.6904,-3.6764,-3.6624,-3.6484,-3.6174,-3.5444,-3.485,-3.4706,-3.4531,-3.446,-3.4447,-3.4397,-3.4489,-3.4607,-5.1244,-5.1229,-5.1229,-5.1259,-5.1244,-5.1304,-5.1118,-5.0837,-5.0614,-5.0548,-5.0486,-5.0486,-5.0342,-5.0149,-5.0101,-4.9941,-4.9732,-4.9732,-4.9732,-4.9732,-4.9732,-4.9732,-4.9732,-4.9732,-4.9732,-4.9732,-4.9732,-4.9732,-4.9732,-4.9732,-4.9732,-4.9567,-4.948,-4.9127,-4.8982,-4.9011,-4.9097,-4.8646,-4.8236,-4.7806,-4.744,-4.689,-4.6518,-4.6321,-4.6209,-4.59,-4.5521,-4.5268,-4.4987,-4.4692,-4.4481,-4.4453,-4.4425,-4.4425,-4.4425,-4.4317,-4.4176,-4.4035,-4.3893,-4.3546,-4.3369,-4.3273,-4.3032,-4.2922,-4.2569,-4.1902,-4.1262,-4.0759,-4.016,-3.9693,-3.9349,-3.9349,-3.9305,-3.9305,-3.9305,-3.9261,-3.9261,-3.9216,-3.9114,-3.9024,-3.8966,-3.8827,-3.8456,-3.8196,-3.8283,-3.8051,-3.7641,-3.7249,-3.6815,-3.6358,-3.593,-3.538,-3.5368,-3.533,-3.5315,-3.5287,-3.53,-3.5461,-3.569,-3.6119,-3.632,-3.6494,-3.642,-3.6338,-3.6082,-3.5679,-3.5112,-3.4831,-3.4684,-3.4577,-3.4397,-3.4397,-3.4397,-3.4397,-3.4476,-5.1229,-5.1229,-5.1229,-5.1229,-5.1229,-5.1229,-5.1167,-5.1073,-5.0979,-5.0899,-5.0728,-5.0728,-5.0504,-5.0086,-5.0101,-4.9926,-4.9781,-4.9732,-4.9732,-4.9732,-4.9795,-4.9732,-4.9732,-4.9732,-4.9732,-4.9732,-4.9732,-4.9732,-4.9717,-4.9717,-4.9335,-4.9059,-4.9001,-4.8609,-4.8333,-4.8246,-4.8019,-4.7765,-4.7357,-4.7131,-4.6797,-4.6314,-4.597,-4.5717,-4.5619,-4.5268,-4.4916,-4.4762,-4.4551,-4.4481,-4.4425,-4.4425,-4.4425,-4.4425,-4.4425,-4.4378,-4.4176,-4.3988,-4.394,-4.356,-4.3321,-4.3321,-4.308,-4.2935,-4.2609,-4.2085,-4.1355,-4.0804,-4.0263,-3.9718,-3.9407,-3.9305,-3.9305,-3.9305,-3.9305,-3.9305,-3.9305,-3.9261,-3.9203,-3.9203,-3.9114,-3.906,-3.8661,-3.8718,-3.8793,-3.8742,-3.8509,-3.8114,-3.772,-3.7259,-3.6732,-3.6151,-3.5815,-3.5762,-3.552,-3.5425,-3.5371,-3.5439,-3.5668,-3.5789,-3.5938,-3.6099,-3.6096,-3.6014,-3.5798,-3.5404,-3.4916,-3.4797,-3.4825,-3.4577,-3.4397,-3.4397,-3.4397,-3.4397,-3.4397,-5.1229,-5.1229,-5.1229,-5.1229,-5.1229,-5.1229,-5.1229,-5.1229,-5.1229,-5.1105,-5.0964,-5.0964,-5.0728,-5.0442,-5.0394,-5.0264,-5.0101,-5.0101,-5.0101,-5.0086,-4.999,-4.999,-4.9926,-4.98,-4.9781,-4.9717,-4.9717,-4.9732,-4.963,-4.9306,-4.8972,-4.8406,-4.8348,-4.797,-4.7575,-4.7293,-4.6872,-4.6608,-4.6405,-4.6324,-4.6133,-4.5765,-4.5282,-4.5099,-4.5001,-4.4734,-4.4481,-4.4425,-4.4425,-4.4425,-4.4425,-4.4425,-4.4425,-4.4425,-4.4425,-4.4364,-4.427,-4.4176,-4.4129,-4.3846,-4.3642,-4.3499,-4.3293,-4.3095,-4.2637,-4.2074,-4.1374,-4.0704,-4.0189,-3.9716,-3.9496,-3.9305,-3.9305,-3.9305,-3.9305,-3.9305,-3.9305,-3.9305,-3.9305,-3.9305,-3.9305,-3.9261,-3.9234,-3.9305,-3.9292,-3.9112,-3.903,-3.8881,-3.8485,-3.8063,-3.7522,-3.6926,-3.6506,-3.6264,-3.5926,-3.5561,-3.5534,-3.5521,-3.5629,-3.5737,-3.5764,-3.5805,-3.5885,-3.5763,-3.5534,-3.5236,-3.5044,-3.5044,-3.5031,-3.4743,-3.4522,-3.4577,-3.4535,-3.4452,-3.4452,-5.1229,-5.1229,-5.1229,-5.1229,-5.1229,-5.1229,-5.1229,-5.1229,-5.1229,-5.1229,-5.1182,-5.1182,-5.1011,-5.0728,-5.068,-5.06,-5.0438,-5.0405,-5.0357,-5.0471,-5.0294,-5.0139,-4.9896,-4.9969,-4.9514,-4.9548,-4.947,-4.9228,-4.9282,-4.8899,-4.8333,-4.7738,-4.7709,-4.7375,-4.6807,-4.6642,-4.6224,-4.5777,-4.5795,-4.5822,-4.5411,-4.4898,-4.4425,-4.4481,-4.4481,-4.4425,-4.4425,-4.4425,-4.4425,-4.4425,-4.4425,-4.4425,-4.4425,-4.4425,-4.4425,-4.4411,-4.4364,-4.4364,-4.427,-4.4035,-4.394,-4.3818,-4.3701,-4.3111,-4.248,-4.2127,-4.1508,-4.0781,-4.0216,-3.9829,-3.954,-3.9363,-3.9305,-3.9305,-3.9305,-3.9305,-3.9305,-3.9305,-3.9305,-3.9305,-3.9305,-3.9305,-3.9305,-3.9305,-3.9305,-3.9305,-3.9292,-3.9251,-3.902,-3.861,-3.8084,-3.7445,-3.6888,-3.6441,-3.6089,-3.5805,-3.571,-3.5683,-3.5723,-3.5723,-3.5724,-3.571,-3.5723,-3.5629,-3.5548,-3.5521,-3.5399,-3.5318,-3.5154,-3.4949,-3.4784,-3.4743,-3.466,-3.4535,-3.4452,-5.1229,-5.1229,-5.1229,-5.1229,-5.1229,-5.1229,-5.1229,-5.1229,-5.1229,-5.1214,-5.1214,-5.1167,-5.1073,-5.087,-5.0795,-5.0653,-5.0522,-5.0345,-5.0504,-5.0368,-5.0243,-4.989,-4.9446,-4.9421,-4.9026,-4.849,-4.8359,-4.8537,-4.8355,-4.8076,-4.7695,-4.7082,-4.7042,-4.6737,-4.6258,-4.6078,-4.5797,-4.5396,-4.5341,-4.5281,-4.4898,-4.4687,-4.4425,-4.4425,-4.4425,-4.4425,-4.4425,-4.4425,-4.4425,-4.4425,-4.4425,-4.4425,-4.4425,-4.4425,-4.4425,-4.4425,-4.4425,-4.4425,-4.4317,-4.4162,-4.4054,-4.3732,-4.3402,-4.2694,-4.2219,-4.2108,-4.1692,-4.089,-4.0346,-3.9939,-3.9628,-3.9496,-3.9349,-3.9349,-3.9349,-3.9349,-3.9349,-3.9319,-3.9319,-3.9305,-3.9305,-3.9305,-3.9305,-3.9305,-3.9305,-3.9305,-3.9305,-3.9251,-3.9074,-3.8749,-3.8238,-3.7597,-3.6999,-3.6551,-3.628,-3.6022,-3.59,-3.575,-3.5723,-3.571,-3.571,-3.571,-3.571,-3.571,-3.5669,-3.5588,-3.5521,-3.5399,-3.5236,-3.5072,-3.4921,-3.4839,-3.466,-3.4481,-3.4439,-5.1229,-5.1229,-5.1229,-5.1229,-5.1229,-5.1229,-5.1229,-5.1229,-5.1229,-5.105,-5.0838,-5.1018,-5.1105,-5.0845,-5.0681,-5.0485,-5.0315,-5.0033,-4.9902,-4.9838,-4.9831,-4.9459,-4.9159,-4.8963,-4.8752,-4.8231,-4.8065,-4.8004,-4.7544,-4.7349,-4.7024,-4.6548,-4.6403,-4.6272,-4.5895,-4.579,-4.5685,-4.5504,-4.5261,-4.4986,-4.463,-4.4551,-4.4411,-4.4425,-4.4425,-4.4425,-4.4425,-4.4425,-4.4425,-4.4425,-4.4425,-4.4425,-4.4425,-4.4425,-4.4425,-4.4425,-4.4425,-4.4425,-4.4364,-4.4214,-4.4022,-4.3664,-4.3426,-4.2865,-4.1945,-4.1756,-4.1313,-4.0625,-4.0445,-4.0081,-3.9892,-3.9747,-3.9703,-3.9689,-3.9659,-3.9659,-3.9584,-3.9554,-3.9452,-3.9305,-3.9305,-3.9305,-3.9305,-3.9305,-3.9305,-3.9305,-3.9305,-3.9452,-3.9261,-3.8866,-3.8324,-3.7833,-3.7233,-3.7,-3.6917,-3.6524,-3.609,-3.5927,-3.5723,-3.571,-3.571,-3.571,-3.571,-3.571,-3.571,-3.5629,-3.5548,-3.5521,-3.5399,-3.5277,-3.5072,-3.4921,-3.4701,-3.4564,-3.4605,-5.1229,-5.1229,-5.1229,-5.1261,-5.1308,-5.1214,-5.1201,-5.1219,-5.1126,-5.0705,-5.0181,-5.0661,-5.093,-5.075,-5.0436,-5.0196,-4.9971,-4.9656,-4.9433,-4.9373,-4.9343,-4.9011,-4.88,-4.8682,-4.8322,-4.8021,-4.7735,-4.7349,-4.6966,-4.677,-4.6461,-4.5967,-4.588,-4.588,-4.5835,-4.57,-4.5609,-4.5549,-4.5413,-4.523,-4.4954,-4.4723,-4.4551,-4.4472,-4.4411,-4.4425,-4.4425,-4.4425,-4.4425,-4.4425,-4.4425,-4.4425,-4.4425,-4.4425,-4.4425,-4.4425,-4.4425,-4.4425,-4.4336,-4.4195,-4.3915,-4.3606,-4.3455,-4.2837,-4.1824,-4.1301,-4.0874,-4.065,-4.0469,-4.0312,-4.0154,-4.0009,-3.9996,-3.9952,-3.9966,-3.9922,-3.9804,-3.973,-3.9584,-3.9438,-3.9394,-3.9394,-3.9394,-3.9394,-3.938,-3.938,-3.9424,-3.9526,-3.9464,-3.8976,-3.8443,-3.8044,-3.7619,-3.7466,-3.7218,-3.6754,-3.609,-3.5913,-3.571,-3.571,-3.571,-3.571,-3.571,-3.571,-3.5669,-3.5669,-3.5669,-3.5629,-3.5548,-3.5399,-3.5277,-3.5072,-3.4921,-3.4825,-3.4867,-5.1229,-5.1229,-5.1229,-5.1526,-5.1926,-5.1464,-5.124,-5.1182,-5.0636,-5.0062,-4.9659,-4.9569,-4.9674,-4.9674,-4.9599,-4.9494,-4.9524,-4.9224,-4.9269,-4.9269,-4.891,-4.8521,-4.8283,-4.8134,-4.7614,-4.7302,-4.6975,-4.6471,-4.6515,-4.6306,-4.6055,-4.594,-4.594,-4.594,-4.5925,-4.5835,-4.5835,-4.5776,-4.5685,-4.5549,-4.5413,-4.5138,-4.4797,-4.4658,-4.4504,-4.4457,-4.4425,-4.4425,-4.4425,-4.4425,-4.4457,-4.4504,-4.4457,-4.4457,-4.4425,-4.4425,-4.4425,-4.4425,-4.4355,-4.4017,-4.3652,-4.3343,-4.2964,-4.2135,-4.1446,-4.1109,-4.0797,-4.067,-4.0558,-4.0442,-4.0284,-4.014,-4.0083,-4.0083,-4.0053,-4.0053,-3.9966,-3.9966,-3.9878,-3.9834,-3.9791,-3.9791,-3.9791,-3.9777,-3.9779,-3.9752,-3.9713,-3.98,-3.9595,-3.907,-3.8504,-3.8172,-3.7855,-3.7112,-3.6456,-3.6429,-3.5995,-3.5805,-3.571,-3.571,-3.571,-3.571,-3.571,-3.571,-3.571,-3.571,-3.571,-3.571,-3.5588,-3.544,-3.5399,-3.5277,-3.5113,-3.5044,-3.5072]},{"header":{"parameterUnit":"m.s-1","parameterCategory":1,"la1":31.0,"la2":29.5877,"lo1":-88.7671,"lo2":-86.6584,"dy":0.0162,"dx":0.0185,"nx":115,"ny":88,"refTime":"2023-08-08T18:00:00:Z","depth":0,"parameterNumber":3,"parameterNumberName":"V-component_of_WINDS"},"data":[0.0,0.0,0.0,0.0,0.0,0.0,0.0,0.0,0.0,0.0,0.0,0.0,0.0,0.0,0.0,0.0,0.0,0.0,0.0,0.0,0.0,0.0,0.0,0.0,0.0,0.0,0.0,0.0,0.0,0.0,0.0,0.0,0.0,0.0,0.0,0.0,0.0,0.0,0.0,0.0,0.0,0.0,0.0,0.0,0.0,0.0,0.0,0.0,0.0,0.0,0.0,0.0,0.0,0.0,0.0,0.0,0.0,0.0,0.0,0.0,0.0,0.0,0.0,0.0,0.0,0.0,0.0,0.0,0.0,0.0,0.0,0.0,0.0,0.0,0.0,0.0,0.0,0.0,0.0,0.0,0.0,0.0,0.0,0.0,0.0,0.0,0.0,0.0,0.0,0.0,0.0,0.0,0.0,0.0,0.0,0.0,0.0,0.0,0.0,0.0,0.0,0.0,0.0,0.0,0.0,0.0,0.0,0.0,0.0,0.0,0.0,0.0,0.0,0.0,0.0,0.0,0.0,0.0,0.0,0.0,0.0,0.0,0.0,0.0,0.0,0.0,0.0,0.0,0.0,0.0,0.0,0.0,0.0,0.0,0.0,0.0,0.0,0.0,0.0,0.0,0.0,0.0,0.0,0.0,0.0,0.0,0.0,0.0,0.0,0.0,0.0,0.0,0.0,0.0,0.0,0.0,0.0,0.0,0.0,0.0,0.0,0.0,0.0,0.0,0.0,0.0,0.0,0.0,0.0,0.0,0.0,0.0,0.0,0.0,0.0,0.0,0.0,0.0,0.0,0.0,0.0,0.0,0.0,0.0,0.0,0.0,0.0,0.0,0.0,0.0,0.0,0.0,0.0,0.0,0.0,0.0,0.0,0.0,0.0,0.0,0.0,0.0,0.0,0.0,0.0,0.0,0.0,0.0,0.0,0.0,0.0,0.0,0.0,0.0,0.0,0.0,0.0,0.0,0.0,0.0,0.0,0.0,0.0,0.0,0.0,0.0,0.0,0.0,0.0,0.0,0.0,0.0,0.0,0.0,0.0,0.0,0.0,0.0,0.0,0.0,0.0,0.0,0.0,0.0,0.0,0.0,0.0,0.0,0.0,0.0,0.0,0.0,0.0,0.0,0.0,0.0,0.0,0.0,0.0,0.0,0.0,0.0,0.0,0.0,0.0,0.0,0.0,0.0,0.0,0.0,0.0,0.0,0.0,0.0,0.0,0.0,0.0,0.0,0.0,0.0,0.0,0.0,0.0,0.0,0.0,0.0,0.0,0.0,0.0,0.0,0.0,0.0,0.0,0.0,0.0,0.0,0.0,0.0,0.0,0.0,0.0,0.0,0.0,0.0,0.0,0.0,0.0,0.0,0.0,0.0,0.0,0.0,0.0,0.0,0.0,0.0,0.0,0.0,0.0,0.0,0.0,0.0,0.0,0.0,0.0,0.0,0.0,0.0,0.0,0.0,0.0,0.0,0.0,0.0,0.0,0.0,0.0,0.0,0.0,0.0,0.0,0.0,0.0,0.0,0.0,0.0,0.0,0.0,0.0,0.0,0.0,0.0,0.0,0.0,0.0,0.0,0.0,0.0,0.0,0.0,0.0,0.0,0.0,0.0,0.0,0.0,0.0,0.0,0.0,0.0,0.0,0.0,0.0,0.0,0.0,0.0,0.0,0.0,0.0,0.0,0.0,0.0,0.0,0.0,0.0,0.0,0.0,0.0,0.0,0.0,0.0,0.0,0.0,0.0,0.0,0.0,0.0,0.0,0.0,0.0,0.0,0.0,0.0,0.0,0.0,0.0,0.0,0.0,0.0,0.0,0.0,0.0,0.0,0.0,0.0,0.0,0.0,0.0,0.0,0.0,0.0,0.0,0.0,0.0,0.0,0.0,0.0,0.0,0.0,0.0,0.0,0.0,0.0,0.0,0.0,0.0,0.0,0.0,0.0,0.0,0.0,0.0,0.0,0.0,0.0,0.0,0.0,0.0,0.0,0.0,0.0,0.0,0.0,0.0,0.0,0.0,0.0,0.0,0.0,0.0,0.0,0.0,0.0,0.0,0.0,0.0,0.0,0.0,0.0,0.0,0.0,0.0,0.0,0.0,0.0,0.0,0.0,0.0,0.0,0.0,0.0,0.0,0.0,0.0,0.0,0.0,0.0,0.0,0.0,0.0,0.0,0.0,0.0,0.0,0.0,0.0,0.0,0.0,0.0,0.0,0.0,0.0,0.0,0.0,0.0,0.0,0.0,0.0,0.0,0.0,0.0,0.0,0.0,0.0,0.0,0.0,0.0,0.0,0.0,0.0,0.0,0.0,0.0,0.0,0.0,0.0,0.0,0.0,0.0,0.0,0.0,0.0,0.0,0.0,0.0,0.0,0.0,0.0,0.0,0.0,0.0,0.0,0.0,0.0,0.0,0.0,0.0,0.0,0.0,0.0,0.0,0.0,0.0,0.0,0.0,0.0,0.0,0.0,0.0,0.0,0.0,0.0,0.0,0.0,0.0,0.0,0.0,0.0,0.0,0.0,0.0,0.0,0.0,0.0,0.0,0.0,0.0,0.0,0.0,0.0,0.0,0.0,0.0,0.0,0.0,0.0,0.0,0.0,0.0,0.0,0.0,0.0,0.0,0.0,0.0,0.0,0.0,0.0,0.0,0.0,0.0,0.0,0.0,0.0,0.0,0.0,0.0,0.0,0.0,0.0,0.0,0.0,0.0,0.0,0.0,0.0,0.0,0.0,0.0,0.0,0.0,0.0,0.0,0.0,0.0,0.0,0.0,0.0,0.0,0.0,0.0,0.0,0.0,0.0,0.0,0.0,0.0,0.0,0.0,0.0,0.0,0.0,0.0,0.0,0.0,0.0,0.0,0.0,0.0,0.0,0.0,0.0,0.0,0.0,0.0,0.0,0.0,0.0,0.0,0.0,0.0,0.0,0.0,0.0,0.0,0.0,0.0,0.0,0.0,0.0,0.0,0.0,0.0,0.0,0.0,0.0,0.0,0.0,0.0,0.0,0.0,0.0,0.0,0.0,0.0,0.0,0.0,0.0,0.0,0.0,0.0,0.0,0.0,0.0,0.0,0.0,0.0,0.0,0.0,0.0,0.0,0.0,0.0,0.0,0.0,0.0,0.0,0.0,0.0,0.0,0.0,0.0,0.0,0.0,0.0,0.0,0.0,0.0,0.0,0.0,0.0,0.0,0.0,0.0,0.0,0.0,0.0,0.0,0.0,0.0,0.0,0.0,0.0,0.0,0.0,0.0,0.0,0.0,0.0,0.0,0.0,0.0,0.0,0.0,0.0,0.0,0.0,0.0,0.0,0.0,0.0,0.0,0.0,0.0,0.0,0.0,0.0,0.0,0.0,0.0,0.0,0.0,0.0,0.0,0.0,0.0,0.0,0.0,0.0,0.0,0.0,0.0,0.0,0.0,0.0,0.0,0.0,0.0,0.0,0.0,0.0,0.0,0.0,0.0,0.0,0.0,0.0,0.0,0.0,0.0,0.0,0.0,0.0,0.0,0.0,0.0,0.0,0.0,0.0,0.0,0.0,0.0,0.0,0.0,0.0,0.0,0.0,0.0,0.0,0.0,0.0,0.0,0.0,0.0,0.0,0.0,0.0,0.0,0.0,0.0,0.0,0.0,0.0,0.0,0.0,0.0,0.0,0.0,0.0,0.0,0.0,0.0,0.0,0.0,0.0,0.0,0.0,0.0,0.0,0.0,0.0,0.0,0.0,0.0,0.0,0.0,0.0,0.0,0.0,0.0,0.0,0.0,0.0,0.0,0.0,0.0,0.0,0.0,0.0,0.0,0.0,0.0,0.0,0.0,0.0,0.0,0.0,0.0,0.0,0.0,0.0,0.0,0.0,0.0,0.0,0.0,0.0,0.0,0.0,0.0,0.0,0.0,0.0,0.0,0.0,0.0,0.0,0.0,0.0,0.0,0.0,0.0,0.0,0.0,0.0,0.0,0.0,0.0,0.0,0.0,0.0,0.0,0.0,0.0,0.0,0.0,0.0,0.0,0.0,0.0,0.0,0.0,0.0,0.0,0.0,0.0,0.0,0.0,0.0,0.0,0.0,0.0,0.0,0.0,0.0,0.0,0.0,0.0,0.0,0.0,0.0,0.0,0.0,0.0,0.0,0.0,0.0,0.0,0.0,0.0,0.0,0.0,0.0,0.0,0.0,0.0,0.0,0.0,0.0,0.0,0.0,0.0,0.0,0.0,0.0,0.0,0.0,0.0,0.0,0.0,0.0,0.0,0.0,0.0,0.0,0.0,-1.162,0.0,0.0,0.0,0.0,0.0,0.0,0.0,0.0,0.0,0.0,0.0,0.0,0.0,0.0,0.0,0.0,0.0,0.0,0.0,0.0,0.0,0.0,0.0,0.0,0.0,0.0,0.0,0.0,0.0,0.0,0.0,0.0,0.0,0.0,0.0,0.0,0.0,0.0,0.0,0.0,0.0,0.0,0.0,0.0,0.0,0.0,0.0,0.0,0.0,0.0,0.0,0.0,0.0,0.0,0.0,0.0,0.0,0.0,0.0,0.0,0.0,0.0,0.0,0.0,0.0,0.0,0.0,0.0,0.0,0.0,0.0,0.0,0.0,0.0,0.0,0.0,0.0,0.0,0.0,0.0,0.0,0.0,0.0,0.0,0.0,0.0,0.0,0.0,0.0,0.0,0.0,0.0,0.0,0.0,0.0,0.0,0.0,0.0,0.0,0.0,0.0,0.0,0.0,0.0,0.0,0.0,0.0,0.0,0.0,0.0,-1.2652,-1.27,-1.2541,-1.2411,-1.2368,0.0,0.0,0.0,0.0,0.0,0.0,0.0,0.0,0.0,0.0,0.0,0.0,0.0,0.0,0.0,0.0,0.0,0.0,0.0,0.0,0.0,0.0,0.0,0.0,0.0,0.0,0.0,0.0,0.0,0.0,0.0,0.0,0.0,0.0,0.0,0.0,0.0,0.0,0.0,0.0,0.0,0.0,0.0,0.0,0.0,0.0,0.0,0.0,0.0,0.0,0.0,0.0,0.0,0.0,0.0,0.0,0.0,0.0,0.0,0.0,0.0,0.0,0.0,0.0,0.0,0.0,0.0,0.0,0.0,0.0,0.0,0.0,0.0,0.0,0.0,0.0,0.0,0.0,0.0,0.0,0.0,0.0,0.0,0.0,0.0,0.0,0.0,0.0,0.0,0.0,0.0,0.0,0.0,0.0,0.0,0.0,0.0,0.0,0.0,0.0,0.0,0.0,0.0,0.0,0.0,0.0,0.0,0.0,0.0,0.0,0.0,0.0,-1.2958,-1.3017,-1.3104,0.0,0.0,0.0,0.0,0.0,0.0,0.0,0.0,0.0,0.0,0.0,0.0,0.0,0.0,0.0,0.0,0.0,0.0,0.0,0.0,0.0,0.0,0.0,0.0,0.0,0.0,0.0,0.0,0.0,0.0,0.0,0.0,0.0,0.0,0.0,0.0,0.0,0.0,0.0,0.0,0.0,0.0,0.0,0.0,0.0,0.0,0.0,0.0,0.0,0.0,0.0,0.0,0.0,0.0,0.0,0.0,0.0,0.0,0.0,0.0,0.0,0.0,0.0,0.0,0.0,0.0,0.0,0.0,0.0,0.0,0.0,0.0,0.0,0.0,0.0,0.0,0.0,0.0,0.0,0.0,0.0,0.0,0.0,0.0,0.0,0.0,0.0,0.0,0.0,0.0,0.0,0.0,0.0,0.0,0.0,0.0,0.0,0.0,0.0,0.0,0.0,0.0,0.0,0.0,0.0,0.0,0.0,0.0,0.0,0.0,-1.317,-1.317,-1.317,0.0,-1.3184,0.0,0.0,0.0,0.0,0.0,0.0,0.0,0.0,0.0,0.0,0.0,0.0,0.0,0.0,0.0,0.0,0.0,0.0,0.0,0.0,0.0,0.0,0.0,0.0,0.0,0.0,0.0,0.0,0.0,0.0,0.0,0.0,0.0,0.0,0.0,0.0,0.0,0.0,0.0,0.0,0.0,0.0,0.0,0.0,0.0,0.0,0.0,0.0,0.0,0.0,0.0,0.0,0.0,0.0,0.0,0.0,0.0,0.0,0.0,0.0,0.0,0.0,0.0,0.0,0.0,0.0,0.0,0.0,0.0,0.0,0.0,0.0,0.0,0.0,0.0,0.0,0.0,0.0,0.0,0.0,0.0,0.0,0.0,0.0,0.0,0.0,0.0,0.0,0.0,0.0,0.0,0.0,0.0,0.0,0.0,0.0,0.0,0.0,0.0,0.0,0.0,0.0,0.0,0.0,0.0,0.0,0.0,0.0,0.0,0.0,-1.3443,-1.3433,-1.3515,-1.3549,0.0,0.0,0.0,0.0,0.0,0.0,0.0,0.0,0.0,0.0,0.0,0.0,0.0,0.0,0.0,0.0,0.0,0.0,0.0,0.0,0.0,0.0,0.0,0.0,0.0,0.0,0.0,0.0,0.0,0.0,0.0,0.0,0.0,0.0,0.0,0.0,0.0,0.0,0.0,0.0,0.0,0.0,0.0,0.0,0.0,0.0,0.0,0.0,0.0,0.0,0.0,0.0,0.0,0.0,0.0,0.0,0.0,0.0,0.0,0.0,0.0,0.0,0.0,0.0,0.0,0.0,0.0,0.0,0.0,0.0,0.0,0.0,0.0,0.0,0.0,0.0,0.0,0.0,0.0,0.0,0.0,0.0,0.0,0.0,0.0,0.0,0.0,0.0,0.0,0.0,0.0,0.0,0.0,0.0,0.0,0.0,0.0,0.0,0.0,0.0,0.0,0.0,0.0,0.0,0.0,0.0,0.0,0.0,0.0,0.0,-1.3716,-1.3739,-1.3776,-1.3858,-1.3905,-1.3928,0.0,0.0,0.0,0.0,0.0,0.0,0.0,0.0,0.0,0.0,0.0,0.0,0.0,0.0,0.0,0.0,0.0,0.0,0.0,0.0,0.0,0.0,0.0,0.0,0.0,0.0,0.0,0.0,0.0,0.0,0.0,0.0,0.0,0.0,0.0,0.0,0.0,0.0,0.0,0.0,0.0,0.0,0.0,0.0,0.0,0.0,0.0,0.0,0.0,0.0,0.0,0.0,0.0,0.0,0.0,0.0,0.0,0.0,0.0,0.0,0.0,0.0,0.0,0.0,0.0,0.0,0.0,0.0,0.0,0.0,0.0,0.0,0.0,0.0,0.0,0.0,0.0,0.0,0.0,0.0,0.0,0.0,0.0,0.0,0.0,0.0,0.0,0.0,0.0,0.0,0.0,0.0,0.0,0.0,0.0,0.0,0.0,0.0,0.0,0.0,0.0,0.0,0.0,0.0,0.0,0.0,0.0,0.0,-1.3962,-1.3986,-1.4057,-1.4176,-1.4186,-1.4176,0.0,0.0,0.0,0.0,0.0,0.0,0.0,0.0,0.0,0.0,0.0,0.0,0.0,0.0,0.0,0.0,0.0,0.0,0.0,0.0,0.0,0.0,0.0,0.0,0.0,0.0,0.0,0.0,0.0,0.0,0.0,0.0,0.0,0.0,0.0,0.0,0.0,0.0,0.0,0.0,0.0,0.0,0.0,0.0,0.0,0.0,0.0,0.0,0.0,0.0,0.0,0.0,0.0,0.0,0.0,0.0,0.0,0.0,0.0,0.0,0.0,0.0,0.0,0.0,0.0,0.0,0.0,0.0,0.0,0.0,0.0,0.0,0.0,0.0,0.0,0.0,0.0,0.0,0.0,0.0,0.0,0.0,0.0,0.0,0.0,0.0,0.0,0.0,0.0,0.0,0.0,0.0,0.0,0.0,0.0,0.0,0.0,0.0,0.0,0.0,0.0,0.0,0.0,0.0,0.0,0.0,0.0,0.0,0.0,-1.4372,-1.4465,-1.4546,-1.464,-1.4605,-1.4593,0.0,0.0,0.0,0.0,0.0,0.0,0.0,0.0,0.0,0.0,0.0,0.0,0.0,0.0,0.0,0.0,0.0,0.0,0.0,0.0,0.0,0.0,0.0,0.0,0.0,0.0,0.0,0.0,0.0,0.0,0.0,0.0,0.0,0.0,0.0,0.0,0.0,0.0,0.0,0.0,0.0,0.0,0.0,0.0,0.0,0.0,0.0,0.0,0.0,0.0,0.0,0.0,0.0,0.0,0.0,0.0,0.0,0.0,0.0,0.0,0.0,0.0,0.0,0.0,0.0,0.0,0.0,0.0,0.0,0.0,0.0,0.0,0.0,0.0,0.0,0.0,0.0,0.0,0.0,0.0,0.0,0.0,0.0,0.0,0.0,0.0,0.0,0.0,0.0,0.0,0.0,0.0,0.0,0.0,0.0,0.0,0.0,0.0,0.0,0.0,0.0,0.0,0.0,0.0,0.0,0.0,0.0,0.0,0.0,-1.5283,0.0,-1.5461,-1.5543,-1.5566,-1.5531,0.0,0.0,0.0,0.0,0.0,0.0,0.0,0.0,0.0,0.0,0.0,0.0,0.0,0.0,0.0,0.0,0.0,0.0,0.0,0.0,0.0,0.0,0.0,0.0,0.0,0.0,0.0,0.0,0.0,0.0,0.0,0.0,0.0,0.0,0.0,0.0,0.0,0.0,0.0,0.0,0.0,0.0,0.0,0.0,0.0,0.0,0.0,0.0,0.0,0.0,0.0,0.0,0.0,0.0,0.0,0.0,0.0,0.0,0.0,0.0,0.0,0.0,0.0,0.0,0.0,0.0,0.0,0.0,0.0,0.0,0.0,0.0,0.0,0.0,0.0,0.0,0.0,0.0,0.0,0.0,0.0,0.0,0.0,0.0,0.0,0.0,0.0,0.0,0.0,0.0,0.0,0.0,0.0,0.0,0.0,0.0,0.0,0.0,0.0,0.0,0.0,0.0,0.0,0.0,0.0,0.0,0.0,0.0,-1.6564,-1.67,-1.6688,-1.6703,-1.6897,-1.6973,-1.7009,0.0,0.0,0.0,0.0,0.0,0.0,0.0,0.0,0.0,0.0,0.0,0.0,0.0,0.0,0.0,0.0,0.0,0.0,0.0,0.0,0.0,0.0,0.0,0.0,0.0,0.0,0.0,0.0,0.0,0.0,0.0,0.0,0.0,0.0,0.0,0.0,0.0,0.0,0.0,0.0,0.0,0.0,0.0,0.0,0.0,0.0,0.0,0.0,0.0,0.0,0.0,0.0,0.0,0.0,0.0,0.0,0.0,0.0,0.0,0.0,0.0,0.0,0.0,0.0,0.0,0.0,0.0,0.0,0.0,0.0,0.0,0.0,0.0,0.0,0.0,0.0,0.0,0.0,0.0,0.0,0.0,0.0,0.0,0.0,0.0,0.0,0.0,0.0,0.0,0.0,0.0,0.0,0.0,0.0,0.0,0.0,0.0,0.0,0.0,0.0,0.0,0.0,0.0,0.0,0.0,0.0,0.0,0.0,0.0,-1.7069,-1.6995,-1.6995,-1.7107,-1.7192,-1.7253,0.0,0.0,0.0,0.0,0.0,0.0,0.0,0.0,0.0,0.0,0.0,0.0,0.0,0.0,0.0,0.0,0.0,0.0,0.0,0.0,0.0,0.0,0.0,0.0,0.0,0.0,0.0,0.0,0.0,0.0,0.0,0.0,0.0,0.0,0.0,0.0,0.0,0.0,0.0,0.0,0.0,0.0,0.0,0.0,0.0,0.0,0.0,0.0,0.0,0.0,0.0,0.0,0.0,0.0,0.0,0.0,0.0,0.0,0.0,0.0,0.0,0.0,0.0,0.0,0.0,0.0,0.0,0.0,0.0,0.0,0.0,0.0,0.0,0.0,0.0,0.0,0.0,0.0,0.0,0.0,0.0,0.0,0.0,0.0,0.0,0.0,0.0,0.0,0.0,0.0,0.0,0.0,0.0,0.0,0.0,0.0,0.0,0.0,0.0,0.0,0.0,0.0,0.0,0.0,0.0,0.0,0.0,0.0,0.0,-1.9286,-1.8754,-1.8646,-1.8933,-1.8724,-1.8487,-1.8213,0.0,0.0,0.0,0.0,0.0,0.0,0.0,0.0,0.0,0.0,0.0,0.0,0.0,0.0,0.0,0.0,0.0,0.0,0.0,0.0,0.0,0.0,0.0,0.0,0.0,0.0,0.0,0.0,0.0,0.0,0.0,0.0,0.0,0.0,0.0,0.0,0.0,0.0,0.0,0.0,0.0,0.0,0.0,0.0,0.0,0.0,0.0,0.0,0.0,0.0,0.0,0.0,0.0,0.0,0.0,0.0,0.0,0.0,0.0,0.0,0.0,0.0,0.0,0.0,0.0,0.0,0.0,0.0,0.0,0.0,0.0,0.0,0.0,0.0,0.0,0.0,0.0,0.0,0.0,0.0,0.0,0.0,0.0,0.0,0.0,0.0,0.0,0.0,0.0,0.0,0.0,0.0,0.0,0.0,0.0,0.0,0.0,0.0,0.0,0.0,0.0,0.0,0.0,0.0,0.0,0.0,0.0,0.0,-2.2856,-2.1699,-2.1365,-2.1938,-2.1235,-2.0517,0.0,0.0,0.0,0.0,0.0,0.0,0.0,0.0,0.0,0.0,0.0,0.0,0.0,0.0,0.0,0.0,0.0,0.0,0.0,0.0,0.0,0.0,0.0,0.0,0.0,0.0,0.0,0.0,0.0,0.0,0.0,0.0,0.0,0.0,0.0,0.0,0.0,0.0,0.0,0.0,0.0,0.0,0.0,0.0,0.0,0.0,0.0,0.0,0.0,0.0,0.0,0.0,0.0,0.0,0.0,0.0,0.0,0.0,0.0,0.0,0.0,0.0,0.0,0.0,0.0,0.0,0.0,0.0,0.0,0.0,0.0,0.0,0.0,0.0,0.0,0.0,0.0,0.0,0.0,0.0,0.0,0.0,0.0,0.0,0.0,0.0,0.0,0.0,0.0,0.0,0.0,0.0,0.0,0.0,0.0,0.0,0.0,0.0,0.0,0.0,0.0,0.0,0.0,0.0,0.0,0.0,0.0,0.0,0.0,-2.4766,-2.4801,-2.427,-2.3195,-2.2332,-2.164,0.0,0.0,0.0,0.0,0.0,0.0,0.0,0.0,0.0,0.0,0.0,0.0,0.0,0.0,0.0,0.0,0.0,0.0,0.0,0.0,0.0,0.0,0.0,0.0,0.0,0.0,0.0,0.0,0.0,0.0,0.0,0.0,0.0,0.0,0.0,0.0,0.0,0.0,0.0,0.0,0.0,0.0,0.0,0.0,0.0,0.0,0.0,0.0,0.0,0.0,0.0,0.0,0.0,0.0,0.0,0.0,0.0,0.0,0.0,0.0,0.0,0.0,0.0,0.0,0.0,0.0,0.0,0.0,0.0,0.0,0.0,0.0,0.0,0.0,0.0,0.0,0.0,0.0,0.0,0.0,0.0,0.0,0.0,0.0,0.0,0.0,0.0,0.0,0.0,0.0,0.0,0.0,0.0,0.0,0.0,0.0,0.0,0.0,0.0,0.0,0.0,0.0,0.0,0.0,0.0,0.0,0.0,0.0,-2.4931,-2.6051,-2.7147,-2.7128,-2.585,-2.4166,-2.2987,0.0,0.0,0.0,0.0,0.0,0.0,0.0,0.0,0.0,0.0,0.0,0.0,0.0,0.0,0.0,0.0,0.0,0.0,0.0,0.0,0.0,0.0,0.0,0.0,0.0,0.0,0.0,0.0,0.0,0.0,0.0,0.0,0.0,0.0,0.0,0.0,0.0,0.0,0.0,0.0,0.0,0.0,0.0,0.0,0.0,0.0,0.0,0.0,0.0,0.0,0.0,0.0,0.0,0.0,0.0,0.0,0.0,0.0,0.0,0.0,0.0,0.0,0.0,0.0,0.0,0.0,0.0,0.0,0.0,0.0,0.0,0.0,0.0,0.0,0.0,0.0,0.0,0.0,0.0,0.0,0.0,0.0,0.0,0.0,0.0,0.0,0.0,0.0,0.0,0.0,0.0,0.0,0.0,0.0,0.0,0.0,0.0,0.0,0.0,0.0,0.0,0.0,0.0,0.0,0.0,0.0,0.0,0.0,-2.6674,-2.6917,-2.8848,-2.9617,-2.9001,-2.6258,-2.4444,0.0,0.0,0.0,0.0,0.0,0.0,0.0,0.0,0.0,0.0,0.0,0.0,0.0,0.0,0.0,0.0,0.0,0.0,0.0,0.0,0.0,0.0,0.0,0.0,0.0,0.0,0.0,0.0,0.0,0.0,0.0,0.0,0.0,0.0,0.0,0.0,0.0,0.0,0.0,0.0,0.0,0.0,0.0,0.0,0.0,0.0,0.0,0.0,0.0,0.0,0.0,0.0,0.0,0.0,0.0,0.0,0.0,0.0,0.0,0.0,0.0,0.0,0.0,0.0,0.0,0.0,0.0,0.0,0.0,0.0,0.0,0.0,0.0,0.0,0.0,0.0,0.0,0.0,0.0,0.0,0.0,0.0,0.0,0.0,0.0,0.0,0.0,0.0,0.0,0.0,0.0,0.0,0.0,0.0,0.0,0.0,0.0,0.0,0.0,0.0,0.0,0.0,0.0,0.0,0.0,0.0,0.0,0.0,-2.7443,-2.826,-2.9602,-3.0203,-3.0062,-2.7287,-2.5485,0.0,0.0,0.0,0.0,0.0,0.0,0.0,0.0,0.0,0.0,0.0,0.0,0.0,0.0,0.0,0.0,0.0,0.0,0.0,0.0,0.0,0.0,0.0,0.0,0.0,0.0,0.0,0.0,0.0,0.0,0.0,0.0,0.0,0.0,0.0,0.0,0.0,0.0,0.0,0.0,0.0,0.0,0.0,0.0,0.0,0.0,0.0,0.0,-2.6294,0.0,0.0,0.0,0.0,0.0,0.0,0.0,0.0,0.0,0.0,0.0,0.0,0.0,0.0,0.0,0.0,0.0,0.0,0.0,0.0,0.0,0.0,0.0,0.0,0.0,0.0,0.0,0.0,0.0,0.0,0.0,0.0,0.0,0.0,0.0,0.0,0.0,0.0,0.0,0.0,0.0,0.0,0.0,0.0,0.0,0.0,0.0,0.0,0.0,0.0,0.0,0.0,0.0,0.0,0.0,0.0,0.0,0.0,0.0,-2.845,-2.922,-3.0509,-3.1202,-3.1099,-2.9006,-2.7297,0.0,0.0,0.0,0.0,0.0,0.0,0.0,0.0,0.0,0.0,0.0,0.0,0.0,0.0,0.0,0.0,0.0,0.0,0.0,0.0,0.0,0.0,0.0,0.0,0.0,0.0,0.0,0.0,0.0,0.0,0.0,0.0,0.0,0.0,0.0,0.0,0.0,0.0,0.0,0.0,0.0,0.0,0.0,0.0,0.0,0.0,0.0,0.0,0.0,0.0,0.0,0.0,0.0,0.0,0.0,0.0,0.0,0.0,0.0,0.0,0.0,0.0,0.0,0.0,0.0,0.0,0.0,0.0,0.0,0.0,0.0,0.0,0.0,0.0,0.0,0.0,0.0,0.0,0.0,0.0,0.0,0.0,0.0,0.0,0.0,0.0,0.0,0.0,0.0,0.0,0.0,0.0,0.0,0.0,0.0,0.0,0.0,0.0,0.0,0.0,0.0,0.0,0.0,0.0,0.0,0.0,0.0,-2.8464,-2.9434,-3.0127,-3.1461,-3.2195,-3.2169,-3.0788,-2.9243,-2.7621,0.0,0.0,0.0,0.0,0.0,0.0,0.0,0.0,0.0,0.0,0.0,0.0,0.0,0.0,0.0,0.0,0.0,0.0,0.0,0.0,0.0,0.0,0.0,0.0,0.0,0.0,0.0,0.0,0.0,0.0,0.0,0.0,0.0,0.0,0.0,0.0,0.0,0.0,-2.3746,-2.4045,0.0,0.0,0.0,0.0,0.0,0.0,0.0,0.0,-2.754,0.0,0.0,0.0,0.0,0.0,0.0,0.0,0.0,0.0,0.0,0.0,0.0,0.0,0.0,0.0,0.0,0.0,0.0,0.0,0.0,0.0,0.0,0.0,0.0,0.0,0.0,0.0,0.0,0.0,0.0,0.0,0.0,0.0,0.0,0.0,0.0,0.0,0.0,0.0,0.0,0.0,0.0,0.0,0.0,0.0,0.0,0.0,0.0,0.0,0.0,0.0,0.0,0.0,0.0,0.0,0.0,-2.8403,-2.9231,-3.026,-3.1446,-3.2215,-3.2606,-3.2567,-3.1559,-3.0388,-2.9153,0.0,0.0,0.0,0.0,0.0,0.0,0.0,0.0,0.0,0.0,0.0,0.0,0.0,0.0,0.0,0.0,0.0,0.0,0.0,0.0,0.0,0.0,0.0,0.0,0.0,0.0,0.0,0.0,0.0,0.0,0.0,0.0,0.0,0.0,0.0,0.0,0.0,0.0,0.0,-2.4846,-2.5138,0.0,0.0,0.0,0.0,0.0,0.0,0.0,0.0,-2.8773,0.0,0.0,0.0,0.0,0.0,0.0,0.0,0.0,0.0,0.0,0.0,0.0,0.0,0.0,0.0,0.0,0.0,0.0,0.0,0.0,0.0,0.0,0.0,0.0,0.0,0.0,0.0,0.0,0.0,0.0,0.0,0.0,0.0,0.0,0.0,0.0,0.0,0.0,0.0,0.0,0.0,0.0,0.0,0.0,0.0,0.0,0.0,0.0,0.0,0.0,0.0,0.0,0.0,0.0,0.0,-2.9345,-3.0148,-3.0935,-3.1771,-3.2398,-3.2672,-3.2659,-3.1841,-3.0997,0.0,0.0,0.0,0.0,0.0,0.0,0.0,0.0,0.0,0.0,0.0,0.0,0.0,0.0,0.0,0.0,0.0,0.0,0.0,0.0,0.0,0.0,0.0,0.0,0.0,0.0,0.0,0.0,0.0,0.0,0.0,0.0,0.0,0.0,0.0,0.0,0.0,0.0,0.0,0.0,-2.605,-2.6416,-2.7703,0.0,0.0,0.0,0.0,0.0,0.0,-2.9945,-2.993,0.0,0.0,0.0,0.0,0.0,0.0,0.0,0.0,0.0,0.0,0.0,0.0,0.0,0.0,0.0,0.0,0.0,0.0,0.0,0.0,0.0,0.0,0.0,0.0,0.0,0.0,0.0,0.0,0.0,0.0,0.0,0.0,0.0,0.0,0.0,0.0,0.0,0.0,0.0,0.0,0.0,0.0,0.0,0.0,0.0,0.0,0.0,0.0,0.0,0.0,0.0,0.0,0.0,0.0,0.0,-3.0368,-3.1146,-3.1767,-3.2137,-3.2751,-3.3038,-3.3012,-3.2112,-3.1452,0.0,0.0,0.0,0.0,0.0,0.0,0.0,0.0,0.0,0.0,0.0,0.0,0.0,0.0,0.0,0.0,0.0,0.0,0.0,0.0,0.0,0.0,0.0,0.0,0.0,0.0,0.0,0.0,0.0,0.0,0.0,0.0,0.0,0.0,0.0,0.0,0.0,0.0,0.0,0.0,0.0,-2.7718,-2.8614,-2.8327,0.0,0.0,0.0,0.0,-3.081,-3.0896,0.0,0.0,0.0,0.0,0.0,0.0,0.0,0.0,0.0,0.0,0.0,0.0,0.0,0.0,0.0,0.0,0.0,0.0,0.0,0.0,0.0,0.0,0.0,0.0,0.0,0.0,0.0,0.0,0.0,0.0,0.0,0.0,0.0,0.0,0.0,0.0,0.0,0.0,0.0,0.0,0.0,0.0,0.0,0.0,0.0,0.0,0.0,0.0,0.0,0.0,0.0,0.0,0.0,0.0,0.0,0.0,-3.1535,-3.2389,-3.3001,-3.3378,-3.3914,-3.4201,-3.4175,-3.2739,-3.1873,0.0,0.0,0.0,0.0,0.0,0.0,0.0,0.0,0.0,0.0,0.0,0.0,0.0,0.0,0.0,0.0,0.0,0.0,0.0,0.0,0.0,0.0,0.0,0.0,0.0,0.0,0.0,0.0,0.0,0.0,0.0,0.0,0.0,0.0,0.0,0.0,0.0,0.0,0.0,0.0,0.0,-2.8471,-2.8825,-2.8948,-2.9251,0.0,0.0,-3.0712,-3.1766,-3.2034,0.0,0.0,0.0,0.0,0.0,0.0,0.0,0.0,0.0,0.0,0.0,0.0,0.0,0.0,0.0,0.0,0.0,0.0,0.0,0.0,0.0,0.0,0.0,0.0,0.0,0.0,0.0,0.0,0.0,0.0,0.0,0.0,0.0,0.0,0.0,0.0,0.0,0.0,0.0,0.0,0.0,0.0,0.0,0.0,0.0,0.0,0.0,0.0,0.0,0.0,0.0,0.0,0.0,0.0,0.0,-3.1333,-3.2141,-3.2715,-3.3146,-3.3489,-3.3541,-3.3632,-3.3606,-3.2597,-3.2032,0.0,0.0,0.0,0.0,0.0,0.0,0.0,0.0,0.0,0.0,0.0,0.0,0.0,0.0,0.0,0.0,0.0,0.0,0.0,0.0,0.0,0.0,0.0,0.0,0.0,0.0,0.0,0.0,0.0,0.0,0.0,0.0,0.0,0.0,0.0,0.0,0.0,0.0,0.0,0.0,0.0,0.0,-2.9526,-2.995,0.0,0.0,0.0,-3.1738,-3.2703,0.0,0.0,0.0,0.0,0.0,0.0,0.0,0.0,0.0,0.0,0.0,0.0,0.0,0.0,0.0,0.0,0.0,0.0,0.0,0.0,0.0,0.0,0.0,0.0,0.0,0.0,0.0,0.0,0.0,0.0,0.0,0.0,0.0,0.0,0.0,0.0,0.0,0.0,0.0,0.0,0.0,0.0,0.0,0.0,0.0,0.0,0.0,0.0,0.0,0.0,0.0,0.0,0.0,0.0,0.0,0.0,0.0,-3.2933,-3.3334,-3.3635,-3.3806,-3.3556,-3.3423,-3.341,-3.2747,0.0,0.0,0.0,0.0,0.0,0.0,0.0,0.0,0.0,0.0,0.0,0.0,0.0,0.0,0.0,0.0,0.0,0.0,0.0,0.0,0.0,0.0,0.0,0.0,0.0,0.0,0.0,-2.425,0.0,0.0,0.0,0.0,0.0,0.0,0.0,0.0,0.0,0.0,0.0,0.0,0.0,0.0,-3.0105,-3.0305,-3.0804,-3.1322,0.0,0.0,-3.2736,-3.3646,-3.4239,-3.4431,0.0,0.0,0.0,0.0,0.0,0.0,0.0,0.0,0.0,0.0,0.0,0.0,0.0,0.0,0.0,0.0,0.0,0.0,0.0,0.0,0.0,0.0,0.0,0.0,0.0,0.0,0.0,0.0,0.0,0.0,0.0,0.0,0.0,0.0,0.0,0.0,0.0,0.0,0.0,0.0,0.0,0.0,0.0,0.0,0.0,0.0,0.0,0.0,0.0,0.0,0.0,0.0,0.0,0.0,0.0,-3.4331,-3.4766,-3.4952,-3.4952,-3.4774,-3.4678,-3.4665,-3.3648,-3.303,0.0,0.0,0.0,0.0,0.0,0.0,0.0,0.0,0.0,0.0,0.0,0.0,0.0,0.0,0.0,0.0,0.0,0.0,0.0,0.0,0.0,0.0,0.0,0.0,0.0,0.0,0.0,0.0,0.0,0.0,0.0,0.0,0.0,0.0,0.0,0.0,0.0,0.0,0.0,0.0,0.0,-3.1558,-3.1102,-3.139,-3.1824,0.0,0.0,-3.3679,-3.4638,-3.5258,-3.5507,-3.5216,0.0,0.0,0.0,0.0,0.0,0.0,0.0,0.0,0.0,0.0,0.0,0.0,0.0,0.0,0.0,0.0,0.0,0.0,0.0,0.0,0.0,0.0,0.0,0.0,0.0,0.0,0.0,0.0,0.0,0.0,0.0,0.0,0.0,0.0,0.0,0.0,0.0,0.0,0.0,0.0,0.0,0.0,0.0,0.0,0.0,0.0,0.0,0.0,0.0,0.0,0.0,0.0,0.0,-3.4306,-3.4667,-3.5073,-3.5358,-3.544,-3.529,-3.5154,-3.5154,-3.4513,-3.4074,0.0,0.0,0.0,0.0,0.0,0.0,0.0,0.0,0.0,0.0,0.0,0.0,0.0,0.0,0.0,0.0,0.0,0.0,0.0,0.0,0.0,0.0,0.0,0.0,0.0,0.0,0.0,0.0,-2.6973,-2.7343,-2.7866,0.0,0.0,0.0,0.0,0.0,0.0,0.0,0.0,0.0,0.0,-3.2122,-3.1857,-3.2778,0.0,0.0,-3.4228,-3.5007,-3.5608,-3.6152,-3.6459,-3.6251,-3.6334,0.0,0.0,0.0,0.0,0.0,0.0,0.0,0.0,0.0,0.0,0.0,0.0,0.0,0.0,0.0,0.0,0.0,0.0,0.0,0.0,0.0,0.0,0.0,0.0,0.0,0.0,0.0,0.0,0.0,0.0,0.0,0.0,0.0,0.0,0.0,0.0,0.0,0.0,0.0,0.0,0.0,0.0,0.0,0.0,0.0,0.0,0.0,0.0,0.0,0.0,0.0,0.0,-3.5006,-3.5157,-3.5353,-3.5548,-3.571,-3.5521,-3.5399,-3.5386,-3.5076,-3.4775,0.0,0.0,0.0,0.0,0.0,0.0,0.0,0.0,0.0,0.0,0.0,0.0,0.0,0.0,0.0,0.0,0.0,0.0,0.0,0.0,0.0,0.0,0.0,0.0,0.0,0.0,0.0,0.0,-2.8565,-2.9007,-2.9653,0.0,0.0,0.0,0.0,0.0,0.0,0.0,0.0,0.0,0.0,-3.2847,-3.2864,-3.3878,-3.4645,-3.4554,-3.5385,-3.6074,-3.6277,-3.6746,-3.7112,-3.7058,0.0,0.0,0.0,0.0,0.0,0.0,0.0,0.0,0.0,0.0,0.0,0.0,0.0,0.0,0.0,0.0,0.0,0.0,0.0,0.0,0.0,0.0,0.0,0.0,0.0,0.0,0.0,0.0,0.0,0.0,-3.0957,0.0,0.0,0.0,0.0,0.0,0.0,0.0,0.0,0.0,0.0,0.0,0.0,0.0,0.0,0.0,0.0,0.0,0.0,0.0,0.0,0.0,0.0,-3.5975,-3.5989,-3.5797,-3.5696,-3.575,-3.5521,-3.5413,-3.5413,-3.5182,-3.5023,-3.4814,0.0,0.0,0.0,0.0,0.0,0.0,0.0,0.0,0.0,0.0,0.0,0.0,0.0,0.0,0.0,0.0,0.0,0.0,0.0,0.0,0.0,0.0,0.0,0.0,0.0,0.0,-2.8726,-2.9247,-2.9711,0.0,0.0,0.0,0.0,0.0,0.0,0.0,0.0,0.0,0.0,-3.3436,-3.3923,-3.4051,-3.4493,-3.503,-3.5507,-3.6267,-3.674,-3.6659,-3.7071,-3.7462,0.0,0.0,0.0,0.0,0.0,0.0,0.0,0.0,0.0,0.0,0.0,0.0,0.0,0.0,0.0,0.0,0.0,0.0,0.0,0.0,0.0,0.0,0.0,0.0,0.0,0.0,0.0,-3.3424,-3.3209,0.0,0.0,0.0,0.0,0.0,0.0,0.0,0.0,0.0,0.0,0.0,-3.3812,-3.3984,0.0,0.0,0.0,0.0,0.0,0.0,0.0,0.0,0.0,0.0,0.0,0.0,-3.6606,-3.6609,-3.677,-3.6889,-3.6875,-3.6428,-3.6183,-3.617,-3.5751,-3.5385,-3.5194,0.0,0.0,0.0,0.0,0.0,0.0,0.0,0.0,0.0,0.0,0.0,0.0,0.0,0.0,0.0,0.0,0.0,0.0,0.0,0.0,0.0,0.0,0.0,0.0,0.0,-2.9535,0.0,0.0,0.0,0.0,0.0,0.0,0.0,0.0,0.0,0.0,0.0,-3.4076,-3.4321,-3.4894,-3.5263,-3.5108,-3.5844,-3.6461,0.0,0.0,0.0,0.0,0.0,0.0,0.0,0.0,0.0,0.0,0.0,0.0,0.0,0.0,-3.8928,-3.7844,-3.7719,-3.7814,-3.7797,0.0,0.0,0.0,0.0,0.0,0.0,0.0,0.0,0.0,0.0,0.0,0.0,0.0,0.0,-3.512,0.0,-3.4825,0.0,0.0,0.0,0.0,0.0,0.0,0.0,0.0,-3.527,-3.53,-3.5353,-3.5601,-3.5811,0.0,-3.7049,-3.7296,0.0,0.0,0.0,0.0,0.0,0.0,0.0,0.0,-3.7664,-3.7573,-3.7538,-3.7499,-3.7485,-3.7092,-3.6931,-3.6917,-3.6347,-3.5871,-3.5509,-3.5397,-3.5422,0.0,0.0,0.0,0.0,0.0,0.0,0.0,0.0,0.0,0.0,0.0,0.0,0.0,0.0,0.0,0.0,0.0,0.0,0.0,0.0,0.0,0.0,0.0,-3.1119,0.0,0.0,0.0,0.0,0.0,0.0,0.0,0.0,0.0,-3.4425,-3.4988,-3.5458,-3.5437,-3.5965,-3.623,-3.6025,0.0,0.0,0.0,0.0,0.0,0.0,0.0,-3.9156,-3.9601,-3.965,-3.9738,-4.0046,-4.0275,-4.0421,-4.0421,0.0,0.0,-3.8982,-3.8823,-3.8885,-3.8869,-3.8914,-3.8954,-3.8942,-3.9177,-3.9544,0.0,0.0,0.0,0.0,0.0,0.0,0.0,0.0,-3.7838,-3.7318,0.0,-3.6511,0.0,0.0,0.0,0.0,0.0,-3.568,0.0,0.0,-3.671,-3.7045,-3.7445,-3.7812,-3.8034,-3.8103,-3.8504,-3.8738,-3.8738,-3.8807,0.0,0.0,0.0,0.0,0.0,0.0,-3.9106,-3.8751,-3.8004,-3.7567,-3.7567,-3.754,-3.7499,-3.7458,-3.6944,-3.6347,-3.5778,-3.6166,-3.6089,-3.5468,-3.5989,0.0,0.0,0.0,0.0,0.0,0.0,0.0,0.0,0.0,0.0,0.0,0.0,0.0,0.0,0.0,0.0,0.0,0.0,0.0,0.0,-3.3427,0.0,0.0,0.0,0.0,0.0,0.0,0.0,0.0,0.0,0.0,-3.5952,-3.6352,-3.6569,-3.618,0.0,0.0,0.0,0.0,-3.8075,-3.9081,-3.9392,-3.9781,-4.0629,-4.0485,-4.0482,-4.111,0.0,0.0,-4.0975,-4.0678,-4.0458,-4.0441,-4.0777,-4.0893,-4.0492,-3.9893,-3.9505,-3.9505,-3.9625,-3.9661,-3.9722,-4.0304,-4.0857,-3.9816,0.0,0.0,0.0,0.0,-3.8491,-3.8337,-3.7739,-3.7863,-3.7576,-3.7039,-3.6795,0.0,0.0,0.0,0.0,0.0,0.0,-3.687,-3.6735,-3.6965,-3.7059,-3.7002,-3.7302,-3.7514,-3.7697,-3.8247,-3.8495,-3.8523,-3.8933,-3.9382,-3.9805,0.0,0.0,0.0,0.0,-3.9465,-3.8977,-3.8819,-3.8803,-3.879,-3.8383,-3.7933,-3.7499,-3.7309,-3.6985,-3.6375,-3.647,-3.6414,-3.6117,-3.5856,0.0,0.0,0.0,0.0,0.0,0.0,0.0,0.0,0.0,0.0,0.0,0.0,0.0,0.0,0.0,0.0,0.0,0.0,0.0,-3.3579,-3.3904,-3.4171,0.0,0.0,0.0,0.0,0.0,0.0,0.0,0.0,0.0,-3.84,-3.7774,-3.7217,0.0,0.0,-3.7693,-3.8264,-3.8288,-3.87,-3.996,-3.9984,0.0,0.0,-4.0456,-4.0441,-4.0635,-4.0811,-4.0959,-4.0975,-4.1135,-4.1246,-4.1262,-4.1357,-4.1372,-4.1262,-4.1103,-4.0944,-4.0992,-4.1024,-4.1024,-4.104,-4.1263,-4.139,-4.1028,-3.944,-3.8863,-3.8614,-3.8717,-3.9246,-3.9152,-3.863,-3.8697,-3.8417,-3.787,-3.7643,-3.7514,-3.7402,-3.7402,0.0,0.0,0.0,-3.7427,-3.7272,-3.7594,-3.7802,-3.7914,-3.8236,-3.859,-3.8935,-3.9319,-3.9481,-3.9481,-4.0103,-4.0517,-4.0674,0.0,0.0,-4.028,-4.0166,-4.0011,-3.9731,-3.9431,-3.9414,-3.9644,-3.9074,-3.8491,-3.7865,-3.7838,-3.7553,-3.6999,-3.6727,-3.6566,-3.6455,-3.6038,-3.5909,0.0,0.0,0.0,0.0,0.0,0.0,0.0,0.0,0.0,0.0,0.0,-3.3686,0.0,0.0,0.0,0.0,-3.4252,-3.439,-3.4268,-3.4689,0.0,0.0,0.0,0.0,0.0,0.0,0.0,-3.7788,-3.8515,-3.8964,-3.9188,-3.8629,-3.8259,-3.8265,-3.8434,-3.8668,-3.904,0.0,-3.9424,-4.0355,-4.0388,-4.053,-4.1023,-4.1055,-4.097,-4.0876,-4.1071,-4.1231,-4.1262,-4.145,-4.1573,-4.1588,-4.1588,-4.1588,-4.1588,-4.1588,-4.1588,-4.1588,-4.1588,-4.1588,-4.1588,-4.1588,-4.1588,-4.2014,-4.1372,-4.041,-4.001,-3.9986,-4.0073,-4.0179,-4.0287,-4.0076,-3.9621,-3.8956,-3.878,-3.8251,-3.7437,-3.7477,0.0,-3.7794,-3.7834,-3.7928,-3.8044,-3.8521,-3.9028,-3.9567,-4.0027,-4.0567,-4.111,-4.1123,-4.1123,-4.1096,-4.17,-4.2032,-4.2036,-4.0982,-4.0671,-4.11,-4.0743,-4.069,-4.0949,-4.0039,-3.9775,-4.016,-3.9644,-3.9088,-3.8505,-3.8491,-3.8163,-3.758,-3.7066,-3.67,-3.6592,-3.6468,-3.6144,-3.5537,0.0,0.0,0.0,0.0,0.0,0.0,0.0,0.0,0.0,0.0,0.0,0.0,0.0,0.0,0.0,-3.554,0.0,-3.5166,-3.5722,0.0,0.0,0.0,-3.6527,-3.7411,-3.7557,-3.7794,-3.8522,0.0,0.0,-3.895,-3.9151,-3.9466,-3.9823,-3.9774,-3.9645,-3.9328,-3.9654,-4.0122,-4.0511,-4.0752,-4.1182,-4.1819,-4.1961,-4.1959,-4.1828,-4.1746,-4.1794,-4.1827,-4.1732,-4.1699,-4.1715,-4.1636,-4.1588,-4.1588,-4.1588,-4.1588,-4.1588,-4.1588,-4.1588,-4.1588,-4.1588,-4.162,-4.3646,-4.2899,-4.2246,-4.1165,-3.9993,-4.0634,-4.0661,-4.034,-4.0491,-4.0253,-3.96,-3.8969,-3.8332,-3.7812,-3.822,-3.8405,-3.8457,-3.8929,-3.9171,-3.9194,-3.97,-3.9967,-4.0134,-4.0661,-4.0974,-4.1123,-4.1123,-4.1123,-4.1123,-4.1249,-4.1512,-4.1823,-4.1591,-4.1767,-4.2431,-4.2461,-4.2223,-4.1584,-4.1536,-4.1076,-4.0232,-4.0038,-3.9685,-3.9102,-3.9088,-3.8817,-3.819,-3.8027,-3.7555,-3.6646,-3.6593,-3.6429,-3.6158,-3.6318,0.0,0.0,0.0,0.0,0.0,0.0,0.0,0.0,0.0,-3.6777,-3.6833,0.0,-3.6198,0.0,-3.6153,-3.6084,-3.5937,-3.6402,0.0,0.0,-3.681,-3.686,-3.7649,-3.7752,-3.7952,-3.8537,-3.9219,-3.9771,-4.0078,-4.0285,-4.0399,-4.0331,-3.9751,-3.9499,-3.9973,-3.9899,-4.0126,-4.081,-4.131,-4.1647,-4.1903,-4.2441,-4.2827,-4.2978,-4.2947,-4.3013,-4.3182,-4.2774,-4.2426,-4.2394,-4.1952,-4.1636,-4.1636,-4.1588,-4.1604,-4.1588,-4.1588,-4.1588,-4.1588,-4.1604,-4.1746,-4.5158,-4.4003,-4.3568,-4.2607,-4.1485,-4.135,-4.1231,-4.1155,-4.1373,-4.1222,-4.0854,-3.9882,-3.9298,-3.9037,-3.9089,-3.9115,-3.9128,-3.9455,-3.9625,-3.9625,-3.9955,-4.0325,-4.072,-4.1113,-4.1545,-4.1896,-4.191,-4.1896,-4.1896,-4.191,-4.2038,-4.2307,-4.2307,-4.2606,-4.3178,-4.3126,-4.2984,-4.2862,-4.2695,-4.1961,-4.0667,-4.0608,-4.04,-4.0025,-4.0117,-3.9961,-3.9585,-3.9379,-3.9005,-3.8297,-3.7782,-3.7472,-3.7389,-3.7234,-3.7256,0.0,0.0,0.0,0.0,0.0,0.0,0.0,0.0,0.0,0.0,0.0,-3.6577,-3.6408,-3.6319,-3.6329,-3.6335,-3.6577,-3.6874,-3.7346,-3.704,-3.6997,-3.7533,-3.7591,-3.785,-3.8453,-3.9125,-3.9651,-3.9985,-4.042,-4.0574,-4.0316,-4.0013,-3.9924,-4.0266,-4.0207,-4.0402,-4.1171,-4.1589,-4.1965,-4.2315,-4.2794,-4.3169,-4.3361,-4.3396,-4.3481,-4.3671,-4.3421,-4.3153,-4.3121,-4.2805,-4.2537,-4.2537,-4.2537,-4.2457,-4.2157,-4.2078,-4.1952,-4.1652,-4.1841,-4.2236,-4.6382,-4.4955,-4.4546,-4.4045,-4.3491,-4.2105,-4.1821,-4.2265,-4.2278,-4.229,-4.2146,-4.101,-4.0488,-4.0383,-3.9926,-3.9703,-3.9716,-3.9795,-3.9821,-3.9821,-4.0022,-4.0574,-4.1306,-4.1595,-4.2118,-4.2887,-4.29,-4.29,-4.29,-4.29,-4.2935,-4.297,-4.297,-4.3245,-4.3687,-4.3318,-4.3531,-4.4297,-4.3554,-4.2583,-4.1338,-4.1404,-4.1293,-4.1068,-4.1235,-4.122,-4.1057,-4.0698,-4.0494,-4.0365,-3.9393,-3.8739,-3.8589,-3.8486,-3.8373,0.0,-3.8862,0.0,0.0,0.0,0.0,0.0,0.0,0.0,0.0,-3.6956,-3.6742,-3.6266,-3.6288,-3.6393,-3.6512,-3.6554,-3.6678,-3.6882,-3.6954,-3.7034,-3.7271,-3.738,-3.7763,-3.8478,-3.8958,-3.9307,-3.9595,-4.0106,-4.0401,-4.0191,-4.032,-4.0416,-4.0524,-4.0586,-4.0893,-4.1524,-4.1866,-4.2441,-4.3107,-4.3318,-4.3406,-4.3604,-4.3737,-4.3713,-4.3999,-4.3908,-4.3813,-4.3797,-4.3687,-4.3624,-4.3687,-4.3674,-4.3485,-4.2916,-4.2805,-4.26,-4.2015,-4.222,-4.2726,-4.6558,-4.6357,-4.5128,-4.4427,-4.4072,-4.3101,-4.2762,-4.2866,-4.2853,-4.2605,-4.2172,-4.1442,-4.088,-4.0422,-4.0318,-4.0265,-4.0278,-4.0775,-4.0984,-4.0997,-4.1219,-4.1567,-4.1906,-4.2226,-4.2536,-4.2887,-4.29,-4.29,-4.29,-4.29,-4.3101,-4.3471,-4.3457,-4.379,-4.4448,0.0,0.0,0.0,-4.3971,-4.3144,-4.2471,-4.297,-4.2815,-4.1832,-4.1979,0.0,-4.1254,-4.1181,-4.0923,-4.0437,-4.0194,0.0,0.0,0.0,0.0,0.0,0.0,0.0,0.0,0.0,0.0,0.0,-3.7846,-3.7774,-3.7737,-3.7364,-3.6907,-3.6347,-3.6433,-3.6547,-3.6652,-3.6795,-3.69,-3.6975,-3.7119,-3.7252,-3.7289,-3.7863,-3.8478,-3.8922,-3.9481,-3.9945,-4.0176,-4.042,-4.047,-4.0385,-4.047,-4.0489,-4.052,-4.1016,-4.1432,-4.1632,-4.2551,-4.3461,-4.4192,-4.4291,-4.4363,-4.4756,-4.4851,-4.4966,-4.5194,-4.4859,-4.4527,-4.4527,-4.405,-4.3753,-4.3737,-4.369,-4.3722,-4.3548,-4.3497,-4.3327,-4.2631,-4.26,-4.2995,-4.8205,0.0,-4.6572,-4.6062,0.0,-4.5164,-4.483,-4.467,-4.3807,-4.3441,-4.3389,-4.2827,-4.2409,-4.2095,-4.1834,-4.1703,-4.1703,-4.2017,-4.216,-4.216,-4.2313,-4.2541,-4.2944,-4.3095,-4.3372,-4.3782,-4.3782,-4.3782,-4.3782,-4.3782,-4.3917,-4.4149,-4.4149,-4.4345,-4.4671,-4.4414,-4.4333,-4.4573,-4.4073,-4.3462,-4.2855,-4.3144,-4.3041,-4.2359,-4.2559,0.0,0.0,0.0,0.0,0.0,0.0,0.0,0.0,0.0,0.0,-3.9145,-3.9588,-3.9578,-3.8891,-3.8902,-3.8695,-3.8105,-3.7873,-3.7756,-3.7739,-3.7334,-3.6973,-3.6668,-3.6821,-3.691,-3.6886,-3.7031,-3.7134,-3.7173,-3.7226,-3.738,-3.7586,-3.7967,-3.8344,-3.8649,-3.9271,-3.9717,-3.9666,-4.0211,-4.0385,-4.0296,-4.0401,-4.0643,-4.1001,-4.141,-4.1897,-4.2608,-4.3461,-4.4194,-4.4533,-4.4685,-4.4852,-4.5129,-4.5294,-4.5478,-4.5735,-4.5507,-4.5238,-4.5238,-4.497,-4.4749,-4.4733,-4.4717,-4.4622,-4.4306,-4.4176,-4.4117,-4.3753,-4.369,-4.3848,-4.965,-4.8341,-4.7958,-4.7657,-4.7393,-4.702,-4.6754,-4.6382,0.0,0.0,0.0,-4.4173,-4.3872,-4.3886,-4.3271,-4.3023,-4.3023,-4.3023,-4.3023,-4.3023,-4.3075,-4.3322,-4.3824,-4.3875,-4.4157,-4.4705,-4.4705,-4.4705,-4.4705,-4.4705,-4.4705,-4.4705,-4.4705,-4.4705,-4.4678,-4.4189,-4.4018,-4.4089,-4.401,-4.3614,-4.3067,-4.3163,-4.3115,-4.287,-4.3074,-4.3101,-4.2855,-4.255,-4.2309,-4.2167,-4.1225,-4.0514,-4.0318,-3.9877,-3.958,-3.9525,-3.9715,-3.9577,-3.8946,-3.9084,-3.8918,-3.8284,-3.8004,-3.7725,-3.7451,-3.7187,-3.6978,-3.6978,-3.7187,-3.7211,-3.707,-3.7339,-3.7497,-3.7536,-3.765,-3.7876,-3.8198,-3.8261,-3.8471,-3.8664,-3.9306,-3.9541,-3.9417,-4.0124,-4.0578,-4.0416,-4.0685,-4.1105,-4.1826,-4.218,-4.2649,-4.3768,-4.4322,-4.4579,-4.461,-4.4761,-4.4964,-4.5182,-4.5368,-4.5552,-4.5735,-4.5807,-4.5807,-4.5744,-4.5807,-4.5697,-4.5582,-4.5602,-4.5539,-4.4895,-4.4863,-4.4978,-4.4962,-4.4962,-4.4997,-4.9018,-4.891,-4.8134,-4.7643,-4.738,-4.7033,-4.6754,-4.6421,-4.5689,-4.5441,-4.5428,-4.4343,-4.3872,-4.3846,-4.3284,-4.3023,-4.3023,-4.3023,-4.3023,-4.3023,-4.3296,-4.3542,-4.381,-4.4079,-4.4425,-4.4705,-4.4719,-4.4705,-4.4705,-4.4719,-4.4705,-4.4719,-4.4705,-4.4719,-4.4705,-4.4624,-4.4579,-4.4584,-4.396,-4.36,-4.3519,-4.4134,-4.4152,-4.3592,-4.3792,-4.3659,-4.3092,-4.2992,-4.2737,-4.2224,-4.201,-4.1426,-4.0376,-4.0392,-4.0349,-3.9949,-4.0135,-4.0025,-3.9438,-3.9425,-3.9145,-3.8546,-3.8599,-3.8217,-3.6951,-3.6929,-3.6978,-3.7017,-3.7215,-3.7303,-3.7293,-3.7941,-3.841,-3.8453,-3.9014,-3.9463,-3.9485,-3.9613,-3.9833,-4.0143,-4.0439,-4.0624,-4.0792,-4.1033,-4.1286,-4.1546,-4.1711,-4.2193,-4.3278,-4.3551,-4.375,-4.4496,-4.4662,-4.461,-4.4625,-4.4761,-4.4964,-4.5182,-4.5368,-4.5536,-4.5735,-4.5807,-4.5807,-4.5807,-4.5807,-4.5586,-4.5112,-4.5396,-4.5484,-4.5116,-4.5389,-4.5778,-4.5853,-4.5904,-4.5968,-4.9771,-4.9576,-4.9151,-4.8707,-4.8283,-4.7802,-4.7503,-4.7349,-4.68,-4.6425,-4.6225,-4.5615,-4.534,-4.5247,-4.4692,-4.4441,-4.4428,-4.4441,-4.4441,-4.4428,-4.4599,-4.4744,-4.4992,-4.5148,-4.5383,-4.5655,-4.5668,-4.5655,-4.5668,-4.5668,-4.5668,-4.5668,-4.5668,-4.5505,-4.5207,-4.5193,-4.5031,-4.4691,-4.4056,-4.3725,-4.3725,-4.3698,-4.3571,-4.3247,-4.3388,-4.331,-4.3032,-4.2699,-4.2439,-4.2311,-4.1552,-4.0888,-4.0507,-4.0131,-3.9922,-3.9848,-4.0067,-4.013,-3.9967,-4.0067,-3.9873,-3.9284,-3.9311,-3.8988,-3.7982,-3.7641,-3.7484,-3.7524,-3.7799,-3.7983,-3.788,-3.8696,-3.9265,-3.9265,-3.9618,-3.9856,-3.996,-4.0025,-4.0182,-4.0354,-4.0602,-4.0873,-4.1293,-4.1505,-4.1842,-4.2368,-4.2796,-4.3468,-4.4263,-4.4355,-4.448,-4.4955,-4.483,-4.461,-4.4625,-4.4761,-4.4927,-4.5039,-4.5278,-4.5515,-4.5625,-4.5698,-4.5823,-4.5807,-4.5807,-4.5697,-4.5302,-4.5278,-4.5385,-4.5679,-4.555,-4.5716,-4.5738,-4.5859,-4.6022,-5.0404,-4.9996,-4.9996,-4.9683,-4.9054,-4.8476,-4.8185,-4.8133,-4.7772,-4.7512,-4.7252,-4.6774,-4.6485,-4.6367,-4.59,-4.5675,-4.5609,-4.5595,-4.5595,-4.5595,-4.5649,-4.5808,-4.602,-4.6073,-4.6245,-4.6469,-4.6535,-4.6535,-4.6535,-4.6535,-4.6535,-4.6535,-4.6535,-4.6252,-4.579,-4.579,-4.556,-4.5098,-4.4501,-4.4054,-4.3818,-4.3308,-4.3023,-4.29,-4.2887,-4.29,-4.2873,-4.2453,-4.2236,-4.2261,-4.1235,-4.0691,-4.0736,-4.0027,-3.9745,-4.0024,-4.0062,-4.0198,-4.0471,-4.063,-4.0505,-4.0027,-3.9999,-3.9788,-3.9352,-3.8707,-3.8297,-3.8265,-3.8555,-3.8742,-3.8774,-3.9498,-4.0112,-4.0072,-4.0256,-4.0481,-4.0528,-4.0539,-4.0554,-4.0593,-4.0846,-4.1204,-4.151,-4.1765,-4.2191,-4.2838,-4.3768,-4.4393,-4.458,-4.4855,-4.5083,-4.5092,-4.4852,-4.461,-4.4625,-4.5022,-4.5197,-4.5182,-4.5737,-4.6023,-4.6019,-4.5987,-4.5934,-4.5902,-4.5807,-4.5681,-4.5555,-4.5425,-4.531,-4.5495,-4.5381,-4.5312,-4.5223,-4.5309,-4.5636,-5.0066,-5.001,-5.001,-4.9683,-4.9054,-4.8476,-4.8185,-4.823,-4.8424,-4.8571,-4.8334,-4.7105,-4.6386,-4.609,-4.5972,-4.5805,-4.5609,-4.5595,-4.5595,-4.5649,-4.5861,-4.5954,-4.606,-4.6297,-4.6482,-4.6535,-4.6535,-4.6535,-4.6535,-4.6535,-4.6535,-4.6535,-4.6535,-4.6442,-4.6387,-4.6387,-4.6399,-4.6306,-4.5723,-4.4881,-4.3886,-4.3764,-4.343,-4.29,-4.29,-4.29,-4.29,-4.2833,-4.2548,-4.2093,-4.1896,-4.1665,-4.1425,-4.0836,-4.0687,-4.1074,-4.0662,-4.0471,-4.0673,-4.0688,-4.0674,-4.0617,-4.0589,-4.0561,-4.0449,-3.9943,-3.945,-3.9231,-3.9304,-3.9476,-3.9679,-4.0426,-4.0963,-4.0966,-4.1427,-4.1903,-4.1816,-4.1918,-4.1903,-4.1918,-4.1799,-4.1986,-4.2003,-4.2137,-4.2438,-4.3121,-4.4135,-4.4837,-4.4911,-4.5169,-4.5315,-4.5182,-4.4867,-4.4663,-4.4709,-4.5439,-4.5777,-4.6008,-4.6897,-4.6985,-4.6628,-4.6513,-4.6534,-4.5902,-4.5807,-4.5618,-4.5317,-4.5211,-4.535,-4.5104,-4.5115,-4.522,-4.4945,-4.4997,-4.5238,-4.9996,-5.001,-4.9854,-4.9398,-4.8837,-4.836,-4.8185,-4.8243,-4.836,-4.8431,-4.8379,-4.7977,-4.745,-4.6815,-4.6288,-4.5915,-4.5861,-4.6034,-4.6153,-4.6139,-4.6245,-4.6311,-4.6297,-4.6416,-4.6535,-4.6535,-4.6535,-4.6535,-4.6535,-4.6535,-4.6535,-4.6535,-4.6535,-4.6535,-4.6535,-4.6535,-4.6535,-4.6469,-4.6238,-4.5695,-4.4868,-4.4135,-4.366,-4.3416,-4.3077,-4.29,-4.29,-4.29,-4.2875,-4.2712,-4.229,-4.2085,-4.226,-4.1544,-4.1351,-4.1733,-4.1381,-4.1163,-4.1235,-4.0898,-4.0702,-4.0702,-4.0702,-4.0702,-4.0702,-4.0463,-4.028,-4.0278,-4.0144,-4.0149,-4.0287,-4.109,-4.1686,-4.1715,-4.1932,-4.2092,-4.2092,-4.2092,-4.2092,-4.2092,-4.2092,-4.2216,-4.2474,-4.285,-4.3394,-4.402,-4.4746,-4.5098,-4.5389,-4.5478,-4.5405,-4.5204,-4.4964,-4.4739,-4.4678,-4.4909,-4.5447,-4.591,-4.6169,-4.6184,-4.6632,-4.6334,-4.6092,-4.5855,-4.5823,-4.5728,-4.5507,-4.5267,-4.5199,-4.5059,-4.5202,-4.5456,-4.5402,-4.5386,-4.5515,-4.9996,-4.994,-4.974,-4.9354,-4.8952,-4.8606,-4.8418,-4.8476,-4.8476,-4.8476,-4.8463,-4.8563,-4.8262,-4.7609,-4.6853,-4.649,-4.6421,-4.6484,-4.6535,-4.6535,-4.6535,-4.6616,-4.6752,-4.6766,-4.6808,-4.6944,-4.6984,-4.6971,-4.6957,-4.6957,-4.6876,-4.6793,-4.6766,-4.6684,-4.6548,-4.6535,-4.6535,-4.6535,-4.6535,-4.6317,-4.575,-4.4814,-4.4158,-4.3832,-4.3362,-4.305,-4.29,-4.29,-4.297,-4.3149,-4.2562,-4.2474,-4.2965,-4.2287,-4.1966,-4.2199,-4.1878,-4.1615,-4.1601,-4.1053,-4.0702,-4.0702,-4.0702,-4.0702,-4.0702,-4.0702,-4.0773,-4.0817,-4.0744,-4.0654,-4.0933,-4.161,-4.2078,-4.2092,-4.2092,-4.2092,-4.2092,-4.2092,-4.2092,-4.2092,-4.2092,-4.2257,-4.2622,-4.3115,-4.3654,-4.4289,-4.4761,-4.5173,-4.5536,-4.5589,-4.5562,-4.5475,-4.5357,-4.5091,-4.4725,-4.4963,-4.5271,-4.5649,-4.5908,-4.6313,-4.6489,-4.6166,-4.5902,-4.595,-4.5871,-4.5792,-4.5681,-4.5441,-4.525,-4.5543,-4.5546,-4.5357,-4.522,-4.527,-4.5142,-4.9996,-4.9953,-4.974,-4.9512,-4.9512,-4.9125,-4.8997,-4.8952,-4.901,-4.901,-4.893,-4.8522,-4.8273,-4.8222,-4.7804,-4.7582,-4.7229,-4.6754,-4.6562,-4.6535,-4.6535,-4.6767,-4.735,-4.7377,-4.7581,-4.7853,-4.7934,-4.7988,-4.8029,-4.8029,-4.788,-4.739,-4.7295,-4.7051,-4.6603,-4.6535,-4.6535,-4.6535,-4.6535,-4.6508,-4.6399,-4.5804,-4.4936,-4.4036,-4.3742,-4.3443,-4.2995,-4.29,-4.2949,-4.2935,-4.2881,-4.3047,-4.3456,-4.2973,-4.2667,-4.2579,-4.2022,-4.1657,-4.1629,-4.1151,-4.08,-4.0772,-4.0856,-4.0758,-4.0884,-4.0898,-4.0927,-4.0787,-4.1071,-4.1255,-4.1561,-4.1868,-4.2051,-4.2092,-4.2092,-4.2092,-4.2092,-4.2092,-4.2092,-4.2092,-4.2092,-4.2201,-4.2392,-4.2607,-4.3115,-4.3708,-4.4251,-4.4836,-4.5284,-4.5573,-4.5809,-4.5994,-4.5984,-4.5808,-4.4955,-4.531,-4.5781,-4.6105,-4.6599,-4.7085,-4.6831,-4.6544,-4.6239,-4.6029,-4.5886,-4.5807,-4.5807,-4.5701,-4.5524,-4.544,-4.5072,-4.4898,-4.5325,-4.4183,-4.4233,-4.9797,-4.9398,-4.9341,-4.9054,-4.8708,-4.8592,-4.8534,-4.8548,-4.8548,-4.8548,-4.8508,-4.8554,-4.8532,-4.855,-4.8418,-4.789,-4.715,-4.7067,-4.6888,-4.6576,-4.6535,-4.6591,-4.6861,-4.7214,-4.7499,-4.769,-4.8056,-4.8178,-4.8124,-4.7866,-4.7581,-4.7377,-4.7024,-4.6725,-4.6562,-4.6535,-4.6535,-4.6535,-4.6535,-4.6535,-4.6521,-4.6265,-4.575,-4.4949,-4.4162,-4.3723,-4.3457,-4.309,-4.29,-4.29,-4.3067,-4.3307,-4.3573,-4.3718,-4.3757,-4.3676,-4.3146,-4.2823,-4.2753,-4.2247,-4.191,-4.191,-4.1896,-4.1868,-4.191,-4.191,-4.1984,-4.2073,-4.2292,-4.2467,-4.2237,-4.206,-4.1897,-4.2051,-4.2092,-4.2092,-4.2092,-4.2092,-4.2092,-4.2092,-4.2092,-4.2175,-4.2351,-4.2581,-4.3036,-4.3834,-4.4328,-4.4836,-4.5426,-4.5735,-4.5824,-4.5839,-4.6109,-4.6222,-4.577,-4.6114,-4.6571,-4.6725,-4.7002,-4.6834,-4.6595,-4.6233,-4.5914,-4.5913,-4.5839,-4.5871,-4.5886,-4.5792,-4.5627,-4.5639,-4.526,-4.5202,-4.5632,-4.4916,-4.505,-4.9613,-4.9297,-4.9112,-4.8895,-4.8534,-4.8476,-4.8476,-4.8476,-4.8476,-4.8476,-4.8548,-4.8721,-4.885,-4.8842,-4.8813,-4.8273,-4.7349,-4.7379,-4.72,-4.6806,-4.6564,-4.6577,-4.6861,-4.7228,-4.7513,-4.7676,-4.8029,-4.8178,-4.8137,-4.7839,-4.7608,-4.739,-4.6997,-4.6659,-4.6523,-4.6535,-4.6535,-4.6535,-4.6535,-4.6535,-4.6535,-4.6535,-4.6345,-4.5804,-4.4881,-4.4149,-4.3845,-4.3375,-4.3063,-4.2962,-4.3177,-4.3451,-4.3723,-4.4162,-4.4425,-4.4355,-4.3821,-4.3483,-4.3427,-4.2921,-4.257,-4.2629,-4.2584,-4.2584,-4.2584,-4.2584,-4.266,-4.2824,-4.2943,-4.2922,-4.2553,-4.2137,-4.1947,-4.2067,-4.2092,-4.2092,-4.2092,-4.2092,-4.2092,-4.2092,-4.2092,-4.216,-4.2351,-4.2581,-4.314,-4.4066,-4.4442,-4.4927,-4.5589,-4.5807,-4.5845,-4.585,-4.6222,-4.668,-4.6879,-4.7372,-4.7177,-4.7247,-4.6908,-4.6693,-4.6422,-4.6029,-4.5845,-4.5845,-4.5918,-4.5965,-4.5934,-4.5855,-4.5896,-4.602,-4.583,-4.5627,-4.5853,-4.5949,-4.5779,-4.9556,-4.9455,-4.924,-4.901,-4.8952,-4.8952,-4.8997,-4.8939,-4.8939,-4.8895,-4.8837,-4.8997,-4.8952,-4.9054,-4.8988,-4.8739,-4.8158,-4.7676,-4.7433,-4.727,-4.6796,-4.685,-4.7297,-4.7378,-4.7704,-4.8178,-4.8232,-4.8259,-4.8341,-4.8246,-4.7988,-4.7567,-4.7432,-4.7134,-4.6603,-4.6671,-4.6589,-4.6537,-4.6576,-4.6535,-4.6535,-4.6535,-4.6455,-4.6413,-4.5817,-4.5017,-4.3968,-4.3859,-4.3574,-4.3071,-4.3293,-4.3526,-4.3988,-4.427,-4.4425,-4.434,-4.3849,-4.3554,-4.3483,-4.3048,-4.2795,-4.2795,-4.2697,-4.2795,-4.2837,-4.2795,-4.2826,-4.2899,-4.2888,-4.2697,-4.2538,-4.241,-4.228,-4.2125,-4.2092,-4.2092,-4.2092,-4.2092,-4.2092,-4.2092,-4.2092,-4.2175,-4.2351,-4.2581,-4.3076,-4.3849,-4.4366,-4.4838,-4.5567,-4.5835,-4.6008,-4.6369,-4.684,-4.7327,-4.798,-4.8537,-4.8052,-4.7606,-4.7072,-4.6699,-4.6406,-4.6097,-4.6055,-4.6118,-4.6645,-4.6708,-4.6503,-4.6392,-4.6108,-4.6133,-4.6038,-4.5911,-4.5929,-4.5897,-4.5649,-4.9354,-4.9023,-4.885,-4.8677,-4.8476,-4.8476,-4.8476,-4.8489,-4.8476,-4.8489,-4.8476,-4.8476,-4.8476,-4.8534,-4.8721,-4.8731,-4.8493,-4.8132,-4.7737,-4.7375,-4.7147,-4.7134,-4.7295,-4.7417,-4.7794,-4.858,-4.9166,-4.944,-4.9331,-4.8964,-4.8735,-4.8545,-4.8151,-4.7893,-4.7636,-4.731,-4.7132,-4.7092,-4.6672,-4.6535,-4.6535,-4.6535,-4.6535,-4.6508,-4.6331,-4.5856,-4.5058,-4.4811,-4.4293,-4.3574,-4.4146,-4.4399,-4.4321,-4.435,-4.4411,-4.4397,-4.4256,-4.4116,-4.4116,-4.3947,-4.3793,-4.3821,-4.3821,-4.3835,-4.3835,-4.3807,-4.3885,-4.4051,-4.4111,-4.391,-4.3341,-4.3185,-4.2854,-4.2152,-4.2092,-4.2092,-4.2092,-4.2092,-4.2092,-4.2092,-4.2092,-4.2133,-4.2257,-4.2474,-4.2915,-4.3521,-4.3942,-4.4542,-4.5378,-4.5856,-4.6307,-4.6863,-4.7471,-4.8,-4.8481,-4.8765,-4.8482,-4.798,-4.7437,-4.6799,-4.6496,-4.6276,-4.6287,-4.6481,-4.7024,-4.7198,-4.7008,-4.6787,-4.6471,-4.6234,-4.616,-4.6018,-4.5911,-4.5746,-4.5635,-4.9112,-4.8677,-4.8561,-4.8418,-4.8185,-4.8185,-4.8185,-4.8185,-4.8185,-4.8185,-4.8185,-4.8185,-4.8185,-4.8243,-4.8431,-4.8489,-4.8508,-4.8312,-4.8012,-4.7645,-4.7529,-4.7464,-4.7519,-4.7643,-4.7928,-4.8499,-4.9057,-4.9359,-4.9331,-4.8937,-4.8747,-4.8652,-4.8354,-4.8164,-4.8164,-4.788,-4.7608,-4.7404,-4.7051,-4.6739,-4.6523,-4.6535,-4.6535,-4.6535,-4.6535,-4.6331,-4.5951,-4.5827,-4.529,-4.4529,-4.4768,-4.4785,-4.4448,-4.4411,-4.4425,-4.4425,-4.4411,-4.4397,-4.4425,-4.4369,-4.4425,-4.4425,-4.4425,-4.4411,-4.4411,-4.4425,-4.4504,-4.4612,-4.4616,-4.4319,-4.3627,-4.3443,-4.3056,-4.2181,-4.2092,-4.2092,-4.2092,-4.2092,-4.2092,-4.2092,-4.2175,-4.2216,-4.2284,-4.2474,-4.285,-4.326,-4.363,-4.4072,-4.4987,-4.5733,-4.6299,-4.6927,-4.7563,-4.811,-4.8762,-4.8904,-4.8834,-4.8401,-4.7905,-4.7218,-4.665,-4.6492,-4.6413,-4.6592,-4.7024,-4.7056,-4.6898,-4.685,-4.6629,-4.6471,-4.6281,-4.5997,-4.5828,-4.5864,-4.5762,-4.8895,-4.8619,-4.8302,-4.8243,-4.8185,-4.8185,-4.8185,-4.8185,-4.8185,-4.8185,-4.8185,-4.8185,-4.8185,-4.8185,-4.8243,-4.8243,-4.8172,-4.8204,-4.8242,-4.8126,-4.8056,-4.7953,-4.7859,-4.8174,-4.8338,-4.8354,-4.849,-4.849,-4.8693,-4.8598,-4.8286,-4.849,-4.8503,-4.8327,-4.8422,-4.83,-4.8056,-4.773,-4.7472,-4.7092,-4.6657,-4.6535,-4.6535,-4.6535,-4.6521,-4.6442,-4.644,-4.6605,-4.6267,-4.5262,-4.4982,-4.4737,-4.4457,-4.4364,-4.4425,-4.4425,-4.4425,-4.4425,-4.4425,-4.4425,-4.4425,-4.4425,-4.4425,-4.4425,-4.4425,-4.4411,-4.4411,-4.4472,-4.4472,-4.4075,-4.3403,-4.3209,-4.2855,-4.2228,-4.2092,-4.2092,-4.2092,-4.2092,-4.2092,-4.216,-4.2284,-4.2392,-4.2392,-4.2622,-4.289,-4.3155,-4.3394,-4.3784,-4.4315,-4.5086,-4.5888,-4.6531,-4.7154,-4.769,-4.8168,-4.8446,-4.8329,-4.7925,-4.7571,-4.7113,-4.6692,-4.6545,-4.6539,-4.6734,-4.6961,-4.6929,-4.6929,-4.6945,-4.685,-4.6676,-4.6376,-4.5981,-4.5807,-4.5844,-4.588,-4.8606,-4.8315,-4.8243,-4.8185,-4.8185,-4.8185,-4.8185,-4.8185,-4.8185,-4.8185,-4.8185,-4.8185,-4.8185,-4.8185,-4.8185,-4.8185,-4.8185,-4.8185,-4.836,-4.8566,-4.8758,-4.8519,-4.8375,-4.8897,-4.9012,-4.8728,-4.9098,-4.9562,-4.9549,-4.9372,-4.9413,-4.9549,-4.9345,-4.944,-4.9508,-4.8964,-4.8857,-4.8545,-4.7784,-4.7336,-4.7119,-4.6659,-4.6535,-4.6535,-4.6535,-4.6535,-4.6521,-4.6783,-4.6428,-4.5476,-4.4885,-4.4484,-4.4193,-4.4298,-4.4364,-4.4364,-4.4364,-4.4425,-4.4378,-4.4425,-4.4425,-4.4425,-4.4425,-4.4425,-4.4425,-4.4425,-4.4425,-4.4425,-4.4397,-4.3997,-4.3255,-4.3078,-4.2797,-4.2243,-4.2092,-4.2092,-4.2092,-4.2092,-4.2133,-4.2284,-4.2351,-4.2474,-4.2622,-4.2769,-4.2915,-4.2915,-4.3065,-4.3275,-4.3798,-4.4408,-4.5212,-4.5779,-4.6343,-4.695,-4.7411,-4.7727,-4.7713,-4.7261,-4.6908,-4.6703,-4.6434,-4.6371,-4.6545,-4.6803,-4.7135,-4.7214,-4.7229,-4.7245,-4.7071,-4.6787,-4.6313,-4.5855,-4.5823,-4.5807,-4.5807,-4.8489,-4.8185,-4.8185,-4.8185,-4.8185,-4.8185,-4.8185,-4.8185,-4.8185,-4.8185,-4.8185,-4.8185,-4.8185,-4.8185,-4.8185,-4.8185,-4.8185,-4.8185,-4.8302,-4.8489,-4.8753,-4.8899,-4.9093,-4.9619,-4.9551,-4.9311,-4.9464,-4.9533,-4.9535,-4.9413,-4.9277,-4.9182,-4.9277,-4.9264,-4.9128,-4.891,-4.8626,-4.8287,-4.7663,-4.7309,-4.7024,-4.6659,-4.6562,-4.6535,-4.6535,-4.6535,-4.6521,-4.6626,-4.6435,-4.5861,-4.537,-4.4796,-4.4276,-4.4207,-4.4176,-4.4101,-4.4162,-4.4209,-4.427,-4.4317,-4.4425,-4.4425,-4.4425,-4.4425,-4.4425,-4.4425,-4.4425,-4.4425,-4.4425,-4.3871,-4.3112,-4.2708,-4.2438,-4.2154,-4.2092,-4.2092,-4.2092,-4.2092,-4.2216,-4.2366,-4.2474,-4.2581,-4.2809,-4.2955,-4.2875,-4.2809,-4.2809,-4.2946,-4.3183,-4.3849,-4.4402,-4.4865,-4.5566,-4.6196,-4.6405,-4.6625,-4.6701,-4.6294,-4.6175,-4.5992,-4.6108,-4.6113,-4.6266,-4.655,-4.7087,-4.7403,-4.7214,-4.7103,-4.6977,-4.6613,-4.6139,-4.5886,-4.5839,-4.5807,-4.5807,-4.8489,-4.8185,-4.8185,-4.8185,-4.8185,-4.8185,-4.8185,-4.8185,-4.8185,-4.8185,-4.8185,-4.8185,-4.8185,-4.8185,-4.8185,-4.8185,-4.8185,-4.8185,-4.8243,-4.8418,-4.8721,-4.9173,-4.9702,-4.9511,-4.9567,-4.9432,-4.9193,-4.8976,-4.8841,-4.849,-4.8273,-4.8368,-4.8327,-4.8232,-4.8381,-4.8259,-4.7975,-4.7717,-4.7553,-4.7228,-4.6874,-4.6643,-4.6535,-4.6535,-4.6535,-4.6535,-4.6535,-4.6508,-4.6458,-4.6413,-4.5987,-4.5281,-4.4553,-4.4165,-4.3954,-4.3818,-4.3926,-4.4021,-4.4068,-4.4317,-4.4425,-4.4425,-4.4425,-4.4425,-4.4425,-4.4425,-4.4425,-4.4425,-4.4425,-4.3931,-4.3099,-4.2324,-4.2061,-4.2094,-4.2092,-4.2092,-4.2092,-4.2092,-4.2175,-4.2392,-4.2581,-4.2729,-4.2915,-4.2996,-4.293,-4.2662,-4.2662,-4.2695,-4.279,-4.3145,-4.3512,-4.3823,-4.4578,-4.5445,-4.5489,-4.5474,-4.5455,-4.5264,-4.523,-4.5217,-4.5567,-4.5662,-4.5798,-4.6092,-4.6534,-4.6724,-4.6676,-4.6613,-4.6629,-4.6471,-4.6013,-4.5886,-4.5807,-4.5807,-4.5807,-4.823,-4.8185,-4.8185,-4.8185,-4.8185,-4.8185,-4.8185,-4.8185,-4.8185,-4.8185,-4.8185,-4.8185,-4.8185,-4.8185,-4.8185,-4.8185,-4.8185,-4.8185,-4.8302,-4.8663,-4.9169,-4.9455,-4.9505,-4.9026,-4.8728,-4.8651,-4.8292,-4.8065,-4.8026,-4.8137,-4.8164,-4.811,-4.8002,-4.8164,-4.811,-4.8015,-4.8151,-4.7975,-4.7568,-4.7309,-4.7078,-4.6711,-4.6535,-4.6535,-4.6535,-4.6535,-4.6535,-4.6535,-4.6519,-4.6321,-4.582,-4.5104,-4.4468,-4.411,-4.3893,-4.3865,-4.3926,-4.4068,-4.427,-4.4317,-4.4425,-4.4425,-4.4425,-4.4425,-4.4425,-4.4425,-4.4425,-4.4425,-4.4383,-4.4033,-4.3233,-4.2754,-4.2363,-4.214,-4.2092,-4.2092,-4.2092,-4.2092,-4.2242,-4.25,-4.2541,-4.2581,-4.2955,-4.2996,-4.285,-4.2581,-4.2514,-4.2514,-4.2562,-4.2597,-4.2793,-4.3034,-4.3423,-4.4186,-4.4193,-4.4268,-4.4455,-4.4461,-4.4496,-4.4632,-4.4949,-4.5336,-4.5536,-4.5698,-4.5918,-4.6044,-4.6234,-4.6139,-4.6155,-4.6013,-4.5897,-4.5755,-4.5624,-4.5708,-4.5608,-4.8185,-4.8185,-4.8185,-4.8185,-4.8185,-4.8185,-4.8185,-4.8185,-4.8185,-4.8185,-4.8185,-4.8185,-4.8185,-4.8185,-4.8185,-4.8185,-4.8185,-4.8185,-4.8302,-4.8476,-4.8824,-4.8997,-4.8899,-4.8226,-4.7758,-4.8326,-4.7781,-4.7486,-4.7568,-4.7474,-4.7351,-4.7418,-4.7432,-4.7337,-4.7418,-4.7446,-4.7364,-4.731,-4.7134,-4.6997,-4.6915,-4.6725,-4.6535,-4.6535,-4.6535,-4.6535,-4.6535,-4.6535,-4.6535,-4.6288,-4.57,-4.502,-4.4433,-4.3973,-4.3697,-4.3689,-4.377,-4.3926,-4.4129,-4.4317,-4.4425,-4.4425,-4.4425,-4.4425,-4.4425,-4.4425,-4.4425,-4.4425,-4.4359,-4.4089,-4.3277,-4.2739,-4.2394,-4.2183,-4.2092,-4.2092,-4.2092,-4.2092,-4.2216,-4.2474,-4.2474,-4.2581,-4.2729,-4.2835,-4.2729,-4.2474,-4.2433,-4.2433,-4.2284,-4.2289,-4.2274,-4.2386,-4.2506,-4.2713,-4.2795,-4.3049,-4.3534,-4.3672,-4.3886,-4.412,-4.4465,-4.4896,-4.5321,-4.5484,-4.5594,-4.5787,-4.595,-4.5823,-4.564,-4.5771,-4.5687,-4.5509,-4.5378,-4.5378,-4.5148,-4.8185,-4.8185,-4.8185,-4.8185,-4.8185,-4.8185,-4.8185,-4.8185,-4.8185,-4.8185,-4.8185,-4.8185,-4.8185,-4.8185,-4.8185,-4.8185,-4.8185,-4.8185,-4.8243,-4.8302,-4.8418,-4.8606,-4.847,-4.7731,-4.7466,-4.8664,-4.7379,-4.6881,-4.6933,-4.6781,-4.6713,-4.655,-4.6576,-4.6672,-4.655,-4.6496,-4.6632,-4.6645,-4.6671,-4.6616,-4.6603,-4.6548,-4.6535,-4.6535,-4.6535,-4.6535,-4.6535,-4.6535,-4.6521,-4.6467,-4.5547,-4.5016,-4.4557,-4.3901,-4.3355,-4.3417,-4.3628,-4.3865,-4.4129,-4.427,-4.4425,-4.4425,-4.4425,-4.4425,-4.4425,-4.4425,-4.4425,-4.4355,-4.4261,-4.3966,-4.3249,-4.2739,-4.2337,-4.2085,-4.2036,-4.2092,-4.2092,-4.2092,-4.2216,-4.2366,-4.2351,-4.2433,-4.2541,-4.2648,-4.25,-4.2392,-4.2392,-4.2351,-4.216,-4.2092,-4.2092,-4.2092,-4.2242,-4.231,-4.2351,-4.2433,-4.2824,-4.3036,-4.326,-4.3422,-4.3728,-4.3854,-4.424,-4.5085,-4.5369,-4.54,-4.5195,-4.4835,-4.4867,-4.5362,-4.5065,-4.4424,-4.4523,-4.4934,-4.4705,-4.8185,-4.8185,-4.8185,-4.8185,-4.8185,-4.8185,-4.8185,-4.8185,-4.8185,-4.8185,-4.8185,-4.8185,-4.8185,-4.8185,-4.8185,-4.8185,-4.8185,-4.8185,-4.8159,-4.8178,-4.8353,-4.8526,-4.8254,-4.7483,-4.7489,-4.7429,-4.6652,-4.6156,-4.6394,-4.6404,-4.6482,-4.6535,-4.6535,-4.6535,-4.6535,-4.6535,-4.6535,-4.6535,-4.6535,-4.6535,-4.6535,-4.6535,-4.6535,-4.6535,-4.6535,-4.6535,-4.6535,-4.6535,-4.6535,-4.6413,-4.538,-4.4891,-4.4575,-4.3992,-4.3609,-4.358,-4.3723,-4.3974,-4.427,-4.4364,-4.4425,-4.4425,-4.4425,-4.4425,-4.4425,-4.4411,-4.4383,-4.4246,-4.3987,-4.3619,-4.3028,-4.2667,-4.2323,-4.2016,-4.1953,-4.2092,-4.2092,-4.2092,-4.2175,-4.2325,-4.2284,-4.2201,-4.2351,-4.2433,-4.2366,-4.2284,-4.2325,-4.2242,-4.2133,-4.2092,-4.2092,-4.2092,-4.2092,-4.2133,-4.2119,-4.216,-4.2366,-4.2514,-4.2644,-4.2518,-4.2704,-4.265,-4.3099,-4.4188,-4.452,-4.4367,-4.4112,-4.3816,-4.3666,-4.3827,-4.3521,-4.3164,-4.3376,-4.3656,-4.4065,-4.8185,-4.8185,-4.8185,-4.8185,-4.8185,-4.8185,-4.8185,-4.8185,-4.8185,-4.8185,-4.8185,-4.8185,-4.8185,-4.8185,-4.8185,-4.8185,-4.8172,-4.8172,-4.8028,-4.789,-4.7927,-4.7903,-4.7779,-4.7036,-4.7049,-4.6933,-4.6343,-4.5967,-4.6245,-4.643,-4.6535,-4.6535,-4.6535,-4.6535,-4.6535,-4.6535,-4.6535,-4.6535,-4.6535,-4.6535,-4.6535,-4.6535,-4.6535,-4.6535,-4.6535,-4.6535,-4.6535,-4.6535,-4.6535,-4.6372,-4.5641,-4.5085,-4.4629,-4.4264,-4.3801,-4.3683,-4.3818,-4.4129,-4.4317,-4.4425,-4.4425,-4.4425,-4.4411,-4.4425,-4.4425,-4.4397,-4.4228,-4.3923,-4.3462,-4.2963,-4.2446,-4.2452,-4.2209,-4.1875,-4.1953,-4.2051,-4.2092,-4.2092,-4.2175,-4.2257,-4.2175,-4.2175,-4.2175,-4.2216,-4.2175,-4.2175,-4.2201,-4.2175,-4.2107,-4.2092,-4.2092,-4.2092,-4.2092,-4.2092,-4.2092,-4.2092,-4.2092,-4.2201,-4.2225,-4.2103,-4.2129,-4.2268,-4.2821,-4.3728,-4.3708,-4.3223,-4.3133,-4.2884,-4.2627,-4.2385,-4.24,-4.2385,-4.2232,-4.2365,-4.2855,-4.8185,-4.8185,-4.8185,-4.8185,-4.8185,-4.8185,-4.8185,-4.8185,-4.8185,-4.8185,-4.8185,-4.8185,-4.8185,-4.8146,-4.8054,-4.7989,-4.8002,-4.7898,-4.7519,-4.7244,-4.7166,-4.7061,-4.6728,-4.6436,-4.6364,-4.6596,-4.641,-4.6245,-4.6416,-4.6482,-4.6535,-4.6535,-4.6535,-4.6535,-4.6535,-4.6535,-4.6535,-4.6535,-4.6535,-4.6535,-4.6535,-4.6535,-4.6535,-4.6535,-4.6535,-4.6535,-4.6535,-4.6535,-4.6535,-4.6372,-4.5885,-4.5316,-4.4769,-4.4384,-4.4014,-4.3643,-4.377,-4.4007,-4.4162,-4.4317,-4.427,-4.427,-4.4364,-4.4355,-4.413,-4.3947,-4.3764,-4.3329,-4.2739,-4.2322,-4.2032,-4.1966,-4.1867,-4.182,-4.1856,-4.2051,-4.2092,-4.2092,-4.2092,-4.2133,-4.2092,-4.2092,-4.2133,-4.2133,-4.2133,-4.2133,-4.2133,-4.2133,-4.2092,-4.2092,-4.2092,-4.2092,-4.2092,-4.2092,-4.2092,-4.2092,-4.2092,-4.2133,-4.2117,-4.2068,-4.2059,-4.217,-4.2659,-4.2841,-4.2323,-4.1896,-4.1917,-4.1852,-4.1364,-4.1222,-4.152,-4.1486,-4.1094,-4.1376,-4.196,-4.8185,-4.8185,-4.8185,-4.8185,-4.8185,-4.8185,-4.8185,-4.8185,-4.8172,-4.8185,-4.8114,-4.8146,-4.812,-4.7976,-4.7597,-4.7453,-4.731,-4.7035,-4.6774,-4.6604,-4.6578,-4.6499,-4.6497,-4.652,-4.6162,-4.6179,-4.6289,-4.6457,-4.6416,-4.6469,-4.6482,-4.6482,-4.6469,-4.6482,-4.6364,-4.6364,-4.6535,-4.6482,-4.6482,-4.6535,-4.6535,-4.6535,-4.6535,-4.6535,-4.6535,-4.6535,-4.6535,-4.6535,-4.6535,-4.6401,-4.5926,-4.5329,-4.4783,-4.4397,-4.393,-4.3561,-4.3533,-4.3662,-4.3757,-4.3912,-4.4068,-4.4082,-4.4223,-4.4069,-4.3764,-4.3245,-4.2935,-4.2725,-4.2107,-4.1713,-4.1533,-4.1354,-4.1284,-4.1466,-4.1675,-4.1912,-4.2009,-4.2092,-4.2092,-4.2092,-4.2092,-4.2092,-4.2092,-4.2092,-4.2092,-4.2092,-4.2092,-4.2092,-4.2092,-4.2092,-4.2092,-4.2092,-4.2092,-4.2092,-4.2092,-4.2092,-4.2092,-4.2092,-4.2049,-4.2017,-4.2024,-4.1942,-4.139,-4.1405,-4.1076,-4.1136,-4.142,-4.1152,-4.0256,-4.0241,-4.0755,-4.0372,-3.9691,-4.0305,-4.1343,-4.8185,-4.8185,-4.8185,-4.8055,-4.7925,-4.7938,-4.7808,-4.769,-4.7808,-4.7938,-4.786,-4.7761,-4.7545,-4.7257,-4.6931,-4.6865,-4.6787,-4.6552,-4.6277,-4.6042,-4.5976,-4.5833,-4.5577,-4.564,-4.563,-4.5699,-4.5822,-4.5954,-4.6086,-4.6311,-4.643,-4.6245,-4.6192,-4.6086,-4.6086,-4.5981,-4.6086,-4.6192,-4.6416,-4.6482,-4.6535,-4.6535,-4.6535,-4.6535,-4.6535,-4.6535,-4.6535,-4.6535,-4.6535,-4.6428,-4.6209,-4.5628,-4.4922,-4.4493,-4.408,-4.3162,-4.3163,-4.3341,-4.3553,-4.3723,-4.377,-4.3804,-4.3979,-4.3957,-4.3494,-4.2921,-4.2345,-4.2036,-4.146,-4.1165,-4.1152,-4.1042,-4.1171,-4.1367,-4.1535,-4.18,-4.1995,-4.2051,-4.2092,-4.2092,-4.2092,-4.2092,-4.2092,-4.2092,-4.2092,-4.2092,-4.2092,-4.2092,-4.2092,-4.2092,-4.2092,-4.2092,-4.2092,-4.2092,-4.2092,-4.2092,-4.2092,-4.2092,-4.2092,-4.2005,-4.1903,-4.1668,-4.136,-4.1375,-4.1638,-4.159,-4.1352,-4.086,-4.0344,-4.0199,-4.0112,-3.9981,-3.9935,-4.0516,-4.1354,-4.7997,-4.7938,-4.8055,-4.788,-4.756,-4.7573,-4.7455,-4.7252,-4.7405,-4.7483,-4.7412,-4.7215,-4.6865,-4.6512,-4.6369,-4.6264,-4.6238,-4.612,-4.5807,-4.5519,-4.5307,-4.5179,-4.5025,-4.5058,-4.522,-4.5072,-4.5528,-4.5609,-4.5715,-4.5941,-4.6086,-4.5914,-4.5914,-4.5808,-4.5649,-4.5649,-4.5755,-4.5914,-4.6297,-4.6416,-4.6416,-4.6469,-4.6469,-4.6535,-4.6535,-4.6535,-4.6535,-4.6535,-4.6535,-4.6508,-4.6225,-4.5628,-4.4854,-4.4406,-4.3913,-4.3153,-4.2984,-4.3067,-4.3293,-4.3485,-4.3505,-4.3606,-4.3662,-4.3696,-4.3199,-4.2697,-4.2064,-4.1446,-4.1067,-4.08,-4.0744,-4.0859,-4.1029,-4.1241,-4.1465,-4.1731,-4.1939,-4.1995,-4.2051,-4.2092,-4.2092,-4.2092,-4.2092,-4.2092,-4.2092,-4.2092,-4.2092,-4.2063,-4.2034,-4.199,-4.199,-4.1976,-4.2005,-4.202,-4.2034,-4.2049,-4.2063,-4.2063,-4.2063,-4.2063,-4.1976,-4.1976,-4.1872,-4.1976,-4.2092,-4.1942,-4.1635,-4.108,-4.051,-4.0123,-3.9932,-4.0387,-4.0642,-4.1121,-4.1413,-4.7573,-4.7265,-4.756,-4.7501,-4.7265,-4.7265,-4.718,-4.7018,-4.6959,-4.6927,-4.6829,-4.6643,-4.6486,-4.6277,-4.5872,-4.5676,-4.5663,-4.5046,-4.4929,-4.485,-4.4733,-4.4772,-4.4789,-4.4951,-4.5072,-4.4897,-4.5221,-4.5341,-4.5341,-4.5488,-4.5595,-4.5662,-4.5595,-4.5595,-4.5542,-4.5488,-4.5595,-4.5768,-4.6192,-4.6297,-4.6245,-4.6297,-4.6535,-4.6535,-4.6535,-4.6535,-4.6535,-4.6535,-4.644,-4.6374,-4.6007,-4.5383,-4.4664,-4.4217,-4.3606,-4.309,-4.29,-4.2984,-4.3067,-4.3211,-4.3389,-4.3509,-4.3575,-4.342,-4.2865,-4.2135,-4.1474,-4.1011,-4.0772,-4.073,-4.0702,-4.073,-4.0859,-4.1071,-4.1325,-4.1535,-4.1758,-4.1939,-4.1995,-4.2051,-4.2092,-4.2092,-4.2092,-4.2092,-4.2092,-4.2092,-4.1816,-4.1773,-4.1773,-4.1744,-4.1787,-4.1816,-4.1874,-4.1903,-4.1947,-4.1918,-4.1802,-4.1889,-4.1976,-4.2034,-4.2063,-4.2092,-4.2092,-4.2092,-4.2092,-4.2034,-4.1889,-4.1273,-4.061,-3.9881,-3.9756,-4.0324,-4.0654,-4.0901,-4.1371,-4.7231,-4.6921,-4.6696,-4.6734,-4.6921,-4.6565,-4.6294,-4.6146,-4.6142,-4.608,-4.6135,-4.5986,-4.5741,-4.5428,-4.5245,-4.5075,-4.5049,-4.4892,-4.4707,-4.4681,-4.4681,-4.4681,-4.4776,-4.4776,-4.4843,-4.4789,-4.4951,-4.5005,-4.4951,-4.5059,-4.5059,-4.5113,-4.5274,-4.5167,-4.5167,-4.5274,-4.5448,-4.5649,-4.5967,-4.6073,-4.6126,-4.6297,-4.6535,-4.6535,-4.6535,-4.6535,-4.6535,-4.6535,-4.6317,-4.5967,-4.5668,-4.5031,-4.4339,-4.3954,-4.3506,-4.2982,-4.29,-4.2949,-4.2935,-4.3018,-4.3211,-4.3539,-4.3648,-4.3468,-4.2781,-4.2317,-4.1629,-4.1123,-4.0716,-4.0702,-4.0702,-4.0702,-4.0773,-4.0972,-4.1142,-4.1353,-4.1535,-4.1758,-4.1939,-4.198,-4.2036,-4.2092,-4.2092,-4.2092,-4.2092,-4.2063,-4.1744,-4.1468,-4.1395,-4.1253,-4.121,-4.1181,-4.121,-4.1163,-4.1163,-4.1294,-4.1468,-4.1628,-4.1787,-4.1874,-4.1891,-4.2092,-4.2092,-4.2092,-4.199,-4.1816,-4.1599,-4.1308,-4.0793,-4.0178,-4.009,-4.0338,-4.058,-4.0704,-4.1133,-4.6437,-4.6117,-4.5679,-4.583,-4.6319,-4.5754,-4.5456,-4.5367,-4.5336,-4.5326,-4.532,-4.5281,-4.5098,-4.4759,-4.4694,-4.4707,-4.4787,-4.4694,-4.4694,-4.4681,-4.4681,-4.4681,-4.4681,-4.4735,-4.4735,-4.4681,-4.4681,-4.4735,-4.4735,-4.4735,-4.4735,-4.4843,-4.491,-4.4897,-4.4897,-4.5018,-4.5287,-4.5488,-4.5808,-4.6007,-4.6073,-4.6297,-4.6535,-4.6535,-4.6535,-4.6358,-4.6263,-4.6089,-4.5831,-4.5438,-4.5017,-4.4583,-4.404,-4.3579,-4.3308,-4.305,-4.29,-4.2949,-4.3032,-4.3115,-4.3293,-4.3695,-4.3993,-4.3622,-4.3101,-4.2683,-4.2008,-4.1193,-4.087,-4.0702,-4.0702,-4.0702,-4.073,-4.0859,-4.1001,-4.117,-4.1311,-4.1535,-4.1717,-4.1883,-4.1939,-4.1924,-4.1767,-4.1668,-4.1563,-4.1459,-4.1105,-4.0844,-4.0731,-4.0601,-4.0387,-4.0358,-4.0329,-4.0253,-4.0137,-4.051,-4.0789,-4.0854,-4.1056,-4.1473,-4.1604,-4.1819,-4.2034,-4.2063,-4.1903,-4.1599,-4.1178,-4.0728,-4.0619,-4.0533,-4.032,-4.0026,-4.0211,-4.0327,-4.0739,-4.5009,-4.4656,-4.4656,-4.497,-4.5431,-4.4882,-4.4817,-4.4928,-4.4762,-4.4729,-4.4757,-4.4772,-4.4759,-4.4681,-4.4681,-4.4681,-4.4681,-4.4681,-4.4681,-4.4681,-4.4681,-4.4681,-4.4681,-4.4681,-4.4681,-4.4681,-4.4681,-4.4681,-4.4681,-4.4681,-4.4681,-4.4681,-4.4789,-4.4776,-4.4735,-4.5018,-4.518,-4.5287,-4.5755,-4.5901,-4.6073,-4.6297,-4.6469,-4.6385,-4.6319,-4.6102,-4.5709,-4.56,-4.5302,-4.4786,-4.4325,-4.3959,-4.3687,-4.3226,-4.2995,-4.2914,-4.29,-4.3032,-4.3273,-4.3485,-4.3662,-4.3912,-4.4115,-4.3985,-4.3469,-4.2921,-4.2303,-4.1432,-4.1025,-4.0758,-4.0702,-4.0702,-4.0744,-4.0773,-4.0887,-4.1001,-4.1184,-4.1269,-4.1479,-4.1675,-4.1702,-4.1659,-4.1389,-4.1202,-4.0997,-4.0787,-4.0441,-4.0195,-4.0083,-3.9754,-3.9444,-3.9401,-3.9396,-3.9411,-3.9435,-3.9861,-4.0097,-4.0163,-4.0343,-4.0703,-4.1105,-4.1418,-4.1647,-4.1862,-4.1671,-4.125,-4.067,-4.0075,-3.9891,-3.9625,-3.9624,-3.9496,-3.9709,-3.987,-4.0119,-4.4676,-4.4593,-4.4229,-4.4179,-4.433,-4.4166,-4.4136,-4.4149,-4.4021,-4.4028,-4.4393,-4.4409,-4.4572,-4.4626,-4.4681,-4.4681,-4.4681,-4.4681,-4.4681,-4.4681,-4.4681,-4.4681,-4.4681,-4.4681,-4.4681,-4.4681,-4.4681,-4.4681,-4.4681,-4.4681,-4.4681,-4.4681,-4.4735,-4.4843,-4.4897,-4.5072,-4.5018,-4.5395,-4.5649,-4.5795,-4.6007,-4.6257,-4.6304,-4.5912,-4.5885,-4.5587,-4.5058,-4.5003,-4.4678,-4.4189,-4.3791,-4.3642,-4.3335,-4.2914,-4.29,-4.29,-4.2935,-4.3115,-4.3451,-4.3723,-4.3879,-4.4068,-4.4181,-4.413,-4.354,-4.295,-4.2317,-4.1685,-4.1081,-4.08,-4.0702,-4.0702,-4.0702,-4.0702,-4.0816,-4.0887,-4.1015,-4.1085,-4.1212,-4.1423,-4.1522,-4.145,-4.1279,-4.0824,-4.0578,-4.0244,-3.9945,-3.9563,-3.939,-3.8818,-3.8405,-3.8443,-3.8443,-3.8515,-3.8698,-3.9044,-3.9232,-3.9254,-3.9481,-3.9831,-4.0311,-4.0723,-4.0819,-4.0845,-4.0868,-4.0858,-4.0006,-3.9242,-3.8803,-3.8588,-3.8804,-3.8833,-3.8906,-3.8978,-3.9028,-4.4053,-4.4003,-4.3664,-4.3514,-4.3514,-4.3514,-4.357,-4.3607,-4.3627,-4.3819,-4.4107,-4.4148,-4.4313,-4.4476,-4.4585,-4.4613,-4.4681,-4.4681,-4.4681,-4.4681,-4.4681,-4.4681,-4.4681,-4.4681,-4.4681,-4.4681,-4.4681,-4.4681,-4.4681,-4.4681,-4.4681,-4.4681,-4.4722,-4.4619,-4.4714,-4.4714,-4.4964,-4.5275,-4.5395,-4.5381,-4.5603,-4.5691,-4.5641,-4.5383,-4.5207,-4.499,-4.4569,-4.4284,-4.4108,-4.3674,-4.343,-4.3308,-4.2995,-4.29,-4.29,-4.29,-4.3032,-4.3211,-4.3451,-4.3818,-4.3926,-4.4035,-4.427,-4.4181,-4.3662,-4.2971,-4.2483,-4.1852,-4.1136,-4.0799,-4.0702,-4.0702,-4.0702,-4.0702,-4.0744,-4.0816,-4.0845,-4.093,-4.1015,-4.117,-4.1255,-4.1226,-4.1111,-4.0587,-4.0106,-3.9774,-3.9439,-3.9132,-3.8892,-3.8437,-3.7992,-3.7906,-3.7878,-3.7954,-3.8054,-3.8232,-3.8337,-3.8341,-3.8678,-3.9085,-3.9342,-3.9748,-3.9771,-3.9794,-3.9816,-3.965,-3.902,-3.8451,-3.8292,-3.8266,-3.8356,-3.8341,-3.8202,-3.8304,-3.8434,-4.2999,-4.2986,-4.2986,-4.3011,-4.2999,-4.3049,-4.3179,-4.3419,-4.3708,-4.3844,-4.3887,-4.3887,-4.4052,-4.4271,-4.4326,-4.4476,-4.4681,-4.4681,-4.4681,-4.4681,-4.4681,-4.4681,-4.4681,-4.4681,-4.4681,-4.4681,-4.4681,-4.4681,-4.4681,-4.4681,-4.4681,-4.463,-4.4552,-4.4331,-4.42,-4.4226,-4.4597,-4.4772,-4.4784,-4.4873,-4.5117,-4.4986,-4.4922,-4.4732,-4.4624,-4.4325,-4.3959,-4.3715,-4.3443,-4.3158,-4.2955,-4.2928,-4.29,-4.29,-4.29,-4.2984,-4.3128,-4.3273,-4.3417,-4.3737,-4.394,-4.4035,-4.427,-4.435,-4.3985,-4.3108,-4.2449,-4.1931,-4.1315,-4.0924,-4.0659,-4.0659,-4.0702,-4.0702,-4.0702,-4.0744,-4.0744,-4.0787,-4.0859,-4.0944,-4.0972,-4.0916,-4.0702,-4.025,-4.0166,-4.001,-3.9752,-3.9424,-3.9136,-3.8734,-3.8279,-3.7857,-3.7762,-3.7557,-3.7624,-3.7758,-3.7772,-3.7862,-3.8022,-3.8396,-3.8609,-3.8794,-3.897,-3.8967,-3.8778,-3.8513,-3.8318,-3.8178,-3.8101,-3.8066,-3.8202,-3.8202,-3.8202,-3.8202,-3.8289,-4.2986,-4.2986,-4.2986,-4.2986,-4.2986,-4.2986,-4.303,-4.3141,-4.3252,-4.3376,-4.3517,-4.3517,-4.3806,-4.4313,-4.4326,-4.4463,-4.4626,-4.4681,-4.4681,-4.4681,-4.4639,-4.4681,-4.4681,-4.4681,-4.4681,-4.4681,-4.4681,-4.4681,-4.4668,-4.4668,-4.4421,-4.4173,-4.4121,-4.3768,-4.352,-4.3441,-4.3809,-4.4057,-4.4065,-4.4336,-4.4603,-4.4627,-4.4393,-4.4149,-4.4054,-4.3715,-4.3375,-4.3226,-4.3023,-4.2955,-4.29,-4.29,-4.29,-4.29,-4.29,-4.2949,-4.3128,-4.3321,-4.3369,-4.3751,-4.3988,-4.3988,-4.4223,-4.4364,-4.4027,-4.3202,-4.2359,-4.1887,-4.1241,-4.0682,-4.063,-4.0702,-4.0702,-4.0702,-4.0702,-4.0702,-4.0702,-4.0744,-4.0773,-4.0773,-4.0859,-4.0802,-4.0562,-4.0534,-4.0435,-4.0294,-4.0139,-3.9815,-3.9489,-3.9092,-3.8623,-3.8178,-3.7824,-3.7685,-3.743,-3.7494,-3.7437,-3.7427,-3.7586,-3.7714,-3.7788,-3.7958,-3.8203,-3.82,-3.8054,-3.8049,-3.8021,-3.7891,-3.7839,-3.8066,-3.8202,-3.8202,-3.8202,-3.8202,-3.8202,-4.2986,-4.2986,-4.2986,-4.2986,-4.2986,-4.2986,-4.2986,-4.2986,-4.2986,-4.3073,-4.324,-4.324,-4.3517,-4.3848,-4.3903,-4.4081,-4.4326,-4.4326,-4.4326,-4.4313,-4.4422,-4.4422,-4.4463,-4.4546,-4.4626,-4.4668,-4.4668,-4.4681,-4.4589,-4.4395,-4.4095,-4.3585,-4.3533,-4.3193,-4.2931,-4.2864,-4.295,-4.3178,-4.3368,-4.3768,-4.397,-4.4099,-4.3728,-4.3552,-4.3457,-4.3199,-4.2955,-4.29,-4.29,-4.29,-4.29,-4.29,-4.29,-4.29,-4.29,-4.2935,-4.3032,-4.3128,-4.3177,-4.3465,-4.3642,-4.3784,-4.396,-4.3854,-4.3482,-4.2721,-4.2286,-4.1875,-4.0986,-4.0328,-4.0544,-4.0702,-4.0702,-4.0702,-4.0702,-4.0702,-4.0702,-4.0702,-4.0702,-4.0702,-4.0702,-4.0744,-4.0716,-4.0702,-4.0688,-4.059,-4.0505,-4.0351,-4.0027,-3.9674,-3.9111,-3.8573,-3.8218,-3.7882,-3.7611,-3.731,-3.7201,-3.7187,-3.7219,-3.725,-3.7116,-3.7239,-3.7568,-3.7522,-3.7363,-3.7457,-3.7663,-3.7663,-3.7649,-3.7915,-3.8089,-3.8066,-3.8104,-3.8179,-3.8179,-4.2986,-4.2986,-4.2986,-4.2986,-4.2986,-4.2986,-4.2986,-4.2986,-4.2986,-4.2986,-4.3042,-4.3042,-4.3184,-4.3517,-4.3572,-4.3696,-4.3942,-4.401,-4.4064,-4.3874,-4.4107,-4.4165,-4.4144,-4.4209,-4.4193,-4.4418,-4.4446,-4.4131,-4.4276,-4.4029,-4.352,-4.2984,-4.2958,-4.2657,-4.2238,-4.2274,-4.2356,-4.2409,-4.2705,-4.3105,-4.3283,-4.3169,-4.29,-4.2955,-4.2955,-4.29,-4.29,-4.29,-4.29,-4.29,-4.29,-4.29,-4.29,-4.29,-4.29,-4.2887,-4.2935,-4.2935,-4.3032,-4.3273,-4.3369,-4.3437,-4.3416,-4.3205,-4.2759,-4.2311,-4.1963,-4.1499,-4.0658,-4.0354,-4.0501,-4.0673,-4.0702,-4.0702,-4.0702,-4.0702,-4.0702,-4.0702,-4.0702,-4.0702,-4.0702,-4.0702,-4.0702,-4.0702,-4.0702,-4.0702,-4.0688,-4.0645,-4.0407,-4.0069,-3.9437,-3.886,-3.8366,-3.7901,-3.7535,-3.7239,-3.706,-3.7031,-3.6993,-3.6993,-3.7074,-3.706,-3.6993,-3.7056,-3.7134,-3.7187,-3.7303,-3.738,-3.7534,-3.7725,-3.7877,-3.7915,-3.7991,-3.8104,-3.8179,-4.2986,-4.2986,-4.2986,-4.2986,-4.2986,-4.2986,-4.2986,-4.2986,-4.2986,-4.2974,-4.2974,-4.303,-4.3141,-4.3351,-4.3288,-4.3454,-4.3725,-4.3572,-4.3806,-4.3784,-4.3868,-4.356,-4.365,-4.3532,-4.3566,-4.3374,-4.3257,-4.3321,-4.3349,-4.3193,-4.2944,-4.2486,-4.2356,-4.2082,-4.1651,-4.1762,-4.1781,-4.1872,-4.2189,-4.2596,-4.2887,-4.2966,-4.29,-4.29,-4.29,-4.29,-4.29,-4.29,-4.29,-4.29,-4.29,-4.29,-4.29,-4.29,-4.29,-4.29,-4.29,-4.29,-4.2984,-4.3115,-4.3197,-4.3163,-4.3025,-4.2601,-4.2219,-4.1833,-4.142,-4.0979,-4.0611,-4.0465,-4.0414,-4.0544,-4.0659,-4.0659,-4.0659,-4.0659,-4.0659,-4.0716,-4.0716,-4.0702,-4.0702,-4.0702,-4.0702,-4.0702,-4.0702,-4.0702,-4.0702,-4.0645,-4.0463,-4.0126,-3.9424,-3.8848,-3.8313,-3.785,-3.7569,-3.7302,-3.7175,-3.7021,-3.6993,-3.6978,-3.6978,-3.6978,-3.6978,-3.6978,-3.7017,-3.7095,-3.7187,-3.7303,-3.7457,-3.761,-3.7777,-3.7853,-3.7991,-3.8127,-3.8165,-4.2986,-4.2986,-4.2986,-4.2986,-4.2986,-4.2986,-4.2986,-4.2986,-4.2986,-4.2836,-4.2753,-4.2904,-4.3073,-4.3139,-4.3,-4.2928,-4.3068,-4.2827,-4.262,-4.2754,-4.3032,-4.2805,-4.2733,-4.2751,-4.2754,-4.2578,-4.2618,-4.2657,-4.2528,-4.254,-4.2434,-4.1912,-4.1781,-4.1664,-4.1324,-4.1411,-4.1498,-4.1696,-4.1931,-4.2226,-4.2631,-4.2741,-4.2887,-4.29,-4.29,-4.29,-4.29,-4.29,-4.29,-4.29,-4.29,-4.29,-4.29,-4.29,-4.29,-4.29,-4.29,-4.29,-4.2935,-4.2978,-4.2978,-4.2815,-4.2582,-4.2123,-4.1219,-4.0855,-4.0776,-4.036,-4.0181,-3.9993,-4.0154,-4.027,-4.0314,-4.03,-4.0357,-4.0357,-4.0457,-4.0515,-4.0587,-4.0702,-4.0702,-4.0702,-4.0702,-4.0702,-4.0702,-4.0702,-4.0702,-4.0587,-4.0391,-3.9985,-3.9341,-3.8837,-3.8304,-3.8231,-3.8229,-3.7821,-3.7372,-3.7203,-3.6993,-3.6978,-3.6978,-3.6978,-3.6978,-3.6978,-3.6978,-3.7056,-3.7134,-3.7187,-3.7303,-3.7419,-3.761,-3.7777,-3.7953,-3.8052,-3.8014,-4.2986,-4.2986,-4.2986,-4.2918,-4.2862,-4.2974,-4.2868,-4.2693,-4.2805,-4.2547,-4.22,-4.2509,-4.2735,-4.2585,-4.2321,-4.2213,-4.2024,-4.1944,-4.1571,-4.1521,-4.1588,-4.1767,-4.1864,-4.1762,-4.1821,-4.1929,-4.2047,-4.1983,-4.1826,-4.1928,-4.1834,-4.1389,-4.1311,-4.1311,-4.1361,-4.1511,-4.161,-4.1647,-4.1796,-4.1993,-4.2289,-4.2533,-4.2741,-4.2852,-4.2887,-4.29,-4.29,-4.29,-4.29,-4.29,-4.29,-4.29,-4.29,-4.29,-4.29,-4.29,-4.29,-4.29,-4.2908,-4.2772,-4.2501,-4.2202,-4.1964,-4.1367,-4.0477,-4.0146,-4.008,-3.9946,-3.9768,-3.9788,-3.9892,-4.0009,-3.9996,-4.0039,-4.0053,-4.0097,-4.0241,-4.0342,-4.0457,-4.0573,-4.0616,-4.0616,-4.0616,-4.0616,-4.0602,-4.0602,-4.0559,-4.0487,-4.0247,-3.9576,-3.895,-3.863,-3.8281,-3.8376,-3.8373,-3.806,-3.7372,-3.7189,-3.6978,-3.6978,-3.6978,-3.6978,-3.6978,-3.6978,-3.7017,-3.7017,-3.7017,-3.7056,-3.7134,-3.7303,-3.7419,-3.761,-3.7777,-3.7839,-3.7801,-4.2986,-4.2986,-4.2986,-4.2569,-4.2049,-4.2613,-4.2333,-4.1447,-4.202,-4.2007,-4.1576,-4.1501,-4.1589,-4.1589,-4.1526,-4.1438,-4.128,-4.1121,-4.125,-4.1342,-4.1223,-4.1258,-4.1147,-4.102,-4.0937,-4.1029,-4.1196,-4.1295,-4.1334,-4.1421,-4.1468,-4.1274,-4.1274,-4.1274,-4.1261,-4.1361,-4.1361,-4.1398,-4.1498,-4.1647,-4.1796,-4.2092,-4.2511,-4.2658,-4.279,-4.2838,-4.29,-4.29,-4.29,-4.29,-4.2838,-4.279,-4.2838,-4.2838,-4.29,-4.29,-4.29,-4.29,-4.2833,-4.2507,-4.2154,-4.1856,-4.1489,-4.0689,-4.0024,-3.9699,-3.9656,-3.9619,-3.951,-3.9656,-3.976,-3.9878,-3.9908,-3.9908,-3.9966,-3.9966,-4.0053,-4.0053,-4.014,-4.0184,-4.0227,-4.0227,-4.0227,-4.0213,-4.0128,-4.01,-3.9974,-3.9887,-3.9595,-3.907,-3.8504,-3.8256,-3.8021,-3.7519,-3.7179,-3.7559,-3.7192,-3.7077,-3.6978,-3.6978,-3.6978,-3.6978,-3.6978,-3.6978,-3.6978,-3.6978,-3.6978,-3.6978,-3.7095,-3.7264,-3.7303,-3.7419,-3.7572,-3.7663,-3.761]}]]